[[{"header":{"parameterUnit":"m.s-1","parameterCategory":1,"la1":31.0,"la2":29.5877,"lo1":-88.7671,"lo2":-86.6584,"dx":0.0162,"dy":0.0185,"nx":115,"ny":88,"refTime":"2023-01-19T18:00:00:Z","depth":0,"parameterNumber":2,"parameterNumberName":"U-component_of_WINDS"},"data":[0.0,0.0,0.0,0.0,0.0,0.0,0.0,0.0,0.0,0.0,0.0,0.0,0.0,0.0,0.0,0.0,0.0,0.0,0.0,0.0,0.0,0.0,0.0,0.0,0.0,0.0,0.0,0.0,0.0,0.0,0.0,0.0,0.0,0.0,0.0,0.0,0.0,0.0,0.0,0.0,0.0,0.0,0.0,0.0,0.0,0.0,0.0,0.0,0.0,0.0,0.0,0.0,0.0,0.0,0.0,0.0,0.0,0.0,0.0,0.0,0.0,0.0,0.0,0.0,0.0,0.0,0.0,0.0,0.0,0.0,0.0,0.0,0.0,0.0,0.0,0.0,0.0,0.0,0.0,0.0,0.0,0.0,0.0,0.0,0.0,0.0,0.0,0.0,0.0,0.0,0.0,0.0,0.0,0.0,0.0,0.0,0.0,0.0,0.0,0.0,0.0,0.0,0.0,0.0,0.0,0.0,0.0,0.0,0.0,0.0,0.0,0.0,0.0,0.0,0.0,0.0,0.0,0.0,0.0,0.0,0.0,0.0,0.0,0.0,0.0,0.0,0.0,0.0,0.0,0.0,0.0,0.0,0.0,0.0,0.0,0.0,0.0,0.0,0.0,0.0,0.0,0.0,0.0,0.0,0.0,0.0,0.0,0.0,0.0,0.0,0.0,0.0,0.0,0.0,0.0,0.0,0.0,0.0,0.0,0.0,0.0,0.0,0.0,0.0,0.0,0.0,0.0,0.0,0.0,0.0,0.0,0.0,0.0,0.0,0.0,0.0,0.0,0.0,0.0,0.0,0.0,0.0,0.0,0.0,0.0,0.0,0.0,0.0,0.0,0.0,0.0,0.0,0.0,0.0,0.0,0.0,0.0,0.0,0.0,0.0,0.0,0.0,0.0,0.0,0.0,0.0,0.0,0.0,0.0,0.0,0.0,0.0,0.0,0.0,0.0,0.0,0.0,0.0,0.0,0.0,0.0,0.0,0.0,0.0,0.0,0.0,0.0,0.0,0.0,0.0,0.0,0.0,0.0,0.0,0.0,0.0,0.0,0.0,0.0,0.0,0.0,0.0,0.0,0.0,0.0,0.0,0.0,0.0,0.0,0.0,0.0,0.0,0.0,0.0,0.0,0.0,0.0,0.0,0.0,0.0,0.0,0.0,0.0,0.0,0.0,0.0,0.0,0.0,0.0,0.0,0.0,0.0,0.0,0.0,0.0,0.0,0.0,0.0,0.0,0.0,0.0,0.0,0.0,0.0,0.0,0.0,0.0,0.0,0.0,0.0,0.0,0.0,0.0,0.0,0.0,0.0,0.0,0.0,0.0,0.0,0.0,0.0,0.0,0.0,0.0,0.0,0.0,0.0,0.0,0.0,0.0,0.0,0.0,0.0,0.0,0.0,0.0,0.0,0.0,0.0,0.0,0.0,0.0,0.0,0.0,0.0,0.0,0.0,0.0,0.0,0.0,0.0,0.0,0.0,0.0,0.0,0.0,0.0,0.0,0.0,0.0,0.0,0.0,0.0,0.0,0.0,0.0,0.0,0.0,0.0,0.0,0.0,0.0,0.0,0.0,0.0,0.0,0.0,0.0,0.0,0.0,0.0,0.0,0.0,0.0,0.0,0.0,0.0,0.0,0.0,0.0,0.0,0.0,0.0,0.0,0.0,0.0,0.0,0.0,0.0,0.0,0.0,0.0,0.0,0.0,0.0,0.0,0.0,0.0,0.0,0.0,0.0,0.0,0.0,0.0,0.0,0.0,0.0,0.0,0.0,0.0,0.0,0.0,0.0,0.0,0.0,0.0,0.0,0.0,0.0,0.0,0.0,0.0,0.0,0.0,0.0,0.0,0.0,0.0,0.0,0.0,0.0,0.0,0.0,0.0,0.0,0.0,0.0,0.0,0.0,0.0,0.0,0.0,0.0,0.0,0.0,0.0,0.0,0.0,0.0,0.0,0.0,0.0,0.0,0.0,0.0,0.0,0.0,0.0,0.0,0.0,0.0,0.0,0.0,0.0,0.0,0.0,0.0,0.0,0.0,0.0,0.0,0.0,0.0,0.0,0.0,0.0,0.0,0.0,0.0,0.0,0.0,0.0,0.0,0.0,0.0,0.0,0.0,0.0,0.0,0.0,0.0,0.0,0.0,0.0,0.0,0.0,0.0,0.0,0.0,0.0,0.0,0.0,0.0,0.0,0.0,0.0,0.0,0.0,0.0,0.0,0.0,0.0,0.0,0.0,0.0,0.0,0.0,0.0,0.0,0.0,0.0,0.0,0.0,0.0,0.0,0.0,0.0,0.0,0.0,0.0,0.0,0.0,0.0,0.0,0.0,0.0,0.0,0.0,0.0,0.0,0.0,0.0,0.0,0.0,0.0,0.0,0.0,0.0,0.0,0.0,0.0,0.0,0.0,0.0,0.0,0.0,0.0,0.0,0.0,0.0,0.0,0.0,0.0,0.0,0.0,0.0,0.0,0.0,0.0,0.0,0.0,0.0,0.0,0.0,0.0,0.0,0.0,0.0,0.0,0.0,0.0,0.0,0.0,0.0,0.0,0.0,0.0,0.0,0.0,0.0,0.0,0.0,0.0,0.0,0.0,0.0,0.0,0.0,0.0,0.0,0.0,0.0,0.0,0.0,0.0,0.0,0.0,0.0,0.0,0.0,0.0,0.0,0.0,0.0,0.0,0.0,0.0,0.0,0.0,0.0,0.0,0.0,0.0,0.0,0.0,0.0,0.0,0.0,0.0,0.0,0.0,0.0,0.0,0.0,0.0,0.0,0.0,0.0,0.0,0.0,0.0,0.0,0.0,0.0,0.0,0.0,0.0,0.0,0.0,0.0,0.0,0.0,0.0,0.0,0.0,0.0,0.0,0.0,0.0,0.0,0.0,0.0,0.0,0.0,0.0,0.0,0.0,0.0,0.0,0.0,0.0,0.0,0.0,0.0,0.0,0.0,0.0,0.0,0.0,0.0,0.0,0.0,0.0,0.0,0.0,0.0,0.0,0.0,0.0,0.0,0.0,0.0,0.0,0.0,0.0,0.0,0.0,0.0,0.0,0.0,0.0,0.0,0.0,0.0,0.0,0.0,0.0,0.0,0.0,0.0,0.0,0.0,0.0,0.0,0.0,0.0,0.0,0.0,0.0,0.0,0.0,0.0,0.0,0.0,0.0,0.0,0.0,0.0,0.0,0.0,0.0,0.0,0.0,0.0,0.0,0.0,0.0,0.0,0.0,0.0,0.0,0.0,0.0,0.0,0.0,0.0,0.0,0.0,0.0,0.0,0.0,0.0,0.0,0.0,0.0,0.0,0.0,0.0,0.0,0.0,0.0,0.0,0.0,0.0,0.0,0.0,0.0,0.0,0.0,0.0,0.0,0.0,0.0,0.0,0.0,0.0,0.0,0.0,0.0,0.0,0.0,0.0,0.0,0.0,0.0,0.0,0.0,0.0,0.0,0.0,0.0,0.0,0.0,0.0,0.0,0.0,0.0,0.0,0.0,0.0,0.0,0.0,0.0,0.0,0.0,0.0,0.0,0.0,0.0,0.0,0.0,0.0,0.0,0.0,0.0,0.0,0.0,0.0,0.0,0.0,0.0,0.0,0.0,0.0,0.0,0.0,0.0,0.0,0.0,0.0,0.0,0.0,0.0,0.0,0.0,0.0,0.0,0.0,0.0,0.0,0.0,0.0,0.0,0.0,0.0,0.0,0.0,0.0,0.0,0.0,0.0,0.0,0.0,0.0,0.0,0.0,0.0,0.0,0.0,0.0,0.0,0.0,0.0,0.0,0.0,0.0,0.0,0.0,0.0,0.0,0.0,0.0,0.0,0.0,0.0,0.0,0.0,0.0,0.0,0.0,0.0,0.0,0.0,0.0,0.0,0.0,0.0,0.0,0.0,0.0,0.0,0.0,0.0,0.0,0.0,0.0,0.0,0.0,0.0,0.0,0.0,0.0,0.0,0.0,0.0,0.0,0.0,0.0,0.0,0.0,0.0,0.0,0.0,0.0,0.0,0.0,0.0,0.0,0.0,0.0,0.0,0.0,0.0,0.0,0.0,0.0,0.0,0.0,0.0,0.0,0.0,0.0,0.0,0.0,0.0,0.0,0.0,0.0,0.0,0.0,0.0,0.0,0.0,0.0,0.0,0.0,0.0,0.0,0.0,0.0,0.0,0.0,0.0,0.0,0.0,0.0,0.0,0.0,0.0,0.0,0.0,0.0,0.0,0.0,0.0,0.0,0.0,0.0,0.0,0.0,0.0,0.0,0.0,0.0,0.0,4.3366,0.0,0.0,0.0,0.0,0.0,0.0,0.0,0.0,0.0,0.0,0.0,0.0,0.0,0.0,0.0,0.0,0.0,0.0,0.0,0.0,0.0,0.0,0.0,0.0,0.0,0.0,0.0,0.0,0.0,0.0,0.0,0.0,0.0,0.0,0.0,0.0,0.0,0.0,0.0,0.0,0.0,0.0,0.0,0.0,0.0,0.0,0.0,0.0,0.0,0.0,0.0,0.0,0.0,0.0,0.0,0.0,0.0,0.0,0.0,0.0,0.0,0.0,0.0,0.0,0.0,0.0,0.0,0.0,0.0,0.0,0.0,0.0,0.0,0.0,0.0,0.0,0.0,0.0,0.0,0.0,0.0,0.0,0.0,0.0,0.0,0.0,0.0,0.0,0.0,0.0,0.0,0.0,0.0,0.0,0.0,0.0,0.0,0.0,0.0,0.0,0.0,0.0,0.0,0.0,0.0,0.0,0.0,0.0,0.0,0.0,4.1856,4.2248,4.1635,4.1978,4.3503,0.0,0.0,0.0,0.0,0.0,0.0,0.0,0.0,0.0,0.0,0.0,0.0,0.0,0.0,0.0,0.0,0.0,0.0,0.0,0.0,0.0,0.0,0.0,0.0,0.0,0.0,0.0,0.0,0.0,0.0,0.0,0.0,0.0,0.0,0.0,0.0,0.0,0.0,0.0,0.0,0.0,0.0,0.0,0.0,0.0,0.0,0.0,0.0,0.0,0.0,0.0,0.0,0.0,0.0,0.0,0.0,0.0,0.0,0.0,0.0,0.0,0.0,0.0,0.0,0.0,0.0,0.0,0.0,0.0,0.0,0.0,0.0,0.0,0.0,0.0,0.0,0.0,0.0,0.0,0.0,0.0,0.0,0.0,0.0,0.0,0.0,0.0,0.0,0.0,0.0,0.0,0.0,0.0,0.0,0.0,0.0,0.0,0.0,0.0,0.0,0.0,0.0,0.0,0.0,0.0,0.0,0.0,0.0,0.0,0.0,0.0,0.0,4.2438,4.2685,4.3494,0.0,0.0,0.0,0.0,0.0,0.0,0.0,0.0,0.0,0.0,0.0,0.0,0.0,0.0,0.0,0.0,0.0,0.0,0.0,0.0,0.0,0.0,0.0,0.0,0.0,0.0,0.0,0.0,0.0,0.0,0.0,0.0,0.0,0.0,0.0,0.0,0.0,0.0,0.0,0.0,0.0,0.0,0.0,0.0,0.0,0.0,0.0,0.0,0.0,0.0,0.0,0.0,0.0,0.0,0.0,0.0,0.0,0.0,0.0,0.0,0.0,0.0,0.0,0.0,0.0,0.0,0.0,0.0,0.0,0.0,0.0,0.0,0.0,0.0,0.0,0.0,0.0,0.0,0.0,0.0,0.0,0.0,0.0,0.0,0.0,0.0,0.0,0.0,0.0,0.0,0.0,0.0,0.0,0.0,0.0,0.0,0.0,0.0,0.0,0.0,0.0,0.0,0.0,0.0,0.0,0.0,0.0,0.0,0.0,0.0,4.3533,4.4243,4.2864,0.0,4.3266,0.0,0.0,0.0,0.0,0.0,0.0,0.0,0.0,0.0,0.0,0.0,0.0,0.0,0.0,0.0,0.0,0.0,0.0,0.0,0.0,0.0,0.0,0.0,0.0,0.0,0.0,0.0,0.0,0.0,0.0,0.0,0.0,0.0,0.0,0.0,0.0,0.0,0.0,0.0,0.0,0.0,0.0,0.0,0.0,0.0,0.0,0.0,0.0,0.0,0.0,0.0,0.0,0.0,0.0,0.0,0.0,0.0,0.0,0.0,0.0,0.0,0.0,0.0,0.0,0.0,0.0,0.0,0.0,0.0,0.0,0.0,0.0,0.0,0.0,0.0,0.0,0.0,0.0,0.0,0.0,0.0,0.0,0.0,0.0,0.0,0.0,0.0,0.0,0.0,0.0,0.0,0.0,0.0,0.0,0.0,0.0,0.0,0.0,0.0,0.0,0.0,0.0,0.0,0.0,0.0,0.0,0.0,0.0,0.0,0.0,4.438,4.5206,4.4564,4.4151,0.0,0.0,0.0,0.0,0.0,0.0,0.0,0.0,0.0,0.0,0.0,0.0,0.0,0.0,0.0,0.0,0.0,0.0,0.0,0.0,0.0,0.0,0.0,0.0,0.0,0.0,0.0,0.0,0.0,0.0,0.0,0.0,0.0,0.0,0.0,0.0,0.0,0.0,0.0,0.0,0.0,0.0,0.0,0.0,0.0,0.0,0.0,0.0,0.0,0.0,0.0,0.0,0.0,0.0,0.0,0.0,0.0,0.0,0.0,0.0,0.0,0.0,0.0,0.0,0.0,0.0,0.0,0.0,0.0,0.0,0.0,0.0,0.0,0.0,0.0,0.0,0.0,0.0,0.0,0.0,0.0,0.0,0.0,0.0,0.0,0.0,0.0,0.0,0.0,0.0,0.0,0.0,0.0,0.0,0.0,0.0,0.0,0.0,0.0,0.0,0.0,0.0,0.0,0.0,0.0,0.0,0.0,0.0,0.0,0.0,4.5199,4.5469,4.5998,4.6069,4.566,4.4864,0.0,0.0,0.0,0.0,0.0,0.0,0.0,0.0,0.0,0.0,0.0,0.0,0.0,0.0,0.0,0.0,0.0,0.0,0.0,0.0,0.0,0.0,0.0,0.0,0.0,0.0,0.0,0.0,0.0,0.0,0.0,0.0,0.0,0.0,0.0,0.0,0.0,0.0,0.0,0.0,0.0,0.0,0.0,0.0,0.0,0.0,0.0,0.0,0.0,0.0,0.0,0.0,0.0,0.0,0.0,0.0,0.0,0.0,0.0,0.0,0.0,0.0,0.0,0.0,0.0,0.0,0.0,0.0,0.0,0.0,0.0,0.0,0.0,0.0,0.0,0.0,0.0,0.0,0.0,0.0,0.0,0.0,0.0,0.0,0.0,0.0,0.0,0.0,0.0,0.0,0.0,0.0,0.0,0.0,0.0,0.0,0.0,0.0,0.0,0.0,0.0,0.0,0.0,0.0,0.0,0.0,0.0,0.0,0.0,4.6892,4.6892,4.6933,4.6929,4.6554,0.0,0.0,0.0,0.0,0.0,0.0,0.0,0.0,0.0,0.0,0.0,0.0,0.0,0.0,0.0,0.0,0.0,0.0,0.0,0.0,0.0,0.0,0.0,0.0,0.0,0.0,0.0,0.0,0.0,0.0,0.0,0.0,0.0,0.0,0.0,0.0,0.0,0.0,0.0,0.0,0.0,0.0,0.0,0.0,0.0,0.0,0.0,0.0,0.0,0.0,0.0,0.0,0.0,0.0,0.0,0.0,0.0,0.0,0.0,0.0,0.0,0.0,0.0,0.0,0.0,0.0,0.0,0.0,0.0,0.0,0.0,0.0,0.0,0.0,0.0,0.0,0.0,0.0,0.0,0.0,0.0,0.0,0.0,0.0,0.0,0.0,0.0,0.0,0.0,0.0,0.0,0.0,0.0,0.0,0.0,0.0,0.0,0.0,0.0,0.0,0.0,0.0,0.0,0.0,0.0,0.0,0.0,0.0,0.0,4.7008,4.75,4.7496,4.7042,4.7496,4.7391,0.0,0.0,0.0,0.0,0.0,0.0,0.0,0.0,0.0,0.0,0.0,0.0,0.0,0.0,0.0,0.0,0.0,0.0,0.0,0.0,0.0,0.0,0.0,0.0,0.0,0.0,0.0,0.0,0.0,0.0,0.0,0.0,0.0,0.0,0.0,0.0,0.0,0.0,0.0,0.0,0.0,0.0,0.0,0.0,0.0,0.0,0.0,0.0,0.0,0.0,0.0,0.0,0.0,0.0,0.0,0.0,0.0,0.0,0.0,0.0,0.0,0.0,0.0,0.0,0.0,0.0,0.0,0.0,0.0,0.0,0.0,0.0,0.0,0.0,0.0,0.0,0.0,0.0,0.0,0.0,0.0,0.0,0.0,0.0,0.0,0.0,0.0,0.0,0.0,0.0,0.0,0.0,0.0,0.0,0.0,0.0,0.0,0.0,0.0,0.0,0.0,0.0,0.0,0.0,0.0,0.0,0.0,0.0,0.0,4.7834,0.0,4.8363,4.7871,4.8326,4.8209,0.0,0.0,0.0,0.0,0.0,0.0,0.0,0.0,0.0,0.0,0.0,0.0,0.0,0.0,0.0,0.0,0.0,0.0,0.0,0.0,0.0,0.0,0.0,0.0,0.0,0.0,0.0,0.0,0.0,0.0,0.0,0.0,0.0,0.0,0.0,0.0,0.0,0.0,0.0,0.0,0.0,0.0,0.0,0.0,0.0,0.0,0.0,0.0,0.0,0.0,0.0,0.0,0.0,0.0,0.0,0.0,0.0,0.0,0.0,0.0,0.0,0.0,0.0,0.0,0.0,0.0,0.0,0.0,0.0,0.0,0.0,0.0,0.0,0.0,0.0,0.0,0.0,0.0,0.0,0.0,0.0,0.0,0.0,0.0,0.0,0.0,0.0,0.0,0.0,0.0,0.0,0.0,0.0,0.0,0.0,0.0,0.0,0.0,0.0,0.0,0.0,0.0,0.0,0.0,0.0,0.0,0.0,0.0,4.9452,4.9452,4.9452,4.9415,4.949,4.9452,4.9077,0.0,0.0,0.0,0.0,0.0,0.0,0.0,0.0,0.0,0.0,0.0,0.0,0.0,0.0,0.0,0.0,0.0,0.0,0.0,0.0,0.0,0.0,0.0,0.0,0.0,0.0,0.0,0.0,0.0,0.0,0.0,0.0,0.0,0.0,0.0,0.0,0.0,0.0,0.0,0.0,0.0,0.0,0.0,0.0,0.0,0.0,0.0,0.0,0.0,0.0,0.0,0.0,0.0,0.0,0.0,0.0,0.0,0.0,0.0,0.0,0.0,0.0,0.0,0.0,0.0,0.0,0.0,0.0,0.0,0.0,0.0,0.0,0.0,0.0,0.0,0.0,0.0,0.0,0.0,0.0,0.0,0.0,0.0,0.0,0.0,0.0,0.0,0.0,0.0,0.0,0.0,0.0,0.0,0.0,0.0,0.0,0.0,0.0,0.0,0.0,0.0,0.0,0.0,0.0,0.0,0.0,0.0,0.0,0.0,4.949,4.949,4.949,4.949,4.949,4.9373,0.0,0.0,0.0,0.0,0.0,0.0,0.0,0.0,0.0,0.0,0.0,0.0,0.0,0.0,0.0,0.0,0.0,0.0,0.0,0.0,0.0,0.0,0.0,0.0,0.0,0.0,0.0,0.0,0.0,0.0,0.0,0.0,0.0,0.0,0.0,0.0,0.0,0.0,0.0,0.0,0.0,0.0,0.0,0.0,0.0,0.0,0.0,0.0,0.0,0.0,0.0,0.0,0.0,0.0,0.0,0.0,0.0,0.0,0.0,0.0,0.0,0.0,0.0,0.0,0.0,0.0,0.0,0.0,0.0,0.0,0.0,0.0,0.0,0.0,0.0,0.0,0.0,0.0,0.0,0.0,0.0,0.0,0.0,0.0,0.0,0.0,0.0,0.0,0.0,0.0,0.0,0.0,0.0,0.0,0.0,0.0,0.0,0.0,0.0,0.0,0.0,0.0,0.0,0.0,0.0,0.0,0.0,0.0,0.0,4.949,4.949,4.949,4.949,4.949,4.949,4.949,0.0,0.0,0.0,0.0,0.0,0.0,0.0,0.0,0.0,0.0,0.0,0.0,0.0,0.0,0.0,0.0,0.0,0.0,0.0,0.0,0.0,0.0,0.0,0.0,0.0,0.0,0.0,0.0,0.0,0.0,0.0,0.0,0.0,0.0,0.0,0.0,0.0,0.0,0.0,0.0,0.0,0.0,0.0,0.0,0.0,0.0,0.0,0.0,0.0,0.0,0.0,0.0,0.0,0.0,0.0,0.0,0.0,0.0,0.0,0.0,0.0,0.0,0.0,0.0,0.0,0.0,0.0,0.0,0.0,0.0,0.0,0.0,0.0,0.0,0.0,0.0,0.0,0.0,0.0,0.0,0.0,0.0,0.0,0.0,0.0,0.0,0.0,0.0,0.0,0.0,0.0,0.0,0.0,0.0,0.0,0.0,0.0,0.0,0.0,0.0,0.0,0.0,0.0,0.0,0.0,0.0,0.0,0.0,4.949,4.949,4.949,4.949,4.949,4.949,0.0,0.0,0.0,0.0,0.0,0.0,0.0,0.0,0.0,0.0,0.0,0.0,0.0,0.0,0.0,0.0,0.0,0.0,0.0,0.0,0.0,0.0,0.0,0.0,0.0,0.0,0.0,0.0,0.0,0.0,0.0,0.0,0.0,0.0,0.0,0.0,0.0,0.0,0.0,0.0,0.0,0.0,0.0,0.0,0.0,0.0,0.0,0.0,0.0,0.0,0.0,0.0,0.0,0.0,0.0,0.0,0.0,0.0,0.0,0.0,0.0,0.0,0.0,0.0,0.0,0.0,0.0,0.0,0.0,0.0,0.0,0.0,0.0,0.0,0.0,0.0,0.0,0.0,0.0,0.0,0.0,0.0,0.0,0.0,0.0,0.0,0.0,0.0,0.0,0.0,0.0,0.0,0.0,0.0,0.0,0.0,0.0,0.0,0.0,0.0,0.0,0.0,0.0,0.0,0.0,0.0,0.0,0.0,0.0,4.949,4.949,4.949,4.949,4.949,4.949,0.0,0.0,0.0,0.0,0.0,0.0,0.0,0.0,0.0,0.0,0.0,0.0,0.0,0.0,0.0,0.0,0.0,0.0,0.0,0.0,0.0,0.0,0.0,0.0,0.0,0.0,0.0,0.0,0.0,0.0,0.0,0.0,0.0,0.0,0.0,0.0,0.0,0.0,0.0,0.0,0.0,0.0,0.0,0.0,0.0,0.0,0.0,0.0,0.0,0.0,0.0,0.0,0.0,0.0,0.0,0.0,0.0,0.0,0.0,0.0,0.0,0.0,0.0,0.0,0.0,0.0,0.0,0.0,0.0,0.0,0.0,0.0,0.0,0.0,0.0,0.0,0.0,0.0,0.0,0.0,0.0,0.0,0.0,0.0,0.0,0.0,0.0,0.0,0.0,0.0,0.0,0.0,0.0,0.0,0.0,0.0,0.0,0.0,0.0,0.0,0.0,0.0,0.0,0.0,0.0,0.0,0.0,0.0,4.949,4.949,4.949,4.949,4.949,4.949,4.949,0.0,0.0,0.0,0.0,0.0,0.0,0.0,0.0,0.0,0.0,0.0,0.0,0.0,0.0,0.0,0.0,0.0,0.0,0.0,0.0,0.0,0.0,0.0,0.0,0.0,0.0,0.0,0.0,0.0,0.0,0.0,0.0,0.0,0.0,0.0,0.0,0.0,0.0,0.0,0.0,0.0,0.0,0.0,0.0,0.0,0.0,0.0,0.0,0.0,0.0,0.0,0.0,0.0,0.0,0.0,0.0,0.0,0.0,0.0,0.0,0.0,0.0,0.0,0.0,0.0,0.0,0.0,0.0,0.0,0.0,0.0,0.0,0.0,0.0,0.0,0.0,0.0,0.0,0.0,0.0,0.0,0.0,0.0,0.0,0.0,0.0,0.0,0.0,0.0,0.0,0.0,0.0,0.0,0.0,0.0,0.0,0.0,0.0,0.0,0.0,0.0,0.0,0.0,0.0,0.0,0.0,0.0,0.0,4.949,4.949,4.949,4.949,4.949,4.949,4.949,0.0,0.0,0.0,0.0,0.0,0.0,0.0,0.0,0.0,0.0,0.0,0.0,0.0,0.0,0.0,0.0,0.0,0.0,0.0,0.0,0.0,0.0,0.0,0.0,0.0,0.0,0.0,0.0,0.0,0.0,0.0,0.0,0.0,0.0,0.0,0.0,0.0,0.0,0.0,0.0,0.0,0.0,0.0,0.0,0.0,0.0,0.0,0.0,0.0,0.0,0.0,0.0,0.0,0.0,0.0,0.0,0.0,0.0,0.0,0.0,0.0,0.0,0.0,0.0,0.0,0.0,0.0,0.0,0.0,0.0,0.0,0.0,0.0,0.0,0.0,0.0,0.0,0.0,0.0,0.0,0.0,0.0,0.0,0.0,0.0,0.0,0.0,0.0,0.0,0.0,0.0,0.0,0.0,0.0,0.0,0.0,0.0,0.0,0.0,0.0,0.0,0.0,0.0,0.0,0.0,0.0,0.0,0.0,4.949,4.949,4.949,4.949,4.949,4.949,4.949,0.0,0.0,0.0,0.0,0.0,0.0,0.0,0.0,0.0,0.0,0.0,0.0,0.0,0.0,0.0,0.0,0.0,0.0,0.0,0.0,0.0,0.0,0.0,0.0,0.0,0.0,0.0,0.0,0.0,0.0,0.0,0.0,0.0,0.0,0.0,0.0,0.0,0.0,0.0,0.0,0.0,0.0,0.0,0.0,0.0,0.0,0.0,0.0,5.1894,0.0,0.0,0.0,0.0,0.0,0.0,0.0,0.0,0.0,0.0,0.0,0.0,0.0,0.0,0.0,0.0,0.0,0.0,0.0,0.0,0.0,0.0,0.0,0.0,0.0,0.0,0.0,0.0,0.0,0.0,0.0,0.0,0.0,0.0,0.0,0.0,0.0,0.0,0.0,0.0,0.0,0.0,0.0,0.0,0.0,0.0,0.0,0.0,0.0,0.0,0.0,0.0,0.0,0.0,0.0,0.0,0.0,0.0,0.0,4.949,4.949,4.949,4.9431,4.9279,4.9271,4.9327,0.0,0.0,0.0,0.0,0.0,0.0,0.0,0.0,0.0,0.0,0.0,0.0,0.0,0.0,0.0,0.0,0.0,0.0,0.0,0.0,0.0,0.0,0.0,0.0,0.0,0.0,0.0,0.0,0.0,0.0,0.0,0.0,0.0,0.0,0.0,0.0,0.0,0.0,0.0,0.0,0.0,0.0,0.0,0.0,0.0,0.0,0.0,0.0,0.0,0.0,0.0,0.0,0.0,0.0,0.0,0.0,0.0,0.0,0.0,0.0,0.0,0.0,0.0,0.0,0.0,0.0,0.0,0.0,0.0,0.0,0.0,0.0,0.0,0.0,0.0,0.0,0.0,0.0,0.0,0.0,0.0,0.0,0.0,0.0,0.0,0.0,0.0,0.0,0.0,0.0,0.0,0.0,0.0,0.0,0.0,0.0,0.0,0.0,0.0,0.0,0.0,0.0,0.0,0.0,0.0,0.0,0.0,4.9729,4.9753,4.9865,4.9861,4.9721,4.9459,4.9408,4.9492,4.9791,0.0,0.0,0.0,0.0,0.0,0.0,0.0,0.0,0.0,0.0,0.0,0.0,0.0,0.0,0.0,0.0,0.0,0.0,0.0,0.0,0.0,0.0,0.0,0.0,0.0,0.0,0.0,0.0,0.0,0.0,0.0,0.0,0.0,0.0,0.0,0.0,0.0,0.0,5.0876,5.0939,0.0,0.0,0.0,0.0,0.0,0.0,0.0,0.0,5.2597,0.0,0.0,0.0,0.0,0.0,0.0,0.0,0.0,0.0,0.0,0.0,0.0,0.0,0.0,0.0,0.0,0.0,0.0,0.0,0.0,0.0,0.0,0.0,0.0,0.0,0.0,0.0,0.0,0.0,0.0,0.0,0.0,0.0,0.0,0.0,0.0,0.0,0.0,0.0,0.0,0.0,0.0,0.0,0.0,0.0,0.0,0.0,0.0,0.0,0.0,0.0,0.0,0.0,0.0,0.0,0.0,5.1087,5.0729,5.0808,5.1513,5.1513,5.1456,5.1411,5.1143,5.1039,5.1041,0.0,0.0,0.0,0.0,0.0,0.0,0.0,0.0,0.0,0.0,0.0,0.0,0.0,0.0,0.0,0.0,0.0,0.0,0.0,0.0,0.0,0.0,0.0,0.0,0.0,0.0,0.0,0.0,0.0,0.0,0.0,0.0,0.0,0.0,0.0,0.0,0.0,0.0,0.0,5.111,5.0866,0.0,0.0,0.0,0.0,0.0,0.0,0.0,0.0,5.4325,0.0,0.0,0.0,0.0,0.0,0.0,0.0,0.0,0.0,0.0,0.0,0.0,0.0,0.0,0.0,0.0,0.0,0.0,0.0,0.0,0.0,0.0,0.0,0.0,0.0,0.0,0.0,0.0,0.0,0.0,0.0,0.0,0.0,0.0,0.0,0.0,0.0,0.0,0.0,0.0,0.0,0.0,0.0,0.0,0.0,0.0,0.0,0.0,0.0,0.0,0.0,0.0,0.0,0.0,0.0,5.1037,5.1448,5.1736,5.1918,5.1931,5.1757,5.144,5.1282,5.1014,0.0,0.0,0.0,0.0,0.0,0.0,0.0,0.0,0.0,0.0,0.0,0.0,0.0,0.0,0.0,0.0,0.0,0.0,0.0,0.0,0.0,0.0,0.0,0.0,0.0,0.0,0.0,0.0,0.0,0.0,0.0,0.0,0.0,0.0,0.0,0.0,0.0,0.0,0.0,0.0,5.1119,5.1144,5.1476,0.0,0.0,0.0,0.0,0.0,0.0,5.4423,5.4518,0.0,0.0,0.0,0.0,0.0,0.0,0.0,0.0,0.0,0.0,0.0,0.0,0.0,0.0,0.0,0.0,0.0,0.0,0.0,0.0,0.0,0.0,0.0,0.0,0.0,0.0,0.0,0.0,0.0,0.0,0.0,0.0,0.0,0.0,0.0,0.0,0.0,0.0,0.0,0.0,0.0,0.0,0.0,0.0,0.0,0.0,0.0,0.0,0.0,0.0,0.0,0.0,0.0,0.0,0.0,5.1417,5.2297,5.266,5.245,5.2281,5.1959,5.1496,5.145,5.1116,0.0,0.0,0.0,0.0,0.0,0.0,0.0,0.0,0.0,0.0,0.0,0.0,0.0,0.0,0.0,0.0,0.0,0.0,0.0,0.0,0.0,0.0,0.0,0.0,0.0,0.0,0.0,0.0,0.0,0.0,0.0,0.0,0.0,0.0,0.0,0.0,0.0,0.0,0.0,0.0,0.0,5.1518,5.172,5.3107,0.0,0.0,0.0,0.0,5.496,5.4549,0.0,0.0,0.0,0.0,0.0,0.0,0.0,0.0,0.0,0.0,0.0,0.0,0.0,0.0,0.0,0.0,0.0,0.0,0.0,0.0,0.0,0.0,0.0,0.0,0.0,0.0,0.0,0.0,0.0,0.0,0.0,0.0,0.0,0.0,0.0,0.0,0.0,0.0,0.0,0.0,0.0,0.0,0.0,0.0,0.0,0.0,0.0,0.0,0.0,0.0,0.0,0.0,0.0,0.0,0.0,0.0,5.3654,5.3448,5.3627,5.4226,5.3612,5.3218,5.3101,5.2899,5.2705,0.0,0.0,0.0,0.0,0.0,0.0,0.0,0.0,0.0,0.0,0.0,0.0,0.0,0.0,0.0,0.0,0.0,0.0,0.0,0.0,0.0,0.0,0.0,0.0,0.0,0.0,0.0,0.0,0.0,0.0,0.0,0.0,0.0,0.0,0.0,0.0,0.0,0.0,0.0,0.0,0.0,5.1706,5.313,5.3429,5.3252,0.0,0.0,5.4302,5.3583,5.4159,0.0,0.0,0.0,0.0,0.0,0.0,0.0,0.0,0.0,0.0,0.0,0.0,0.0,0.0,0.0,0.0,0.0,0.0,0.0,0.0,0.0,0.0,0.0,0.0,0.0,0.0,0.0,0.0,0.0,0.0,0.0,0.0,0.0,0.0,0.0,0.0,0.0,0.0,0.0,0.0,0.0,0.0,0.0,0.0,0.0,0.0,0.0,0.0,0.0,0.0,0.0,0.0,0.0,0.0,0.0,5.3718,5.3734,5.4217,5.4501,5.4585,5.3835,5.3311,5.3172,5.2864,5.2547,0.0,0.0,0.0,0.0,0.0,0.0,0.0,0.0,0.0,0.0,0.0,0.0,0.0,0.0,0.0,0.0,0.0,0.0,0.0,0.0,0.0,0.0,0.0,0.0,0.0,0.0,0.0,0.0,0.0,0.0,0.0,0.0,0.0,0.0,0.0,0.0,0.0,0.0,0.0,0.0,0.0,0.0,5.2635,5.3119,0.0,0.0,0.0,5.3959,5.3693,0.0,0.0,0.0,0.0,0.0,0.0,0.0,0.0,0.0,0.0,0.0,0.0,0.0,0.0,0.0,0.0,0.0,0.0,0.0,0.0,0.0,0.0,0.0,0.0,0.0,0.0,0.0,0.0,0.0,0.0,0.0,0.0,0.0,0.0,0.0,0.0,0.0,0.0,0.0,0.0,0.0,0.0,0.0,0.0,0.0,0.0,0.0,0.0,0.0,0.0,0.0,0.0,0.0,0.0,0.0,0.0,0.0,5.3807,5.4886,5.5215,5.4699,5.3876,5.3366,5.3184,5.2926,0.0,0.0,0.0,0.0,0.0,0.0,0.0,0.0,0.0,0.0,0.0,0.0,0.0,0.0,0.0,0.0,0.0,0.0,0.0,0.0,0.0,0.0,0.0,0.0,0.0,0.0,0.0,4.9753,0.0,0.0,0.0,0.0,0.0,0.0,0.0,0.0,0.0,0.0,0.0,0.0,0.0,0.0,5.3344,5.2367,5.2952,5.349,0.0,0.0,5.3572,5.376,5.4806,5.5447,0.0,0.0,0.0,0.0,0.0,0.0,0.0,0.0,0.0,0.0,0.0,0.0,0.0,0.0,0.0,0.0,0.0,0.0,0.0,0.0,0.0,0.0,0.0,0.0,0.0,0.0,0.0,0.0,0.0,0.0,0.0,0.0,0.0,0.0,0.0,0.0,0.0,0.0,0.0,0.0,0.0,0.0,0.0,0.0,0.0,0.0,0.0,0.0,0.0,0.0,0.0,0.0,0.0,0.0,0.0,5.4822,5.5535,5.5583,5.4906,5.4108,5.3667,5.3674,5.362,5.3472,0.0,0.0,0.0,0.0,0.0,0.0,0.0,0.0,0.0,0.0,0.0,0.0,0.0,0.0,0.0,0.0,0.0,0.0,0.0,0.0,0.0,0.0,0.0,0.0,0.0,0.0,0.0,0.0,0.0,0.0,0.0,0.0,0.0,0.0,0.0,0.0,0.0,0.0,0.0,0.0,0.0,5.3339,5.3132,5.3165,5.3223,0.0,0.0,5.3227,5.3252,5.3942,5.4489,5.4443,0.0,0.0,0.0,0.0,0.0,0.0,0.0,0.0,0.0,0.0,0.0,0.0,0.0,0.0,0.0,0.0,0.0,0.0,0.0,0.0,0.0,0.0,0.0,0.0,0.0,0.0,0.0,0.0,0.0,0.0,0.0,0.0,0.0,0.0,0.0,0.0,0.0,0.0,0.0,0.0,0.0,0.0,0.0,0.0,0.0,0.0,0.0,0.0,0.0,0.0,0.0,0.0,0.0,5.4907,5.49,5.519,5.519,5.4858,5.3448,5.2925,5.3375,5.3072,5.2927,0.0,0.0,0.0,0.0,0.0,0.0,0.0,0.0,0.0,0.0,0.0,0.0,0.0,0.0,0.0,0.0,0.0,0.0,0.0,0.0,0.0,0.0,0.0,0.0,0.0,0.0,0.0,0.0,5.2314,5.2873,5.3399,0.0,0.0,0.0,0.0,0.0,0.0,0.0,0.0,0.0,0.0,5.3448,5.3223,5.3186,0.0,0.0,5.3186,5.3032,5.2498,5.3954,5.4818,5.3812,5.448,0.0,0.0,0.0,0.0,0.0,0.0,0.0,0.0,0.0,0.0,0.0,0.0,0.0,0.0,0.0,0.0,0.0,0.0,0.0,0.0,0.0,0.0,0.0,0.0,0.0,0.0,0.0,0.0,0.0,0.0,0.0,0.0,0.0,0.0,0.0,0.0,0.0,0.0,0.0,0.0,0.0,0.0,0.0,0.0,0.0,0.0,0.0,0.0,0.0,0.0,0.0,0.0,5.4907,5.4907,5.5255,5.5363,5.5104,5.3732,5.3259,5.3766,5.341,5.3307,0.0,0.0,0.0,0.0,0.0,0.0,0.0,0.0,0.0,0.0,0.0,0.0,0.0,0.0,0.0,0.0,0.0,0.0,0.0,0.0,0.0,0.0,0.0,0.0,0.0,0.0,0.0,0.0,5.3103,5.3892,5.4667,0.0,0.0,0.0,0.0,0.0,0.0,0.0,0.0,0.0,0.0,5.3602,5.2915,5.3032,5.3186,5.3186,5.3186,5.3065,5.2719,5.3916,5.4667,5.4038,0.0,0.0,0.0,0.0,0.0,0.0,0.0,0.0,0.0,0.0,0.0,0.0,0.0,0.0,0.0,0.0,0.0,0.0,0.0,0.0,0.0,0.0,0.0,0.0,0.0,0.0,0.0,0.0,0.0,0.0,0.0,0.0,0.0,0.0,0.0,0.0,0.0,0.0,0.0,0.0,0.0,0.0,0.0,0.0,0.0,0.0,0.0,0.0,0.0,0.0,0.0,0.0,0.0,0.0,5.4894,5.6048,5.6315,5.559,5.5244,5.5056,5.5098,5.512,5.4986,5.4732,0.0,0.0,0.0,0.0,0.0,0.0,0.0,0.0,0.0,0.0,0.0,0.0,0.0,0.0,0.0,0.0,0.0,0.0,0.0,0.0,0.0,0.0,0.0,0.0,0.0,0.0,5.0966,5.2949,5.4667,0.0,0.0,0.0,0.0,0.0,0.0,0.0,0.0,0.0,0.0,5.3858,5.3783,5.2156,5.2652,5.3149,5.3186,5.3182,5.3445,5.4146,5.3741,5.3779,0.0,0.0,0.0,0.0,0.0,0.0,0.0,0.0,0.0,0.0,0.0,0.0,0.0,0.0,0.0,0.0,0.0,0.0,0.0,0.0,0.0,0.0,0.0,0.0,0.0,0.0,0.0,0.0,0.0,0.0,0.0,0.0,0.0,0.0,0.0,0.0,0.0,0.0,0.0,0.0,5.2769,5.2116,0.0,0.0,0.0,0.0,0.0,0.0,0.0,0.0,0.0,0.0,0.0,0.0,5.4564,5.4594,5.534,5.5595,5.5332,5.4572,5.4374,5.485,5.4712,5.4571,5.4479,0.0,0.0,0.0,0.0,0.0,0.0,0.0,0.0,0.0,0.0,0.0,0.0,0.0,0.0,0.0,0.0,0.0,0.0,0.0,0.0,0.0,0.0,0.0,0.0,0.0,5.2878,0.0,0.0,0.0,0.0,0.0,0.0,0.0,0.0,0.0,0.0,0.0,5.3516,5.322,5.2464,5.1939,5.1889,5.2156,5.254,0.0,0.0,0.0,0.0,0.0,0.0,0.0,0.0,0.0,0.0,0.0,0.0,0.0,0.0,5.3579,5.3579,5.4713,5.5657,5.5657,0.0,0.0,0.0,0.0,0.0,0.0,0.0,0.0,0.0,0.0,0.0,0.0,0.0,0.0,0.0,0.0,5.2306,0.0,0.0,0.0,0.0,0.0,0.0,0.0,0.0,5.2393,5.2406,5.2489,5.1863,5.2017,0.0,5.2402,5.2167,0.0,0.0,0.0,0.0,0.0,0.0,0.0,0.0,5.4264,5.4287,5.5049,5.5434,5.5428,5.4648,5.4487,5.4966,5.4787,5.4728,5.4728,5.3998,5.3338,0.0,0.0,0.0,0.0,0.0,0.0,0.0,0.0,0.0,0.0,0.0,0.0,0.0,0.0,0.0,0.0,0.0,0.0,0.0,0.0,0.0,0.0,0.0,5.3962,0.0,0.0,0.0,0.0,0.0,0.0,0.0,0.0,0.0,5.4446,5.3929,5.352,5.3224,5.2243,5.1526,5.148,0.0,0.0,0.0,0.0,0.0,0.0,0.0,5.4338,5.5206,5.5093,5.5277,5.6357,5.6094,5.561,5.5306,0.0,0.0,5.4559,5.5765,5.6816,5.6507,5.7276,5.7745,5.688,5.6671,5.6445,0.0,0.0,0.0,0.0,0.0,0.0,0.0,0.0,5.3239,5.2811,0.0,5.2916,0.0,0.0,0.0,0.0,0.0,0.0,0.0,0.0,5.3541,5.3471,5.2095,5.2067,5.2453,5.3106,5.1778,5.1849,5.3247,5.3792,0.0,0.0,0.0,0.0,0.0,0.0,5.3992,5.4092,5.5254,5.5872,5.5865,5.5626,5.55,5.55,5.55,5.55,5.5458,5.4763,5.4306,5.4271,5.2895,0.0,0.0,0.0,0.0,0.0,0.0,0.0,0.0,0.0,0.0,0.0,0.0,0.0,0.0,0.0,0.0,0.0,0.0,0.0,0.0,5.4446,0.0,0.0,0.0,0.0,0.0,0.0,0.0,0.0,0.0,0.0,5.4559,5.4371,5.4038,5.3299,0.0,0.0,0.0,0.0,5.2769,5.13,5.2986,5.4597,5.4709,5.5306,5.6578,5.8873,0.0,0.0,6.0219,5.9243,5.7971,5.7225,5.7788,5.7516,5.5268,5.6099,5.6779,5.609,5.7647,5.8314,5.6394,5.6456,5.6427,5.0826,0.0,0.0,0.0,0.0,5.2853,5.3303,5.3998,5.3963,5.385,5.3675,5.3892,0.0,0.0,0.0,0.0,0.0,0.0,5.3338,5.3604,5.3548,5.3268,5.2846,5.2846,5.2994,5.3204,5.326,5.3864,5.4813,5.5,5.4127,5.2236,0.0,0.0,0.0,0.0,5.3963,5.4503,5.5249,5.5597,5.5632,5.5544,5.55,5.55,5.55,5.55,5.5493,5.5289,5.4896,5.4342,5.3885,0.0,0.0,0.0,0.0,0.0,0.0,0.0,0.0,0.0,0.0,0.0,0.0,0.0,0.0,0.0,0.0,0.0,0.0,0.0,5.5259,5.5836,5.5802,0.0,0.0,0.0,0.0,0.0,0.0,0.0,0.0,0.0,5.614,5.4108,5.2757,0.0,0.0,5.2531,5.3245,5.4751,5.5878,5.5986,0.0,0.0,0.0,5.9398,5.9394,6.0112,5.9511,5.914,5.9591,6.0266,6.0684,6.0421,6.1088,6.1426,6.0755,5.9445,5.8619,5.8351,5.8384,5.8267,5.7591,5.7187,5.6816,5.1305,5.2677,5.2493,5.276,5.3317,5.3547,5.4068,5.4763,5.4763,5.4587,5.4314,5.4615,5.4208,5.3204,5.3204,0.0,0.0,0.0,5.3864,5.4271,5.3822,5.3485,5.3204,5.3204,5.3345,5.3619,5.3794,5.4559,5.5921,5.5325,5.4658,5.3815,0.0,0.0,5.3153,5.3943,5.4719,5.5439,5.6081,5.6413,5.6413,5.6413,5.6413,5.6413,5.6405,5.6413,5.6413,5.6413,5.621,5.5718,5.5395,5.4914,0.0,0.0,0.0,0.0,0.0,0.0,0.0,0.0,0.0,0.0,0.0,5.5246,5.4832,0.0,0.0,0.0,5.609,5.6127,5.6127,5.6282,0.0,0.0,0.0,0.0,0.0,0.0,0.0,5.5873,5.6169,5.6662,5.7225,5.5039,5.3916,5.5394,5.4897,5.4855,5.6174,0.0,5.8427,5.8535,5.9553,6.0647,6.1623,6.1961,6.2177,6.2515,6.2444,6.2299,6.2304,6.3168,6.3618,6.3426,6.3683,6.3946,6.3651,6.2299,6.1172,6.0867,6.0149,5.9586,5.9586,5.891,5.8544,5.1968,5.3027,5.2621,5.2887,5.3624,5.4136,5.4797,5.5493,5.55,5.5114,5.4447,5.5177,5.47,5.338,5.338,0.0,0.0,5.4412,5.4377,5.4412,5.4447,5.4103,5.338,5.352,5.3864,5.4489,5.3829,5.4644,5.6561,5.5297,5.5254,5.6526,5.5262,5.4552,5.451,5.5227,5.5956,5.6709,5.7396,5.779,5.779,5.779,5.779,5.779,5.779,5.7782,5.779,5.7782,5.779,5.779,5.7087,5.6877,5.7249,0.0,0.0,0.0,0.0,0.0,0.0,0.0,0.0,0.0,0.0,0.0,0.0,0.0,0.0,0.0,5.6962,0.0,5.7079,5.6428,0.0,0.0,0.0,5.616,5.6816,5.7075,5.7408,5.8037,0.0,0.0,0.0,0.0,5.7061,5.9628,5.9023,5.8643,5.9553,6.0529,6.083,6.0266,6.1398,6.2407,6.2895,6.3801,6.4772,6.5443,6.6317,6.651,6.6628,6.6703,6.6505,6.5786,6.5711,6.5523,6.4745,6.4557,6.4289,6.3608,6.267,6.1961,6.1923,6.1355,6.1275,5.1808,5.2582,5.2834,5.35,5.4426,5.4549,5.4947,5.5493,5.55,5.5387,5.5219,5.5422,5.5289,5.4938,5.4938,5.5044,5.5212,5.5212,5.5212,5.5247,5.5788,5.5648,5.5044,5.6132,5.6455,5.6104,5.6498,5.6982,5.7474,5.715,5.6834,5.6631,5.6834,5.6666,5.6069,5.6245,5.6729,5.7516,5.7677,5.779,5.779,5.779,5.779,5.779,5.779,5.779,5.779,5.779,5.779,5.779,5.7614,5.7289,5.679,5.5785,0.0,0.0,0.0,0.0,0.0,0.0,0.0,0.0,0.0,5.4656,5.4377,0.0,5.5662,0.0,5.756,5.8727,5.8732,5.9135,0.0,0.0,5.8159,5.8014,5.7037,5.8572,5.9323,5.823,5.8868,6.0032,6.1646,6.0938,6.1731,6.5261,6.2472,6.075,6.2787,6.4402,6.5271,6.512,6.6237,6.7428,6.7278,6.7208,6.7138,6.7363,6.7111,6.6998,6.7626,6.7706,6.7626,6.7438,6.7401,6.7326,6.7138,6.6655,6.6472,6.6575,6.5191,6.3688,6.3693,6.3538,6.3538,5.2979,5.3361,5.3634,5.4183,5.4943,5.4767,5.4857,5.5151,5.5404,5.5676,5.5992,5.637,5.6518,5.6511,5.6518,5.6518,5.6518,5.6518,5.6518,5.6546,5.6947,5.6912,5.6553,5.7403,5.7579,5.7158,5.7579,5.8,5.8308,5.8344,5.8273,5.8148,5.8597,5.8597,5.8176,5.7825,5.8028,5.8815,5.88,5.8843,5.88,5.8808,5.8659,5.8344,5.8344,5.8176,5.7825,5.779,5.779,5.779,5.779,5.7606,5.7158,5.6413,5.5723,0.0,0.0,0.0,0.0,0.0,0.0,0.0,0.0,0.0,0.0,0.0,5.708,0.0,5.8666,0.0,5.8704,5.9079,5.9183,5.8662,5.9375,5.9666,5.9145,6.0942,6.1881,6.098,6.1693,6.2857,6.4434,6.3946,6.4547,6.7589,6.5636,6.4504,6.6124,6.7326,6.7851,6.7926,6.8629,6.9187,6.9187,6.8817,6.8677,6.9015,6.8758,6.872,6.9498,6.9654,6.9648,6.9648,6.9648,6.9648,6.9611,6.9316,6.9171,6.931,6.8565,6.7143,6.5721,6.5115,6.5003,5.4387,5.4434,5.4434,5.4715,5.5185,5.4898,5.4854,5.5003,5.5496,5.6072,5.6806,5.7501,5.779,5.779,5.779,5.779,5.779,5.779,5.779,5.7825,5.7887,5.7965,5.7957,5.8035,5.8105,5.8105,5.8098,5.8449,5.9108,5.9143,5.9432,5.9931,6.0044,6.0036,5.9931,5.9405,5.9475,6.0072,6.008,6.0036,5.9966,5.9931,5.958,5.8862,5.8835,5.8511,5.786,5.779,5.779,5.779,5.779,5.7852,5.7922,5.7193,5.6721,0.0,5.5468,0.0,0.0,0.0,0.0,0.0,0.0,0.0,0.0,5.8271,5.8972,5.9146,5.9861,5.9861,5.8676,5.8716,5.9148,5.9912,6.0786,6.1557,6.2087,6.3608,6.4557,6.4482,6.4444,6.5045,6.644,6.6049,6.6119,6.7664,6.7814,6.7959,6.908,6.9042,6.8854,6.9074,6.9224,6.9493,6.9643,6.96,6.9793,7.048,7.0555,7.0893,7.1451,7.1558,7.1633,7.1595,7.152,7.1558,7.167,7.1595,7.1595,7.1482,7.137,7.0474,6.8238,6.7063,6.6795,5.367,5.4005,5.3996,5.4251,5.4688,5.5046,5.5681,5.6496,5.6592,5.7001,5.7571,5.7719,5.779,5.779,5.779,5.779,5.779,5.779,5.779,5.7825,5.8492,5.8757,5.88,5.9369,5.965,5.965,5.965,5.9721,5.9896,5.9904,5.965,5.9256,5.9791,5.9783,0.0,0.0,0.0,0.0,6.008,5.9799,5.9221,5.9221,5.8835,5.8063,5.8035,0.0,5.7817,5.779,5.779,5.779,5.779,0.0,0.0,0.0,0.0,0.0,0.0,0.0,0.0,0.0,0.0,0.0,5.7947,5.8084,5.7744,5.8444,5.9196,5.9921,6.0767,6.1664,6.2667,6.3403,6.3867,6.4049,6.4865,6.5014,6.3927,6.5252,6.6059,6.5373,6.5298,6.5674,6.6585,6.6054,6.6194,6.7809,6.8002,6.864,7.0024,6.9123,6.8297,6.8302,6.9466,7.0474,7.1107,7.1188,7.1145,7.1451,7.1488,7.1558,7.1751,7.1783,7.1745,7.1745,7.167,7.1745,7.1745,7.167,7.1783,7.1708,7.1708,7.152,7.0887,7.0619,7.0625,5.4777,0.0,5.5205,5.5406,0.0,5.5864,5.648,5.7209,5.6986,5.7444,5.8406,5.8773,5.8913,5.8948,5.8913,5.8948,5.8948,5.8948,5.8948,5.8948,5.9362,5.9545,5.9545,5.9939,6.008,6.008,6.008,6.008,6.008,6.008,5.9896,5.9537,5.9904,5.9904,5.958,6.0317,6.0493,6.008,6.008,5.9939,5.958,5.9545,5.9159,5.8449,0.0,0.0,0.0,0.0,0.0,0.0,0.0,0.0,0.0,0.0,0.0,5.8379,5.8255,5.8257,5.8382,5.8643,5.8822,5.8944,5.946,5.9607,5.9221,5.9644,6.0377,6.134,6.1858,6.2552,6.3635,6.4245,6.454,6.4614,6.5448,6.5553,6.4626,6.5766,6.6435,6.5786,6.6232,6.6913,6.7331,6.7433,6.7841,6.8978,6.9241,6.9504,7.0222,6.9809,6.9353,6.9766,7.0437,7.1188,7.1595,7.1708,7.1901,7.2164,7.2314,7.2464,7.2872,7.2947,7.2947,7.2947,7.2952,7.2952,7.2947,7.2947,7.2909,7.2952,7.2952,7.2952,7.2872,7.2277,7.1708,5.5806,5.5906,5.6221,5.6447,5.6583,5.6593,5.6977,5.7603,0.0,0.0,0.0,5.969,5.9991,6.0072,6.008,6.008,6.008,6.008,6.008,6.008,6.008,6.008,6.008,6.008,6.008,6.008,6.008,6.0185,6.0282,6.0317,6.0388,6.0501,6.0501,6.0528,6.0571,6.116,6.1168,6.0536,6.0493,6.0423,6.0317,6.0317,5.9966,5.9221,5.9186,5.887,5.8238,5.8211,5.8211,5.8211,5.8063,5.8063,5.8176,5.807,5.8063,5.8211,5.8211,5.8492,5.9151,5.9194,5.9432,6.0036,6.0574,6.0853,6.0825,6.1035,6.1593,6.2657,6.2624,6.2849,6.3598,6.3694,6.3926,6.4224,6.5122,6.548,6.5082,6.6195,6.6994,6.6388,6.7235,6.8071,6.8184,6.8559,6.938,7.0217,7.0373,7.0673,7.0823,7.0636,7.0592,7.1338,7.167,7.1976,7.2121,7.2233,7.2421,7.3027,7.3146,7.3409,7.3966,7.4191,7.4191,7.4041,7.4191,7.4116,7.4154,7.4079,7.4191,7.4191,7.4191,7.4191,7.4079,7.314,7.2271,5.4612,5.4999,5.5029,5.5491,5.6195,5.6185,5.6719,5.7609,5.8006,5.8574,5.9245,5.9349,5.9667,6.008,6.008,6.008,6.008,6.008,6.008,0.0,6.008,6.008,6.008,6.008,6.008,6.008,6.0115,6.0466,6.1055,6.1125,6.1449,6.1976,6.2089,6.2046,6.2081,6.2186,6.2186,6.2081,6.2081,6.1765,6.116,6.1125,6.0774,6.0009,5.9966,5.9896,5.9799,5.9756,5.9799,5.9764,5.9159,5.9116,5.9685,5.9194,5.9116,5.9721,5.9764,5.9826,5.9931,5.9939,5.9974,6.0072,6.0202,6.0666,6.1788,6.1803,6.2081,6.2855,6.2431,6.2556,6.3711,6.3623,6.409,6.552,6.6172,6.6574,6.6849,6.7885,6.8477,6.8289,6.8157,6.8329,6.8881,6.8667,6.901,7.0179,7.0861,7.1049,7.1982,7.1349,7.093,7.1595,7.2314,7.299,7.3472,7.381,7.3773,7.4004,7.3966,7.3966,7.4154,7.4191,7.4191,7.4191,7.4191,7.4191,7.4191,7.4191,7.4191,7.4191,7.4191,7.4191,7.4191,7.3891,7.3741,5.4613,5.4833,5.5019,5.5481,5.6116,5.6353,5.668,5.7163,5.7795,5.8547,5.9276,5.9283,5.9601,6.0056,6.008,6.008,6.008,6.008,6.008,6.0115,6.0571,6.0782,6.0809,6.1168,6.1344,6.1344,6.1344,6.1554,6.187,6.1897,6.2081,6.2405,6.2405,6.2616,6.3029,6.3064,6.3275,6.3609,6.2818,6.2222,6.1914,6.1906,6.1738,6.1344,6.1352,6.1344,6.1344,6.1344,6.1352,6.1344,6.1028,6.1028,6.1309,6.102,6.0984,6.1309,6.1344,6.1344,6.1344,6.1344,6.1352,6.1344,6.1344,6.1782,6.2822,6.1684,6.1507,6.2856,6.2737,6.3451,6.5546,6.5607,6.5854,6.6695,6.6988,6.7079,6.7004,6.7683,6.8242,6.829,6.8878,6.9388,6.9726,6.9905,7.0399,7.1606,7.2132,7.2808,7.3478,7.2996,7.262,7.3027,7.3365,7.3703,7.4116,7.4191,7.4191,7.4191,7.4191,7.4191,7.4191,7.4191,7.4191,7.4191,7.4191,7.4191,7.4191,7.4191,7.4191,7.4191,7.4191,7.4191,7.4191,7.4191,7.4191,5.5134,5.5134,5.5449,5.5895,5.6444,5.6961,5.7187,5.7263,5.7793,5.856,5.9321,5.94,5.9701,6.0214,6.0354,6.0412,6.0428,6.055,6.0633,6.0677,6.1273,6.1554,6.1581,6.2151,6.2405,6.2405,6.2405,6.2502,6.2643,6.2678,6.2748,6.2889,6.2924,6.3231,6.3828,6.3863,6.4136,6.4583,6.3547,6.2915,6.2924,6.2924,6.2915,6.2924,6.2924,6.2915,6.2924,6.2924,6.2924,6.2924,6.2748,6.2678,6.2651,6.2476,6.2405,6.2405,6.2405,6.2405,6.2405,6.2405,6.2405,6.2405,6.2405,6.2686,6.3099,6.187,6.1487,6.2923,6.2997,6.3866,6.5689,6.6178,6.6524,6.7011,6.73,6.7379,6.7247,6.7876,6.8384,6.855,6.9706,7.0589,7.0906,7.1484,7.2239,7.3033,7.3778,7.4154,7.4191,7.4191,7.4191,7.4191,7.4191,7.4154,7.4191,7.4191,7.4191,7.4191,7.4191,7.4191,7.4191,7.4191,7.4191,7.4191,7.4191,7.4191,7.4191,7.4191,7.4191,7.4191,7.4191,7.4191,7.4191,7.4191,7.4191,5.6056,5.6077,5.6091,5.6625,5.7371,5.8262,5.8604,5.8658,5.8767,5.9111,5.963,5.9654,6.0022,6.0583,6.1102,6.1311,6.1398,6.1918,6.216,6.2116,6.2265,6.2292,6.23,6.2397,6.2405,6.2476,6.2476,6.2897,6.3486,6.3486,6.3793,6.4408,6.4478,6.4487,6.4592,6.4592,6.4654,6.4689,6.4557,6.4478,6.4487,6.4478,6.4487,6.4487,6.4487,6.4487,6.4381,6.4478,6.4478,6.4443,6.3828,6.3486,6.3415,6.2818,6.2441,6.2441,6.2441,6.2405,6.2441,6.2405,6.2511,6.2405,6.2546,6.2608,6.2713,6.3064,6.3335,6.3542,6.2996,6.3208,6.3556,6.3611,6.4582,6.6715,6.7009,6.7433,6.9038,7.0226,7.079,7.0802,7.1105,7.1638,7.2257,7.2624,7.3097,7.3816,7.4041,7.4191,7.4191,7.4191,7.4191,7.4191,7.4191,7.4191,7.4191,7.4191,7.4191,7.4191,7.4191,7.4191,7.4191,7.4191,7.4191,7.4191,7.4191,7.4191,7.4191,7.4191,7.4266,7.4379,7.4379,7.4304,7.4229,7.4342,7.4417,5.6211,5.6211,5.6211,5.6533,5.7131,5.78,5.8226,5.8505,5.8953,5.9437,5.9885,6.0324,6.0772,6.1147,6.1405,6.1684,6.2027,6.2262,6.2405,6.2441,6.2889,6.3108,6.3134,6.3583,6.3758,6.3758,6.375,6.3925,6.4206,6.4241,6.4417,6.4662,6.4697,6.4697,6.4724,6.5162,6.5408,6.5443,6.5856,6.6066,6.5961,6.518,6.4697,6.4697,6.4697,6.4697,6.4697,6.4697,6.4697,6.4689,6.4408,6.4241,6.4241,6.3934,6.375,6.375,6.3758,6.3969,6.4442,6.4477,6.4644,6.5066,6.5127,6.5127,6.5119,6.5443,6.5619,6.5557,6.523,6.5562,6.6821,6.6944,6.744,6.8756,6.9134,6.9512,7.0275,7.1218,7.1752,7.1808,7.2323,7.2844,7.3167,7.3437,7.3729,7.4131,7.4191,7.4191,7.4191,7.4191,7.4191,7.4191,7.4191,7.4191,7.4191,7.4191,7.4191,7.4191,7.4191,7.4191,7.4266,7.4191,7.4191,7.4229,7.4304,7.4304,7.4191,7.4648,7.4911,7.4911,7.543,7.5662,7.5699,7.5656,7.5618,5.6769,5.6802,5.6914,5.7148,5.7437,5.7904,5.829,5.866,5.9309,5.9813,6.0159,6.0978,6.1552,6.1861,6.1893,6.2213,6.2732,6.2954,6.3029,6.3099,6.3653,6.3898,6.3969,6.4417,6.4697,6.4697,6.4662,6.4794,6.5013,6.5285,6.5321,6.5329,6.5321,6.5321,6.5399,6.5935,6.6189,6.626,6.6769,6.6979,6.6839,6.5926,6.5321,6.5329,6.5321,6.5321,6.5329,6.5321,6.5224,6.5048,6.5013,6.4899,6.4724,6.4697,6.4697,6.4697,6.4697,6.5048,6.5838,6.5698,6.597,6.6839,6.6839,6.6769,6.6979,6.719,6.733,6.7287,6.7435,6.8068,6.879,6.911,6.9501,7.0268,7.0578,7.0783,7.1274,7.203,7.2537,7.2581,7.308,7.3653,7.3703,7.3869,7.4025,7.4168,7.4191,7.4191,7.4191,7.4191,7.4266,7.4454,7.4535,7.4423,7.4266,7.4191,7.4229,7.4492,7.4604,7.468,7.4792,7.4867,7.4867,7.5318,7.498,7.4905,7.5205,7.5587,7.5592,7.5587,7.5924,7.6225,7.5618,7.5881,7.5875,5.8214,5.824,5.8662,5.8756,5.891,5.9324,5.9555,5.9556,6.0108,6.0355,6.0524,6.1429,6.2255,6.2817,6.2812,6.3146,6.374,6.4236,6.4443,6.4478,6.4627,6.4654,6.4662,6.4697,6.4759,6.4899,6.4934,6.5224,6.5873,6.6497,6.6909,6.6839,6.6769,6.6839,6.6804,6.6874,6.6944,6.6979,6.7129,6.7093,6.7049,6.6979,6.6909,6.6909,6.6874,6.6769,6.6804,6.6883,6.6558,6.5873,6.5838,6.5522,6.4873,6.4759,6.4803,6.4794,6.4759,6.5119,6.5768,6.5399,6.561,6.6733,6.6681,6.6365,6.7199,6.7787,6.8138,6.8138,6.872,6.868,6.7702,6.7949,6.8321,6.9485,7.0033,7.0967,7.22,7.2845,7.3279,7.3287,7.3451,7.3647,7.3931,7.4003,7.41,7.4226,7.4229,7.4229,7.4304,7.4266,7.4529,7.4948,7.5136,7.5061,7.4379,7.4567,7.483,7.5098,7.5393,7.5549,7.6144,7.6557,7.6444,7.6363,7.6181,7.6181,7.6444,7.6444,7.6225,7.6075,7.5893,7.5849,7.5693,7.4711,7.4824,5.8297,5.8309,5.8493,5.8562,5.8607,5.9051,5.9408,5.976,6.0184,6.0592,6.0877,6.1283,6.2246,6.3687,6.3678,6.3933,6.4375,6.4602,6.4697,6.4759,6.5224,6.5478,6.5514,6.5926,6.6172,6.6163,6.6163,6.6312,6.6567,6.6874,6.6979,6.6979,6.6979,6.6979,6.7084,6.7532,6.7742,6.7822,6.8252,6.8542,6.8507,6.8542,6.8542,6.8472,6.7515,6.6979,6.6979,6.6979,6.6883,6.6602,6.6602,6.6497,6.6198,6.6172,6.6163,6.6172,6.6172,6.6523,6.719,6.712,6.7365,6.8357,6.8296,6.813,6.8507,6.8788,6.8963,6.9034,6.9183,6.9034,6.8926,6.9295,7.0181,7.1103,7.1823,7.2302,7.2899,7.3268,7.3385,7.3392,7.3474,7.3559,7.3821,7.3882,7.4154,7.4751,7.4529,7.4454,7.4836,7.4948,7.4873,7.476,7.5029,7.5104,7.4342,7.5205,7.5881,7.6031,7.6219,7.6219,7.6594,7.6707,7.6626,7.6857,7.6895,7.682,7.6895,7.7126,7.6863,7.6713,7.6531,7.6075,7.5919,7.5087,7.5237,5.8297,5.8297,5.8297,5.8297,5.8344,5.861,5.9189,5.9852,6.0337,6.1052,6.1799,6.2271,6.3308,6.4612,6.4948,6.5172,6.5426,6.547,6.5461,6.5496,6.6014,6.6251,6.633,6.6769,6.6979,6.7049,6.7295,6.7365,6.7436,6.7655,6.776,6.7805,6.7796,6.776,6.7866,6.8322,6.8594,6.8708,6.9139,6.9394,6.9385,6.9385,6.9385,6.9253,6.8331,6.7796,6.776,6.776,6.7611,6.7436,6.74,6.726,6.7049,6.6979,6.6979,6.6979,6.6979,6.7365,6.8023,6.7953,6.8252,6.9244,6.9148,6.9069,6.9315,6.9385,6.9385,6.9385,6.9385,6.9385,6.9597,7.0388,7.1171,7.1503,7.202,7.2521,7.274,7.2949,7.3164,7.3405,7.3463,7.3584,7.3815,7.387,7.4209,7.4925,7.4492,7.4498,7.4873,7.4986,7.5023,7.468,7.5067,7.5324,7.5205,7.5881,7.5919,7.5994,7.6262,7.645,7.6932,7.697,7.712,7.7351,7.7351,7.7233,7.7314,7.7583,7.7508,7.732,7.6901,7.6375,7.6031,7.5575,7.5425,5.8297,5.8361,5.8309,5.8392,5.8499,5.8591,5.9119,6.0122,6.063,6.1743,6.3087,6.4356,6.4912,6.5972,6.6343,6.6845,6.6916,6.6979,6.6909,6.6804,6.6944,6.7014,6.7058,6.7199,6.726,6.7269,6.7857,6.8208,6.8243,6.8823,6.9174,6.9289,6.9174,6.9104,6.9324,6.9244,6.9315,6.9315,6.9394,6.9385,6.9385,6.9385,6.9385,6.9385,6.9244,6.9209,6.9289,6.9253,6.8893,6.8304,6.8208,6.7813,6.733,6.719,6.7129,6.7199,6.7129,6.7471,6.8058,6.7681,6.8076,6.8998,6.8753,6.8753,6.9289,6.9385,6.9385,6.9385,6.9385,6.9385,6.9495,7.0009,7.0261,6.9687,7.0465,7.1099,7.1526,7.2079,7.2777,7.3547,7.3857,7.3803,7.3962,7.4103,7.4307,7.4413,7.4342,7.4304,7.4529,7.461,7.4685,7.5023,7.5292,7.5361,7.5962,7.6519,7.6037,7.5737,7.6006,7.6306,7.732,7.7658,7.8027,7.8253,7.8359,7.8209,7.7577,7.7695,7.6944,7.6681,7.6563,7.6225,7.5506,7.4899,7.468,5.857,5.8981,5.8981,5.9254,5.9692,6.0073,6.0488,6.0811,6.127,6.2,6.2771,6.3194,6.4139,6.547,6.622,6.7044,6.7964,6.8357,6.8076,6.7242,6.7567,6.7822,6.7927,6.8357,6.8647,6.8692,6.8893,6.9034,6.9069,6.9289,6.9385,6.9385,6.9429,6.9385,6.9464,6.9385,6.9385,6.9385,6.9385,6.9385,6.9385,6.9394,6.9429,6.9385,6.9385,6.9385,6.9385,6.9385,6.9289,6.8998,6.9034,6.8928,6.8692,6.8647,6.8647,6.8647,6.8647,6.8718,6.8919,6.8788,6.8788,6.9253,6.9139,6.9139,6.9359,6.9385,6.9385,6.9385,6.9385,6.9385,6.944,6.9551,6.9848,7.0043,7.0692,7.1131,7.159,7.2524,7.378,7.4986,7.5248,7.5146,7.4866,7.4764,7.4743,7.4806,7.4529,7.4342,7.4836,7.4836,7.476,7.4723,7.5023,7.5217,7.5361,7.5662,7.5624,7.5737,7.6118,7.6531,7.7514,7.7996,7.844,7.8741,7.8885,7.8741,7.8108,7.7545,7.6832,7.6118,7.5893,7.5286,7.4454,7.4191,7.4191,5.9297,5.9665,5.9665,5.9918,6.0333,6.0685,6.1068,6.1448,6.176,6.2465,6.3273,6.3638,6.4461,6.5714,6.6446,6.7174,6.8059,6.874,6.849,6.7758,6.8294,6.8629,6.8708,6.9104,6.9385,6.9385,6.9385,6.956,6.9806,6.9797,6.9947,7.0227,7.0263,7.0253,7.0263,7.0263,7.0148,6.9911,7.0113,7.0122,6.9947,7.0087,7.0263,7.0227,6.9982,6.9841,6.9806,6.9806,6.9666,6.9464,6.9385,6.9385,6.9385,6.935,6.9385,6.9385,6.9385,6.9394,6.9385,6.9315,6.9385,6.9385,6.9385,6.9385,6.9385,6.9385,6.9385,6.9385,6.9666,6.9806,6.9841,7.0167,7.0433,7.0806,7.0927,7.1458,7.2147,7.3266,7.4291,7.5189,7.525,7.5085,7.4889,7.4824,7.4848,7.4856,7.4535,7.4266,7.4836,7.4911,7.4567,7.4379,7.4567,7.4573,7.4385,7.4648,7.5061,7.5699,7.6338,7.6944,7.7739,7.762,7.7802,7.8027,7.8215,7.814,7.7658,7.7351,7.6826,7.6112,7.5292,7.4948,7.4492,7.4229,7.4191,6.034,6.0372,6.036,6.0423,6.055,6.0649,6.1325,6.2085,6.2305,6.3286,6.4661,6.5302,6.5932,6.6595,6.7226,6.7628,6.7644,6.8319,6.8717,6.8752,6.9159,6.9455,6.949,6.957,6.9666,6.9736,6.9701,6.9982,7.0525,7.0604,7.0946,7.1437,7.1473,7.1648,7.1437,7.1613,7.1016,7.0534,7.1026,7.0885,7.0349,7.1061,7.1473,7.1402,7.0876,7.0534,7.0394,7.0394,7.0113,6.9595,6.956,6.956,6.949,6.949,6.9701,6.9736,6.956,6.9675,6.9605,6.9771,6.9736,6.978,6.9771,6.9534,6.9771,6.9841,6.9841,6.9841,7.0253,7.0569,7.071,7.1096,7.152,7.1632,7.1225,7.1668,7.3445,7.4162,7.4653,7.4919,7.4468,7.4038,7.4491,7.4457,7.4405,7.4261,7.4229,7.4266,7.4304,7.4417,7.4266,7.4266,7.4379,7.4342,7.4229,7.4685,7.5104,7.5511,7.6262,7.7013,7.762,7.7508,7.7464,7.7652,7.7464,7.7395,7.7132,7.6751,7.6225,7.5436,7.4948,7.4836,7.4648,7.4304,7.4191,6.0613,6.1087,6.1099,6.1403,6.1896,6.2427,6.2817,6.3195,6.3658,6.4264,6.5255,6.6139,6.6506,6.681,6.8079,6.8511,6.8335,6.8847,6.9503,6.9932,7.008,7.0218,7.0218,7.0218,7.0534,7.0946,7.0955,7.1201,7.1367,7.1367,7.1552,7.1674,7.1824,7.1744,7.1648,7.1262,7.0735,7.0464,7.0148,7.0087,7.0017,7.0569,7.0806,7.0841,7.1192,7.1051,7.0604,7.0499,7.0429,7.0253,7.0218,7.0218,7.0253,7.071,7.0955,7.0946,7.1016,7.1051,7.1026,7.1026,7.1051,7.1096,7.092,7.1086,7.1086,7.1086,7.1086,7.1121,7.1332,7.1402,7.1402,7.1613,7.1964,7.2325,7.1824,7.2018,7.3422,7.3936,7.4426,7.5442,7.5506,7.5272,7.4926,7.4858,7.4723,7.4342,7.4191,7.4191,7.4191,7.4191,7.4191,7.4191,7.4229,7.4229,7.4342,7.4836,7.5217,7.5474,7.6112,7.6901,7.7395,7.7583,7.7658,7.7846,7.7013,7.6751,7.6268,7.5818,7.5179,7.4911,7.461,7.4498,7.4417,7.4191,7.4191,6.1435,6.1802,6.1833,6.2042,6.2484,6.3185,6.3501,6.3628,6.4228,6.4672,6.5145,6.6052,6.6487,6.6641,6.8193,6.8829,6.8665,6.9524,7.018,7.0552,7.0858,7.1007,7.1016,7.1016,7.1262,7.1639,7.1709,7.1859,7.2104,7.2184,7.2315,7.2666,7.2676,7.2666,7.2736,7.2245,7.1763,7.1552,7.1316,7.1211,7.093,7.1587,7.1683,7.1658,7.1929,7.1894,7.1482,7.1192,7.1121,7.1297,7.1192,7.1016,7.1051,7.1402,7.1674,7.1674,7.1674,7.1674,7.1674,7.1674,7.1674,7.1683,7.1674,7.1674,7.1639,7.1674,7.1674,7.1639,7.1974,7.214,7.2219,7.243,7.2851,7.3132,7.2641,7.2793,7.4162,7.4631,7.4928,7.5444,7.5618,7.5427,7.4815,7.4834,7.4668,7.4342,7.4191,7.4191,7.4191,7.4191,7.4191,7.4191,7.4191,7.4191,7.4191,7.4573,7.4954,7.5249,7.5737,7.6557,7.6788,7.7132,7.7132,7.7013,7.645,7.6075,7.5849,7.5592,7.5292,7.4986,7.4498,7.4229,7.4191,7.4191,7.4191,6.2409,6.2409,6.2409,6.2409,6.2516,6.3185,6.3501,6.3628,6.4342,6.4626,6.4856,6.5801,6.6515,6.6414,6.836,6.8998,6.9169,7.0321,7.067,7.111,7.1548,7.1964,7.1788,7.1788,7.1964,7.214,7.1964,7.235,7.2816,7.2957,7.3273,7.3624,7.3834,7.3834,7.3448,7.3473,7.3228,7.243,7.2465,7.236,7.2079,7.2606,7.2781,7.2606,7.257,7.2781,7.2606,7.229,7.2104,7.2886,7.221,7.1859,7.1824,7.1859,7.1999,7.2095,7.2175,7.214,7.2034,7.2175,7.206,7.214,7.2104,7.1964,7.214,7.221,7.221,7.221,7.257,7.2851,7.2992,7.3553,7.3764,7.3729,7.3202,7.3507,7.4519,7.5278,7.5356,7.4955,7.4829,7.4468,7.4247,7.411,7.4191,7.4266,7.4191,7.4191,7.4191,7.4191,7.4191,7.4191,7.4191,7.4191,7.4191,7.4229,7.461,7.4986,7.5355,7.5881,7.5849,7.6043,7.6112,7.5962,7.5624,7.5812,7.6225,7.593,7.5442,7.4948,7.4417,7.4266,7.4191,7.4191,7.4191,6.2409,6.2409,6.2409,6.2409,6.2516,6.3173,6.3533,6.3628,6.4829,6.5082,6.5097,6.6553,6.7471,6.7765,6.9328,7.0404,7.0937,7.1382,7.1491,7.166,7.2929,7.3027,7.2676,7.2535,7.2922,7.3238,7.3473,7.3579,7.3694,7.3659,7.3799,7.3975,7.3975,7.3694,7.3167,7.2771,7.1824,7.1192,7.1342,7.1543,7.1613,7.2069,7.2631,7.2781,7.2816,7.3132,7.3483,7.2992,7.2992,7.3343,7.3027,7.257,7.2676,7.3097,7.3343,7.3333,7.3403,7.3448,7.3483,7.3368,7.3473,7.3368,7.3308,7.3509,7.3509,7.3403,7.3438,7.3509,7.3649,7.3659,7.3694,7.3869,7.401,7.3834,7.3273,7.2884,7.3129,7.2905,7.3176,7.3633,7.3649,7.3458,7.3912,7.4098,7.4162,7.418,7.4191,7.4191,7.4191,7.4191,7.4191,7.4191,7.4191,7.4191,7.4266,7.4379,7.4836,7.5173,7.5506,7.5693,7.5662,7.5668,7.6,7.5587,7.4911,7.5399,7.645,7.5624,7.498,7.4642,7.4529,7.4604,7.4642,7.4492,7.4529,6.2409,6.2409,6.2409,6.2409,6.2579,6.352,6.3975,6.4247,6.5448,6.6015,6.6243,6.7757,6.864,6.9131,7.0738,7.1849,7.2265,7.2629,7.2561,7.2586,7.3378,7.3308,7.2711,7.3027,7.3624,7.3975,7.3975,7.401,7.401,7.401,7.3975,7.401,7.401,7.3834,7.3413,7.2922,7.2711,7.2395,7.214,7.214,7.2254,7.2526,7.2877,7.3167,7.3062,7.3167,7.3834,7.3624,7.3614,7.3764,7.3589,7.3343,7.3413,7.3764,7.3975,7.401,7.401,7.401,7.401,7.401,7.3975,7.401,7.401,7.401,7.401,7.401,7.401,7.401,7.3975,7.401,7.401,7.401,7.401,7.3799,7.2947,7.2465,7.2625,7.2357,7.2095,7.2792,7.3149,7.3268,7.3555,7.3943,7.4156,7.4191,7.4191,7.4191,7.4191,7.4191,7.4191,7.4191,7.4191,7.4229,7.4304,7.4604,7.5211,7.5581,7.5994,7.6144,7.6187,7.6187,7.6187,7.5849,7.5624,7.6,7.6638,7.5656,7.5205,7.5506,7.5612,7.5387,7.5355,7.5543,7.5618,6.2409,6.2409,6.2409,6.2409,6.2611,6.3622,6.4045,6.4298,6.5574,6.5923,6.6926,6.8124,6.8604,6.9815,7.1263,7.2316,7.2792,7.3063,7.2807,7.229,7.2947,7.2596,7.2034,7.2641,7.3343,7.3659,7.3905,7.3975,7.401,7.401,7.401,7.401,7.401,7.3799,7.3799,7.3764,7.3378,7.3062,7.3202,7.3343,7.3413,7.3518,7.3553,7.3483,7.3413,7.3343,7.3905,7.394,7.3975,7.401,7.401,7.401,7.401,7.401,7.401,7.401,7.401,7.401,7.401,7.401,7.401,7.401,7.401,7.401,7.401,7.401,7.401,7.401,7.401,7.401,7.401,7.3764,7.3834,7.3659,7.257,7.1999,7.2398,7.2517,7.1976,7.2138,7.26,7.2935,7.3383,7.3807,7.4013,7.4191,7.4191,7.4229,7.4229,7.4266,7.4342,7.4529,7.4642,7.5055,7.5168,7.5243,7.5768,7.6106,7.6476,7.6669,7.6788,7.6869,7.6907,7.6944,7.6938,7.7051,7.6938,7.6369,7.625,7.6588,7.6476,7.6106,7.6256,7.6594,7.6557,6.2409,6.2409,6.2409,6.2409,6.2453,6.2674,6.2863,6.2895,6.3836,6.3992,6.4327,6.5816,6.7411,6.8427,6.9484,7.0714,7.1904,7.2267,7.1894,7.1377,7.1894,7.1674,7.1227,7.1859,7.221,7.2455,7.3132,7.3799,7.3869,7.401,7.3719,7.3905,7.394,7.3659,7.3202,7.3001,7.2992,7.2851,7.3062,7.3238,7.3273,7.3238,7.3238,7.3308,7.3483,7.3799,7.3905,7.401,7.401,7.401,7.401,7.401,7.401,7.401,7.401,7.401,7.401,7.401,7.401,7.401,7.401,7.401,7.401,7.401,7.401,7.401,7.401,7.401,7.401,7.3965,7.3965,7.3483,7.3413,7.3202,7.2254,7.1086,7.1554,7.139,7.1422,7.203,7.2322,7.2654,7.3231,7.3746,7.4037,7.4191,7.4191,7.4342,7.4454,7.4529,7.4604,7.4911,7.5249,7.5774,7.6262,7.6294,7.6519,7.6707,7.7045,7.7308,7.7464,7.7658,7.7701,7.7658,7.7426,7.7201,7.7007,7.697,7.7007,7.7233,7.697,7.6707,7.7045,7.7308,7.7045,6.2409,6.2409,6.2409,6.2409,6.2484,6.2813,6.2983,6.3078,6.3723,6.4139,6.4783,6.6199,6.7536,6.8602,7.0015,7.1064,7.1466,7.1674,7.1473,7.1262,7.1473,7.1262,7.063,7.1297,7.1332,7.1508,7.2245,7.2842,7.2807,7.2771,7.2877,7.2877,7.3132,7.3167,7.3027,7.3282,7.3132,7.2957,7.3167,7.3378,7.3378,7.3368,7.3378,7.3518,7.3694,7.3975,7.401,7.401,7.401,7.401,7.401,7.401,7.3975,7.3975,7.401,7.401,7.401,7.401,7.401,7.401,7.401,7.401,7.401,7.401,7.401,7.401,7.401,7.3975,7.3975,7.3799,7.3413,7.2957,7.2886,7.2526,7.1412,7.0841,7.0785,7.0332,7.0955,7.1984,7.246,7.277,7.3207,7.3659,7.4048,7.4191,7.4229,7.4492,7.4792,7.4942,7.513,7.5699,7.615,7.66,7.7126,7.7239,7.7345,7.7495,7.7646,7.7908,7.814,7.8296,7.8328,7.8328,7.7984,7.7652,7.7946,7.8171,7.8021,7.7871,7.7908,7.7946,7.7946,7.7915,7.7721,6.2409,6.2409,6.2409,6.2409,6.2516,6.3015,6.3236,6.3394,6.3761,6.4266,6.5075,6.6537,6.7646,6.8732,7.0085,7.1182,7.1227,7.1157,7.1061,7.1026,7.1061,7.078,7.0639,7.0745,7.0841,7.0464,7.085,7.1402,7.1849,7.1894,7.1744,7.1964,7.2395,7.257,7.2641,7.2922,7.3473,7.3544,7.3553,7.3553,7.3544,7.3544,7.3509,7.3544,7.3544,7.3438,7.3368,7.3343,7.3343,7.3413,7.3589,7.3729,7.3764,7.3764,7.3834,7.3975,7.401,7.401,7.401,7.401,7.401,7.401,7.401,7.401,7.401,7.3975,7.393,7.3825,7.3694,7.3378,7.2711,7.2395,7.2149,7.1798,7.1026,7.0307,7.0398,7.0324,7.0488,7.1392,7.2263,7.303,7.3511,7.4163,7.4682,7.4905,7.498,7.5318,7.5581,7.5618,7.5919,7.6594,7.7126,7.7539,7.7915,7.8108,7.8253,7.8434,7.8472,7.8622,7.881,7.896,7.8885,7.8735,7.8772,7.8584,7.8997,7.911,7.8735,7.8622,7.896,7.896,7.8659,7.8584,7.8547,6.2409,6.2409,6.2409,6.2409,6.2421,6.2547,6.2547,6.2611,6.2737,6.2964,6.3649,6.4806,6.6002,6.7322,6.8933,6.9662,6.9771,6.9876,6.9947,6.9982,6.9911,6.9876,6.9595,6.9605,6.9876,6.9701,6.9771,7.0499,7.1157,7.1437,7.1578,7.1587,7.1613,7.1833,7.1859,7.2175,7.1964,7.1999,7.2034,7.2069,7.2104,7.2104,7.2095,7.2095,7.214,7.2175,7.2245,7.228,7.221,7.221,7.2676,7.2922,7.2931,7.2957,7.3378,7.3764,7.401,7.401,7.3975,7.3905,7.394,7.3975,7.401,7.401,7.401,7.3975,7.3729,7.2992,7.3001,7.2641,7.1938,7.1236,7.1192,7.0955,7.0403,7.0157,7.0159,7.0389,7.0564,7.1429,7.2489,7.3287,7.3944,7.4641,7.5292,7.5511,7.5774,7.615,7.6482,7.66,7.6782,7.7495,7.7871,7.8284,7.8403,7.8628,7.8778,7.9072,7.9072,7.911,7.911,7.911,7.911,7.9035,7.911,7.911,7.911,7.911,7.911,7.911,7.911,7.911,7.9072,7.911,7.911,6.2409,6.2409,6.2409,6.2409,6.2409,6.2409,6.2409,6.2409,6.2421,6.2513,6.2934,6.4002,6.5459,6.7199,6.842,6.9024,6.932,6.9455,6.9394,6.9455,6.9455,6.9455,6.942,6.9394,6.9385,6.949,6.942,6.9675,7.0333,7.0473,7.0394,7.0499,7.0806,7.1026,7.1096,7.1508,7.1674,7.1744,7.1709,7.1709,7.1674,7.1674,7.1674,7.1674,7.1639,7.1603,7.1613,7.1674,7.1674,7.1753,7.2104,7.2175,7.2184,7.2184,7.236,7.2561,7.2666,7.3097,7.3764,7.3518,7.3553,7.386,7.3975,7.401,7.401,7.3905,7.3624,7.2886,7.2816,7.2219,7.1297,7.0735,7.0455,7.0218,6.9956,6.9911,6.9993,7.0372,7.0762,7.1755,7.2725,7.3568,7.4425,7.5215,7.582,7.6115,7.6408,7.6788,7.7389,7.7877,7.8102,7.8478,7.8735,7.8922,7.8885,7.896,7.8928,7.911,7.911,7.911,7.911,7.911,7.911,7.911,7.911,7.911,7.911,7.911,7.911,7.911,7.911,7.911,7.911,7.911,7.911,6.2409,6.2409,6.2409,6.2409,6.2409,6.2409,6.2409,6.2409,6.2655,6.2686,6.3131,6.4454,6.6279,6.779,6.8818,6.9682,7.0043,6.9982,6.9982,6.9982,6.9982,7.0052,7.0157,7.0087,7.0087,6.9947,6.9841,6.9876,6.9736,6.9595,6.956,6.942,7.0017,7.0183,7.0403,7.0639,7.092,7.092,7.0955,7.0955,7.0991,7.1026,7.1051,7.1061,7.1131,7.1121,7.1131,7.1061,7.1061,7.1061,7.1307,7.1402,7.1402,7.1402,7.1587,7.1648,7.1578,7.1798,7.2606,7.2886,7.2922,7.3202,7.3403,7.3193,7.3273,7.3413,7.3062,7.2114,7.2044,7.1377,7.0639,7.0218,7.0007,6.9841,6.9701,6.9666,6.9834,7.0535,7.1281,7.2154,7.3139,7.4111,7.4947,7.5722,7.6311,7.6693,7.7066,7.7477,7.8027,7.8703,7.8816,7.8922,7.8997,7.911,7.911,7.911,7.911,7.911,7.911,7.911,7.911,7.911,7.911,7.911,7.911,7.911,7.911,7.911,7.911,7.911,7.911,7.911,7.911,7.911,7.911,6.2409,6.2409,6.2409,6.2453,6.2453,6.2409,6.2453,6.2642,6.3173,6.3444,6.3931,6.6082,6.7625,6.884,7.0008,7.0917,7.1463,7.1543,7.1332,7.1332,7.1508,7.1297,7.1227,7.1227,7.1342,7.1227,7.078,7.0464,7.0323,6.9982,6.9666,6.9455,6.971,6.957,6.9595,6.9841,6.9911,6.9911,6.9911,6.9841,6.9806,6.9771,6.9771,6.9736,6.9631,6.956,6.9605,6.978,6.985,6.9886,7.0333,7.0604,7.0604,7.0604,7.085,7.0991,7.0429,7.0719,7.1412,7.1859,7.1894,7.1859,7.1999,7.2175,7.228,7.1999,7.1508,7.1086,7.1131,7.0569,6.9911,6.949,6.9701,6.9841,7.0087,7.0394,7.0675,7.1211,7.1938,7.2665,7.3594,7.4588,7.5377,7.6166,7.6696,7.7067,7.7735,7.816,7.8453,7.896,7.8997,7.9072,7.9072,7.911,7.911,7.911,7.911,7.911,7.911,7.911,7.911,7.911,7.911,7.911,7.911,7.911,7.911,7.911,7.911,7.911,7.911,7.911,7.911,7.911,7.911,6.2409,6.244,6.2888,6.3078,6.3078,6.3078,6.3318,6.3697,6.3994,6.4518,6.5099,6.6567,6.7902,6.9158,7.0106,7.1002,7.1427,7.1635,7.1734,7.1674,7.1674,7.1718,7.1718,7.1779,7.1639,7.1683,7.1367,7.1227,7.1157,7.078,7.0841,7.0639,6.9956,6.9499,6.9385,6.9429,6.9385,6.9429,6.9429,6.9429,6.9385,6.9385,6.9385,6.9385,6.9385,6.9385,6.9429,6.942,6.9385,6.9499,6.9745,6.9841,6.9876,6.9876,7.0087,7.0403,6.971,6.9921,7.0333,7.078,7.1157,7.1648,7.1709,7.1639,7.1508,7.1648,7.1262,7.0841,7.049,7.0183,6.964,6.9841,7.0183,7.0288,7.0604,7.1086,7.1508,7.1999,7.266,7.343,7.4217,7.5063,7.5832,7.6589,7.7014,7.7492,7.8174,7.8781,7.8916,7.9104,7.911,7.911,7.911,7.911,7.911,7.911,7.911,7.911,7.911,7.911,7.911,7.911,7.911,7.911,7.911,7.911,7.911,7.911,7.911,7.911,7.911,7.911,7.911,7.911,7.911,6.2516,6.2781,6.3268,6.3501,6.3533,6.3723,6.4058,6.4487,6.474,6.5535,6.6668,6.7403,6.8592,6.9933,7.107,7.1708,7.2248,7.2423,7.2446,7.2491,7.2526,7.2385,7.2385,7.2455,7.2596,7.235,7.2069,7.2009,7.2009,7.1824,7.1568,7.1192,7.0675,7.0183,6.9736,6.9509,6.9429,6.9429,6.9631,6.9736,6.9771,7.0052,7.0148,7.0192,7.0227,7.0227,7.0148,7.0043,6.9806,6.971,6.964,6.9455,6.942,6.9385,6.9385,6.9455,6.9595,6.971,6.9841,6.9937,7.0464,7.0735,7.085,7.0885,7.1026,7.1061,7.0534,7.063,7.049,7.0359,6.9956,7.0604,7.0885,7.1026,7.1587,7.2034,7.2254,7.2705,7.3456,7.4232,7.4869,7.5299,7.5912,7.6538,7.6943,7.7437,7.8125,7.8574,7.8705,7.891,7.911,7.911,7.911,7.911,7.911,7.911,7.911,7.911,7.911,7.911,7.911,7.911,7.911,7.911,7.911,7.911,7.911,7.911,7.911,7.911,7.911,7.911,7.911,7.911,7.911,6.2813,6.3451,6.3501,6.3565,6.3723,6.4203,6.455,6.4803,6.5316,6.6473,6.8028,6.9142,7.0365,7.1629,7.2637,7.3113,7.3431,7.362,7.3694,7.3624,7.3518,7.3729,7.3729,7.3659,7.3483,7.3659,7.3238,7.2781,7.2781,7.2385,7.2025,7.1884,7.1648,7.1121,7.0499,6.9815,6.9464,6.9525,7.0218,7.0429,7.0639,7.1026,7.1227,7.1262,7.1236,7.1192,7.1086,7.0735,7.0534,7.0464,7.0052,6.9841,6.9806,6.978,6.9745,6.9701,7.0218,7.0464,7.0464,6.9876,6.9911,7.0157,7.0534,7.0298,6.985,6.978,7.0227,7.0745,7.07,7.0946,7.1227,7.1648,7.1648,7.1859,7.2395,7.2851,7.3062,7.3367,7.41,7.4616,7.4949,7.5371,7.589,7.6434,7.6808,7.7346,7.8039,7.8356,7.8508,7.8686,7.891,7.911,7.911,7.911,7.911,7.911,7.911,7.911,7.911,7.911,7.911,7.911,7.911,7.911,7.911,7.911,7.911,7.911,7.911,7.911,7.911,7.911,7.911,7.911,7.911,6.2844,6.3533,6.3963,6.4437,6.4873,6.5126,6.5448,6.589,6.6274,6.7324,6.887,6.9623,7.0884,7.2302,7.3094,7.3587,7.3812,7.398,7.401,7.401,7.401,7.401,7.401,7.401,7.401,7.394,7.3659,7.3518,7.3589,7.3122,7.3193,7.3158,7.2561,7.1999,7.1447,7.0991,7.0955,7.0955,7.1192,7.1307,7.1342,7.1578,7.1779,7.1779,7.1814,7.1824,7.1849,7.1473,7.1297,7.1262,7.085,7.078,7.078,7.078,7.0815,7.085,7.1262,7.1262,7.1262,7.1026,7.0955,7.092,7.078,7.078,7.0885,7.092,7.1131,7.1201,7.1262,7.1508,7.1603,7.2175,7.2395,7.257,7.3027,7.3448,7.3778,7.4095,7.4572,7.4919,7.529,7.5628,7.6106,7.6275,7.6611,7.6797,7.7345,7.7961,7.8199,7.8417,7.866,7.8966,7.911,7.911,7.911,7.911,7.911,7.911,7.911,7.911,7.911,7.911,7.911,7.911,7.911,7.911,7.911,7.911,7.911,7.911,7.911,7.911,7.911,7.911,7.911,6.3192,6.39,6.4595,6.529,6.5904,6.5935,6.6207,6.6554,6.6638,6.7733,6.9277,6.9706,7.0929,7.2549,7.3303,7.3486,7.3732,7.3911,7.401,7.401,7.401,7.401,7.401,7.401,7.401,7.401,7.401,7.3975,7.394,7.3975,7.3905,7.3729,7.3483,7.3027,7.25,7.2104,7.1578,7.1613,7.1788,7.2079,7.2184,7.236,7.2561,7.2596,7.2596,7.257,7.2455,7.228,7.2069,7.2034,7.1894,7.1744,7.1709,7.1709,7.1709,7.1718,7.1964,7.214,7.242,7.2526,7.25,7.25,7.2104,7.1709,7.1674,7.1543,7.1788,7.1929,7.206,7.228,7.2491,7.3027,7.3132,7.3343,7.3483,7.3895,7.3999,7.4306,7.4641,7.4998,7.5371,7.5768,7.6182,7.6233,7.6401,7.6492,7.6595,7.7238,7.7869,7.8137,7.839,7.8725,7.9048,7.9091,7.9098,7.911,7.911,7.911,7.911,7.911,7.911,7.911,7.911,7.911,7.911,7.911,7.911,7.911,7.911,7.911,7.911,7.911,7.911,7.911,7.911,6.3912,6.4614,6.5303,6.5935,6.6523,6.6523,6.6573,6.6573,6.6573,6.7733,6.9588,6.9824,7.1086,7.2804,7.3466,7.3692,7.3762,7.3941,7.399,7.401,7.401,7.401,7.401,7.401,7.401,7.401,7.401,7.401,7.401,7.401,7.401,7.401,7.3869,7.3694,7.3263,7.2736,7.221,7.235,7.2596,7.2816,7.2922,7.3378,7.3518,7.3579,7.3589,7.3589,7.3438,7.3202,7.2912,7.2666,7.2315,7.1999,7.1849,7.1788,7.1788,7.1999,7.257,7.3122,7.3544,7.3614,7.3694,7.3413,7.2631,7.2069,7.1964,7.221,7.2491,7.2746,7.2886,7.3308,7.3729,7.3764,7.3834,7.3869,7.3869,7.402,7.4004,7.4248,7.4558,7.4888,7.5236,7.5637,7.614,7.6284,7.6284,7.6334,7.6442,7.6595,7.7223,7.7797,7.8088,7.8501,7.8781,7.9041,7.9079,7.9104,7.911,7.911,7.911,7.911,7.911,7.911,7.911,7.911,7.911,7.911,7.911,7.911,7.911,7.911,7.911,7.911,7.911,7.911,7.911,6.4209,6.5271,6.5493,6.5998,6.6554,6.6573,6.6573,6.6573,6.6599,6.7733,6.9611,6.967,7.1041,7.3125,7.3364,7.3607,7.3832,7.397,7.399,7.401,7.401,7.401,7.401,7.401,7.401,7.401,7.401,7.401,7.401,7.401,7.401,7.401,7.401,7.401,7.3825,7.3544,7.3298,7.3238,7.3438,7.3483,7.3553,7.3869,7.401,7.401,7.401,7.401,7.3869,7.3764,7.3553,7.3483,7.3413,7.3298,7.3333,7.3333,7.3333,7.3368,7.3589,7.3799,7.3975,7.401,7.401,7.401,7.3438,7.3483,7.3343,7.3238,7.3308,7.3413,7.3483,7.3799,7.3905,7.3975,7.401,7.401,7.402,7.4049,7.4128,7.4422,7.4728,7.5072,7.5398,7.5777,7.625,7.6284,7.6284,7.6284,7.6326,7.6426,7.6652,7.7254,7.7797,7.8186,7.8548,7.882,7.9048,7.911,7.911,7.911,7.911,7.911,7.911,7.911,7.911,7.911,7.911,7.911,7.911,7.911,7.911,7.911,7.911,7.911,7.911,7.911,7.911,6.4544,6.5569,6.5904,6.6251,6.6554,6.6573,6.6573,6.6573,6.6573,6.772,6.9481,6.9611,7.0906,7.2929,7.3293,7.3506,7.3862,7.3961,7.401,7.401,7.401,7.401,7.401,7.401,7.401,7.401,7.401,7.401,7.401,7.401,7.401,7.401,7.401,7.401,7.3975,7.3895,7.394,7.3905,7.3975,7.401,7.401,7.401,7.401,7.401,7.401,7.401,7.401,7.401,7.401,7.401,7.401,7.401,7.3975,7.3975,7.3965,7.3895,7.394,7.394,7.401,7.401,7.401,7.401,7.401,7.394,7.3905,7.3799,7.3834,7.3905,7.394,7.401,7.401,7.401,7.401,7.401,7.4049,7.4088,7.4335,7.4624,7.4997,7.5344,7.5707,7.6097,7.6284,7.6284,7.6284,7.6284,7.6284,7.6317,7.6497,7.6872,7.7451,7.7919,7.8268,7.8607,7.8846,7.9085,7.911,7.911,7.911,7.911,7.911,7.911,7.911,7.911,7.911,7.911,7.911,7.911,7.911,7.911,7.911,7.911,7.911,7.911,7.911,6.5006,6.5746,6.6333,6.6554,6.6573,6.6573,6.6573,6.6573,6.6573,6.7656,6.9193,6.9552,7.0793,7.2507,7.3074,7.3446,7.3717,7.3921,7.401,7.401,7.401,7.401,7.401,7.401,7.401,7.401,7.401,7.401,7.401,7.401,7.401,7.401,7.401,7.401,7.401,7.401,7.401,7.401,7.401,7.401,7.401,7.401,7.401,7.401,7.401,7.401,7.401,7.401,7.401,7.401,7.401,7.401,7.401,7.401,7.401,7.401,7.401,7.401,7.401,7.401,7.401,7.401,7.401,7.401,7.401,7.401,7.401,7.401,7.401,7.401,7.401,7.401,7.401,7.401,7.403,7.4196,7.445,7.4821,7.5272,7.5628,7.5969,7.6275,7.6284,7.6284,7.6284,7.6284,7.6284,7.6284,7.6401,7.666,7.7069,7.7607,7.7961,7.8323,7.8731,7.8947,7.9091,7.911,7.911,7.911,7.911,7.911,7.911,7.911,7.911,7.911,7.911,7.911,7.911,7.911,7.911,7.911,7.911,7.911,7.9335,6.5746,6.6365,6.6554,6.6573,6.6573,6.6573,6.6573,6.6573,6.6573,6.7292,6.8433,6.9301,7.0371,7.1761,7.2811,7.3289,7.3567,7.3817,7.398,7.4,7.4,7.401,7.401,7.401,7.401,7.401,7.401,7.401,7.401,7.401,7.401,7.401,7.401,7.401,7.401,7.401,7.401,7.401,7.401,7.401,7.401,7.401,7.401,7.401,7.401,7.401,7.401,7.401,7.401,7.401,7.401,7.401,7.401,7.401,7.401,7.401,7.401,7.401,7.401,7.401,7.401,7.401,7.401,7.401,7.401,7.401,7.401,7.401,7.401,7.401,7.401,7.401,7.401,7.401,7.403,7.4267,7.4565,7.5089,7.5575,7.5909,7.6191,7.6267,7.6284,7.6284,7.6284,7.6284,7.6284,7.6284,7.6284,7.6484,7.6741,7.7208,7.7607,7.8004,7.8534,7.8903,7.9066,7.911,7.911,7.911,7.911,7.911,7.911,7.911,7.911,7.911,7.911,7.911,7.911,7.911,7.911,7.911,7.9185,7.9185,7.9604,6.5998,6.6541,6.6573,6.6573,6.6573,6.6573,6.6573,6.6573,6.6573,6.6895,6.7529,6.8507,6.9635,7.0873,7.2086,7.2714,7.3049,7.3717,7.3817,7.3911,7.398,7.4,7.401,7.401,7.401,7.401,7.401,7.401,7.401,7.401,7.401,7.401,7.401,7.401,7.401,7.401,7.401,7.401,7.401,7.401,7.401,7.401,7.401,7.401,7.401,7.401,7.401,7.401,7.401,7.401,7.401,7.401,7.401,7.401,7.401,7.401,7.401,7.401,7.401,7.401,7.401,7.401,7.401,7.401,7.401,7.401,7.401,7.401,7.401,7.401,7.401,7.401,7.401,7.401,7.4088,7.4248,7.483,7.5496,7.5865,7.6106,7.6275,7.6275,7.6284,7.6284,7.6284,7.6284,7.6284,7.6284,7.6284,7.6351,7.6631,7.6964,7.7421,7.8053,7.8738,7.8991,7.9085,7.911,7.911,7.911,7.911,7.911,7.911,7.911,7.911,7.911,7.911,7.9185,7.911,7.911,7.911,7.911,7.9223,7.9454,8.0017,6.6093,6.6554,6.6573,6.6573,6.6573,6.6573,6.6573,6.6573,6.6573,6.6573,6.6757,6.7554,6.8618,6.9812,7.0974,7.1452,7.2095,7.2994,7.3411,7.3852,7.3941,7.399,7.401,7.401,7.401,7.401,7.401,7.401,7.401,7.401,7.401,7.401,7.401,7.401,7.401,7.401,7.401,7.401,7.401,7.401,7.401,7.401,7.401,7.401,7.401,7.401,7.401,7.401,7.401,7.401,7.401,7.401,7.401,7.401,7.401,7.401,7.401,7.401,7.401,7.401,7.401,7.401,7.401,7.401,7.401,7.401,7.401,7.401,7.401,7.401,7.401,7.401,7.401,7.4059,7.4132,7.4325,7.5062,7.5752,7.6012,7.6242,7.6284,7.6284,7.6284,7.6284,7.6284,7.6284,7.6284,7.6284,7.6317,7.6434,7.6587,7.7035,7.7496,7.8165,7.8839,7.9085,7.911,7.911,7.911,7.911,7.911,7.911,7.911,7.9154,7.9154,7.9304,7.9298,7.9373,7.9298,7.926,7.911,7.9185,7.9648,7.9948,8.0587,6.6459,6.6573,6.6573,6.6573,6.6573,6.6573,6.6573,6.6573,6.6573,6.6573,6.6638,6.6796,6.751,6.8531,6.9777,7.0612,7.1419,7.2287,7.3234,7.3837,7.3797,7.3921,7.401,7.401,7.401,7.401,7.401,7.401,7.401,7.401,7.401,7.401,7.401,7.401,7.401,7.401,7.401,7.401,7.401,7.401,7.401,7.401,7.401,7.401,7.401,7.401,7.401,7.401,7.401,7.401,7.401,7.401,7.401,7.401,7.401,7.401,7.401,7.401,7.401,7.401,7.401,7.401,7.401,7.401,7.401,7.401,7.401,7.401,7.401,7.401,7.401,7.401,7.402,7.4157,7.4238,7.4577,7.5099,7.562,7.5969,7.6157,7.6284,7.6284,7.6284,7.6284,7.6284,7.6284,7.6284,7.6284,7.6284,7.645,7.657,7.7092,7.7585,7.7947,7.8424,7.896,7.911,7.911,7.911,7.911,7.911,7.911,7.911,7.9148,7.9454,7.9723,7.9723,7.9679,7.9717,7.9642,7.926,7.926,7.9836,8.0512,8.1219]},{"header":{"parameterUnit":"m.s-1","parameterCategory":1,"la1":31.0,"la2":29.5877,"lo1":-88.7671,"lo2":-86.6584,"dx":0.0162,"dy":0.0185,"nx":115,"ny":88,"refTime":"2023-01-19T18:00:00:Z","depth":0,"parameterNumber":3,"parameterNumberName":"V-component_of_WINDS"},"data":[0.0,0.0,0.0,0.0,0.0,0.0,0.0,0.0,0.0,0.0,0.0,0.0,0.0,0.0,0.0,0.0,0.0,0.0,0.0,0.0,0.0,0.0,0.0,0.0,0.0,0.0,0.0,0.0,0.0,0.0,0.0,0.0,0.0,0.0,0.0,0.0,0.0,0.0,0.0,0.0,0.0,0.0,0.0,0.0,0.0,0.0,0.0,0.0,0.0,0.0,0.0,0.0,0.0,0.0,0.0,0.0,0.0,0.0,0.0,0.0,0.0,0.0,0.0,0.0,0.0,0.0,0.0,0.0,0.0,0.0,0.0,0.0,0.0,0.0,0.0,0.0,0.0,0.0,0.0,0.0,0.0,0.0,0.0,0.0,0.0,0.0,0.0,0.0,0.0,0.0,0.0,0.0,0.0,0.0,0.0,0.0,0.0,0.0,0.0,0.0,0.0,0.0,0.0,0.0,0.0,0.0,0.0,0.0,0.0,0.0,0.0,0.0,0.0,0.0,0.0,0.0,0.0,0.0,0.0,0.0,0.0,0.0,0.0,0.0,0.0,0.0,0.0,0.0,0.0,0.0,0.0,0.0,0.0,0.0,0.0,0.0,0.0,0.0,0.0,0.0,0.0,0.0,0.0,0.0,0.0,0.0,0.0,0.0,0.0,0.0,0.0,0.0,0.0,0.0,0.0,0.0,0.0,0.0,0.0,0.0,0.0,0.0,0.0,0.0,0.0,0.0,0.0,0.0,0.0,0.0,0.0,0.0,0.0,0.0,0.0,0.0,0.0,0.0,0.0,0.0,0.0,0.0,0.0,0.0,0.0,0.0,0.0,0.0,0.0,0.0,0.0,0.0,0.0,0.0,0.0,0.0,0.0,0.0,0.0,0.0,0.0,0.0,0.0,0.0,0.0,0.0,0.0,0.0,0.0,0.0,0.0,0.0,0.0,0.0,0.0,0.0,0.0,0.0,0.0,0.0,0.0,0.0,0.0,0.0,0.0,0.0,0.0,0.0,0.0,0.0,0.0,0.0,0.0,0.0,0.0,0.0,0.0,0.0,0.0,0.0,0.0,0.0,0.0,0.0,0.0,0.0,0.0,0.0,0.0,0.0,0.0,0.0,0.0,0.0,0.0,0.0,0.0,0.0,0.0,0.0,0.0,0.0,0.0,0.0,0.0,0.0,0.0,0.0,0.0,0.0,0.0,0.0,0.0,0.0,0.0,0.0,0.0,0.0,0.0,0.0,0.0,0.0,0.0,0.0,0.0,0.0,0.0,0.0,0.0,0.0,0.0,0.0,0.0,0.0,0.0,0.0,0.0,0.0,0.0,0.0,0.0,0.0,0.0,0.0,0.0,0.0,0.0,0.0,0.0,0.0,0.0,0.0,0.0,0.0,0.0,0.0,0.0,0.0,0.0,0.0,0.0,0.0,0.0,0.0,0.0,0.0,0.0,0.0,0.0,0.0,0.0,0.0,0.0,0.0,0.0,0.0,0.0,0.0,0.0,0.0,0.0,0.0,0.0,0.0,0.0,0.0,0.0,0.0,0.0,0.0,0.0,0.0,0.0,0.0,0.0,0.0,0.0,0.0,0.0,0.0,0.0,0.0,0.0,0.0,0.0,0.0,0.0,0.0,0.0,0.0,0.0,0.0,0.0,0.0,0.0,0.0,0.0,0.0,0.0,0.0,0.0,0.0,0.0,0.0,0.0,0.0,0.0,0.0,0.0,0.0,0.0,0.0,0.0,0.0,0.0,0.0,0.0,0.0,0.0,0.0,0.0,0.0,0.0,0.0,0.0,0.0,0.0,0.0,0.0,0.0,0.0,0.0,0.0,0.0,0.0,0.0,0.0,0.0,0.0,0.0,0.0,0.0,0.0,0.0,0.0,0.0,0.0,0.0,0.0,0.0,0.0,0.0,0.0,0.0,0.0,0.0,0.0,0.0,0.0,0.0,0.0,0.0,0.0,0.0,0.0,0.0,0.0,0.0,0.0,0.0,0.0,0.0,0.0,0.0,0.0,0.0,0.0,0.0,0.0,0.0,0.0,0.0,0.0,0.0,0.0,0.0,0.0,0.0,0.0,0.0,0.0,0.0,0.0,0.0,0.0,0.0,0.0,0.0,0.0,0.0,0.0,0.0,0.0,0.0,0.0,0.0,0.0,0.0,0.0,0.0,0.0,0.0,0.0,0.0,0.0,0.0,0.0,0.0,0.0,0.0,0.0,0.0,0.0,0.0,0.0,0.0,0.0,0.0,0.0,0.0,0.0,0.0,0.0,0.0,0.0,0.0,0.0,0.0,0.0,0.0,0.0,0.0,0.0,0.0,0.0,0.0,0.0,0.0,0.0,0.0,0.0,0.0,0.0,0.0,0.0,0.0,0.0,0.0,0.0,0.0,0.0,0.0,0.0,0.0,0.0,0.0,0.0,0.0,0.0,0.0,0.0,0.0,0.0,0.0,0.0,0.0,0.0,0.0,0.0,0.0,0.0,0.0,0.0,0.0,0.0,0.0,0.0,0.0,0.0,0.0,0.0,0.0,0.0,0.0,0.0,0.0,0.0,0.0,0.0,0.0,0.0,0.0,0.0,0.0,0.0,0.0,0.0,0.0,0.0,0.0,0.0,0.0,0.0,0.0,0.0,0.0,0.0,0.0,0.0,0.0,0.0,0.0,0.0,0.0,0.0,0.0,0.0,0.0,0.0,0.0,0.0,0.0,0.0,0.0,0.0,0.0,0.0,0.0,0.0,0.0,0.0,0.0,0.0,0.0,0.0,0.0,0.0,0.0,0.0,0.0,0.0,0.0,0.0,0.0,0.0,0.0,0.0,0.0,0.0,0.0,0.0,0.0,0.0,0.0,0.0,0.0,0.0,0.0,0.0,0.0,0.0,0.0,0.0,0.0,0.0,0.0,0.0,0.0,0.0,0.0,0.0,0.0,0.0,0.0,0.0,0.0,0.0,0.0,0.0,0.0,0.0,0.0,0.0,0.0,0.0,0.0,0.0,0.0,0.0,0.0,0.0,0.0,0.0,0.0,0.0,0.0,0.0,0.0,0.0,0.0,0.0,0.0,0.0,0.0,0.0,0.0,0.0,0.0,0.0,0.0,0.0,0.0,0.0,0.0,0.0,0.0,0.0,0.0,0.0,0.0,0.0,0.0,0.0,0.0,0.0,0.0,0.0,0.0,0.0,0.0,0.0,0.0,0.0,0.0,0.0,0.0,0.0,0.0,0.0,0.0,0.0,0.0,0.0,0.0,0.0,0.0,0.0,0.0,0.0,0.0,0.0,0.0,0.0,0.0,0.0,0.0,0.0,0.0,0.0,0.0,0.0,0.0,0.0,0.0,0.0,0.0,0.0,0.0,0.0,0.0,0.0,0.0,0.0,0.0,0.0,0.0,0.0,0.0,0.0,0.0,0.0,0.0,0.0,0.0,0.0,0.0,0.0,0.0,0.0,0.0,0.0,0.0,0.0,0.0,0.0,0.0,0.0,0.0,0.0,0.0,0.0,0.0,0.0,0.0,0.0,0.0,0.0,0.0,0.0,0.0,0.0,0.0,0.0,0.0,0.0,0.0,0.0,0.0,0.0,0.0,0.0,0.0,0.0,0.0,0.0,0.0,0.0,0.0,0.0,0.0,0.0,0.0,0.0,0.0,0.0,0.0,0.0,0.0,0.0,0.0,0.0,0.0,0.0,0.0,0.0,0.0,0.0,0.0,0.0,0.0,0.0,0.0,0.0,0.0,0.0,0.0,0.0,0.0,0.0,0.0,0.0,0.0,0.0,0.0,0.0,0.0,0.0,0.0,0.0,0.0,0.0,0.0,0.0,0.0,0.0,0.0,0.0,0.0,0.0,0.0,0.0,0.0,0.0,0.0,0.0,0.0,0.0,0.0,0.0,0.0,0.0,0.0,0.0,0.0,0.0,0.0,0.0,0.0,0.0,0.0,0.0,0.0,0.0,0.0,0.0,0.0,0.0,0.0,0.0,0.0,0.0,0.0,0.0,0.0,0.0,0.0,0.0,0.0,0.0,0.0,0.0,0.0,0.0,0.0,0.0,0.0,0.0,0.0,0.0,0.0,0.0,0.0,0.0,0.0,0.0,0.0,0.0,0.0,0.0,0.0,0.0,0.0,0.0,0.0,0.0,0.0,0.0,0.0,0.0,0.0,0.0,0.0,0.0,0.0,0.0,0.0,0.0,0.0,0.0,0.0,0.0,0.0,0.0,0.0,0.0,0.0,0.0,0.0,0.0,0.0,0.0,0.0,0.0,0.0,0.0,0.0,1.0624,0.0,0.0,0.0,0.0,0.0,0.0,0.0,0.0,0.0,0.0,0.0,0.0,0.0,0.0,0.0,0.0,0.0,0.0,0.0,0.0,0.0,0.0,0.0,0.0,0.0,0.0,0.0,0.0,0.0,0.0,0.0,0.0,0.0,0.0,0.0,0.0,0.0,0.0,0.0,0.0,0.0,0.0,0.0,0.0,0.0,0.0,0.0,0.0,0.0,0.0,0.0,0.0,0.0,0.0,0.0,0.0,0.0,0.0,0.0,0.0,0.0,0.0,0.0,0.0,0.0,0.0,0.0,0.0,0.0,0.0,0.0,0.0,0.0,0.0,0.0,0.0,0.0,0.0,0.0,0.0,0.0,0.0,0.0,0.0,0.0,0.0,0.0,0.0,0.0,0.0,0.0,0.0,0.0,0.0,0.0,0.0,0.0,0.0,0.0,0.0,0.0,0.0,0.0,0.0,0.0,0.0,0.0,0.0,0.0,0.0,1.1166,1.1061,1.0622,1.0539,1.0884,0.0,0.0,0.0,0.0,0.0,0.0,0.0,0.0,0.0,0.0,0.0,0.0,0.0,0.0,0.0,0.0,0.0,0.0,0.0,0.0,0.0,0.0,0.0,0.0,0.0,0.0,0.0,0.0,0.0,0.0,0.0,0.0,0.0,0.0,0.0,0.0,0.0,0.0,0.0,0.0,0.0,0.0,0.0,0.0,0.0,0.0,0.0,0.0,0.0,0.0,0.0,0.0,0.0,0.0,0.0,0.0,0.0,0.0,0.0,0.0,0.0,0.0,0.0,0.0,0.0,0.0,0.0,0.0,0.0,0.0,0.0,0.0,0.0,0.0,0.0,0.0,0.0,0.0,0.0,0.0,0.0,0.0,0.0,0.0,0.0,0.0,0.0,0.0,0.0,0.0,0.0,0.0,0.0,0.0,0.0,0.0,0.0,0.0,0.0,0.0,0.0,0.0,0.0,0.0,0.0,0.0,0.0,0.0,0.0,0.0,0.0,0.0,1.126,1.1089,1.1236,0.0,0.0,0.0,0.0,0.0,0.0,0.0,0.0,0.0,0.0,0.0,0.0,0.0,0.0,0.0,0.0,0.0,0.0,0.0,0.0,0.0,0.0,0.0,0.0,0.0,0.0,0.0,0.0,0.0,0.0,0.0,0.0,0.0,0.0,0.0,0.0,0.0,0.0,0.0,0.0,0.0,0.0,0.0,0.0,0.0,0.0,0.0,0.0,0.0,0.0,0.0,0.0,0.0,0.0,0.0,0.0,0.0,0.0,0.0,0.0,0.0,0.0,0.0,0.0,0.0,0.0,0.0,0.0,0.0,0.0,0.0,0.0,0.0,0.0,0.0,0.0,0.0,0.0,0.0,0.0,0.0,0.0,0.0,0.0,0.0,0.0,0.0,0.0,0.0,0.0,0.0,0.0,0.0,0.0,0.0,0.0,0.0,0.0,0.0,0.0,0.0,0.0,0.0,0.0,0.0,0.0,0.0,0.0,0.0,0.0,1.2432,1.2647,1.2215,0.0,1.2228,0.0,0.0,0.0,0.0,0.0,0.0,0.0,0.0,0.0,0.0,0.0,0.0,0.0,0.0,0.0,0.0,0.0,0.0,0.0,0.0,0.0,0.0,0.0,0.0,0.0,0.0,0.0,0.0,0.0,0.0,0.0,0.0,0.0,0.0,0.0,0.0,0.0,0.0,0.0,0.0,0.0,0.0,0.0,0.0,0.0,0.0,0.0,0.0,0.0,0.0,0.0,0.0,0.0,0.0,0.0,0.0,0.0,0.0,0.0,0.0,0.0,0.0,0.0,0.0,0.0,0.0,0.0,0.0,0.0,0.0,0.0,0.0,0.0,0.0,0.0,0.0,0.0,0.0,0.0,0.0,0.0,0.0,0.0,0.0,0.0,0.0,0.0,0.0,0.0,0.0,0.0,0.0,0.0,0.0,0.0,0.0,0.0,0.0,0.0,0.0,0.0,0.0,0.0,0.0,0.0,0.0,0.0,0.0,0.0,0.0,1.2739,1.2976,1.2805,1.2686,0.0,0.0,0.0,0.0,0.0,0.0,0.0,0.0,0.0,0.0,0.0,0.0,0.0,0.0,0.0,0.0,0.0,0.0,0.0,0.0,0.0,0.0,0.0,0.0,0.0,0.0,0.0,0.0,0.0,0.0,0.0,0.0,0.0,0.0,0.0,0.0,0.0,0.0,0.0,0.0,0.0,0.0,0.0,0.0,0.0,0.0,0.0,0.0,0.0,0.0,0.0,0.0,0.0,0.0,0.0,0.0,0.0,0.0,0.0,0.0,0.0,0.0,0.0,0.0,0.0,0.0,0.0,0.0,0.0,0.0,0.0,0.0,0.0,0.0,0.0,0.0,0.0,0.0,0.0,0.0,0.0,0.0,0.0,0.0,0.0,0.0,0.0,0.0,0.0,0.0,0.0,0.0,0.0,0.0,0.0,0.0,0.0,0.0,0.0,0.0,0.0,0.0,0.0,0.0,0.0,0.0,0.0,0.0,0.0,0.0,1.3001,1.3051,1.319,1.3224,1.3093,1.2891,0.0,0.0,0.0,0.0,0.0,0.0,0.0,0.0,0.0,0.0,0.0,0.0,0.0,0.0,0.0,0.0,0.0,0.0,0.0,0.0,0.0,0.0,0.0,0.0,0.0,0.0,0.0,0.0,0.0,0.0,0.0,0.0,0.0,0.0,0.0,0.0,0.0,0.0,0.0,0.0,0.0,0.0,0.0,0.0,0.0,0.0,0.0,0.0,0.0,0.0,0.0,0.0,0.0,0.0,0.0,0.0,0.0,0.0,0.0,0.0,0.0,0.0,0.0,0.0,0.0,0.0,0.0,0.0,0.0,0.0,0.0,0.0,0.0,0.0,0.0,0.0,0.0,0.0,0.0,0.0,0.0,0.0,0.0,0.0,0.0,0.0,0.0,0.0,0.0,0.0,0.0,0.0,0.0,0.0,0.0,0.0,0.0,0.0,0.0,0.0,0.0,0.0,0.0,0.0,0.0,0.0,0.0,0.0,0.0,1.3474,1.3474,1.3472,1.3484,1.3377,0.0,0.0,0.0,0.0,0.0,0.0,0.0,0.0,0.0,0.0,0.0,0.0,0.0,0.0,0.0,0.0,0.0,0.0,0.0,0.0,0.0,0.0,0.0,0.0,0.0,0.0,0.0,0.0,0.0,0.0,0.0,0.0,0.0,0.0,0.0,0.0,0.0,0.0,0.0,0.0,0.0,0.0,0.0,0.0,0.0,0.0,0.0,0.0,0.0,0.0,0.0,0.0,0.0,0.0,0.0,0.0,0.0,0.0,0.0,0.0,0.0,0.0,0.0,0.0,0.0,0.0,0.0,0.0,0.0,0.0,0.0,0.0,0.0,0.0,0.0,0.0,0.0,0.0,0.0,0.0,0.0,0.0,0.0,0.0,0.0,0.0,0.0,0.0,0.0,0.0,0.0,0.0,0.0,0.0,0.0,0.0,0.0,0.0,0.0,0.0,0.0,0.0,0.0,0.0,0.0,0.0,0.0,0.0,0.0,1.3493,1.362,1.3633,1.3517,1.3633,1.3575,0.0,0.0,0.0,0.0,0.0,0.0,0.0,0.0,0.0,0.0,0.0,0.0,0.0,0.0,0.0,0.0,0.0,0.0,0.0,0.0,0.0,0.0,0.0,0.0,0.0,0.0,0.0,0.0,0.0,0.0,0.0,0.0,0.0,0.0,0.0,0.0,0.0,0.0,0.0,0.0,0.0,0.0,0.0,0.0,0.0,0.0,0.0,0.0,0.0,0.0,0.0,0.0,0.0,0.0,0.0,0.0,0.0,0.0,0.0,0.0,0.0,0.0,0.0,0.0,0.0,0.0,0.0,0.0,0.0,0.0,0.0,0.0,0.0,0.0,0.0,0.0,0.0,0.0,0.0,0.0,0.0,0.0,0.0,0.0,0.0,0.0,0.0,0.0,0.0,0.0,0.0,0.0,0.0,0.0,0.0,0.0,0.0,0.0,0.0,0.0,0.0,0.0,0.0,0.0,0.0,0.0,0.0,0.0,0.0,1.373,0.0,1.3868,1.3741,1.3857,1.3838,0.0,0.0,0.0,0.0,0.0,0.0,0.0,0.0,0.0,0.0,0.0,0.0,0.0,0.0,0.0,0.0,0.0,0.0,0.0,0.0,0.0,0.0,0.0,0.0,0.0,0.0,0.0,0.0,0.0,0.0,0.0,0.0,0.0,0.0,0.0,0.0,0.0,0.0,0.0,0.0,0.0,0.0,0.0,0.0,0.0,0.0,0.0,0.0,0.0,0.0,0.0,0.0,0.0,0.0,0.0,0.0,0.0,0.0,0.0,0.0,0.0,0.0,0.0,0.0,0.0,0.0,0.0,0.0,0.0,0.0,0.0,0.0,0.0,0.0,0.0,0.0,0.0,0.0,0.0,0.0,0.0,0.0,0.0,0.0,0.0,0.0,0.0,0.0,0.0,0.0,0.0,0.0,0.0,0.0,0.0,0.0,0.0,0.0,0.0,0.0,0.0,0.0,0.0,0.0,0.0,0.0,0.0,0.0,1.418,1.418,1.418,1.4169,1.4191,1.418,1.4073,0.0,0.0,0.0,0.0,0.0,0.0,0.0,0.0,0.0,0.0,0.0,0.0,0.0,0.0,0.0,0.0,0.0,0.0,0.0,0.0,0.0,0.0,0.0,0.0,0.0,0.0,0.0,0.0,0.0,0.0,0.0,0.0,0.0,0.0,0.0,0.0,0.0,0.0,0.0,0.0,0.0,0.0,0.0,0.0,0.0,0.0,0.0,0.0,0.0,0.0,0.0,0.0,0.0,0.0,0.0,0.0,0.0,0.0,0.0,0.0,0.0,0.0,0.0,0.0,0.0,0.0,0.0,0.0,0.0,0.0,0.0,0.0,0.0,0.0,0.0,0.0,0.0,0.0,0.0,0.0,0.0,0.0,0.0,0.0,0.0,0.0,0.0,0.0,0.0,0.0,0.0,0.0,0.0,0.0,0.0,0.0,0.0,0.0,0.0,0.0,0.0,0.0,0.0,0.0,0.0,0.0,0.0,0.0,0.0,1.4191,1.4191,1.4191,1.4191,1.4191,1.4172,0.0,0.0,0.0,0.0,0.0,0.0,0.0,0.0,0.0,0.0,0.0,0.0,0.0,0.0,0.0,0.0,0.0,0.0,0.0,0.0,0.0,0.0,0.0,0.0,0.0,0.0,0.0,0.0,0.0,0.0,0.0,0.0,0.0,0.0,0.0,0.0,0.0,0.0,0.0,0.0,0.0,0.0,0.0,0.0,0.0,0.0,0.0,0.0,0.0,0.0,0.0,0.0,0.0,0.0,0.0,0.0,0.0,0.0,0.0,0.0,0.0,0.0,0.0,0.0,0.0,0.0,0.0,0.0,0.0,0.0,0.0,0.0,0.0,0.0,0.0,0.0,0.0,0.0,0.0,0.0,0.0,0.0,0.0,0.0,0.0,0.0,0.0,0.0,0.0,0.0,0.0,0.0,0.0,0.0,0.0,0.0,0.0,0.0,0.0,0.0,0.0,0.0,0.0,0.0,0.0,0.0,0.0,0.0,0.0,1.4191,1.4191,1.4191,1.4191,1.4191,1.4191,1.4191,0.0,0.0,0.0,0.0,0.0,0.0,0.0,0.0,0.0,0.0,0.0,0.0,0.0,0.0,0.0,0.0,0.0,0.0,0.0,0.0,0.0,0.0,0.0,0.0,0.0,0.0,0.0,0.0,0.0,0.0,0.0,0.0,0.0,0.0,0.0,0.0,0.0,0.0,0.0,0.0,0.0,0.0,0.0,0.0,0.0,0.0,0.0,0.0,0.0,0.0,0.0,0.0,0.0,0.0,0.0,0.0,0.0,0.0,0.0,0.0,0.0,0.0,0.0,0.0,0.0,0.0,0.0,0.0,0.0,0.0,0.0,0.0,0.0,0.0,0.0,0.0,0.0,0.0,0.0,0.0,0.0,0.0,0.0,0.0,0.0,0.0,0.0,0.0,0.0,0.0,0.0,0.0,0.0,0.0,0.0,0.0,0.0,0.0,0.0,0.0,0.0,0.0,0.0,0.0,0.0,0.0,0.0,0.0,1.4191,1.4191,1.4191,1.4191,1.4191,1.4191,0.0,0.0,0.0,0.0,0.0,0.0,0.0,0.0,0.0,0.0,0.0,0.0,0.0,0.0,0.0,0.0,0.0,0.0,0.0,0.0,0.0,0.0,0.0,0.0,0.0,0.0,0.0,0.0,0.0,0.0,0.0,0.0,0.0,0.0,0.0,0.0,0.0,0.0,0.0,0.0,0.0,0.0,0.0,0.0,0.0,0.0,0.0,0.0,0.0,0.0,0.0,0.0,0.0,0.0,0.0,0.0,0.0,0.0,0.0,0.0,0.0,0.0,0.0,0.0,0.0,0.0,0.0,0.0,0.0,0.0,0.0,0.0,0.0,0.0,0.0,0.0,0.0,0.0,0.0,0.0,0.0,0.0,0.0,0.0,0.0,0.0,0.0,0.0,0.0,0.0,0.0,0.0,0.0,0.0,0.0,0.0,0.0,0.0,0.0,0.0,0.0,0.0,0.0,0.0,0.0,0.0,0.0,0.0,0.0,1.4191,1.4191,1.4191,1.4191,1.4191,1.4191,0.0,0.0,0.0,0.0,0.0,0.0,0.0,0.0,0.0,0.0,0.0,0.0,0.0,0.0,0.0,0.0,0.0,0.0,0.0,0.0,0.0,0.0,0.0,0.0,0.0,0.0,0.0,0.0,0.0,0.0,0.0,0.0,0.0,0.0,0.0,0.0,0.0,0.0,0.0,0.0,0.0,0.0,0.0,0.0,0.0,0.0,0.0,0.0,0.0,0.0,0.0,0.0,0.0,0.0,0.0,0.0,0.0,0.0,0.0,0.0,0.0,0.0,0.0,0.0,0.0,0.0,0.0,0.0,0.0,0.0,0.0,0.0,0.0,0.0,0.0,0.0,0.0,0.0,0.0,0.0,0.0,0.0,0.0,0.0,0.0,0.0,0.0,0.0,0.0,0.0,0.0,0.0,0.0,0.0,0.0,0.0,0.0,0.0,0.0,0.0,0.0,0.0,0.0,0.0,0.0,0.0,0.0,0.0,1.4191,1.4191,1.4191,1.4191,1.4191,1.4191,1.4191,0.0,0.0,0.0,0.0,0.0,0.0,0.0,0.0,0.0,0.0,0.0,0.0,0.0,0.0,0.0,0.0,0.0,0.0,0.0,0.0,0.0,0.0,0.0,0.0,0.0,0.0,0.0,0.0,0.0,0.0,0.0,0.0,0.0,0.0,0.0,0.0,0.0,0.0,0.0,0.0,0.0,0.0,0.0,0.0,0.0,0.0,0.0,0.0,0.0,0.0,0.0,0.0,0.0,0.0,0.0,0.0,0.0,0.0,0.0,0.0,0.0,0.0,0.0,0.0,0.0,0.0,0.0,0.0,0.0,0.0,0.0,0.0,0.0,0.0,0.0,0.0,0.0,0.0,0.0,0.0,0.0,0.0,0.0,0.0,0.0,0.0,0.0,0.0,0.0,0.0,0.0,0.0,0.0,0.0,0.0,0.0,0.0,0.0,0.0,0.0,0.0,0.0,0.0,0.0,0.0,0.0,0.0,0.0,1.4191,1.4191,1.4191,1.4191,1.4191,1.4191,1.4191,0.0,0.0,0.0,0.0,0.0,0.0,0.0,0.0,0.0,0.0,0.0,0.0,0.0,0.0,0.0,0.0,0.0,0.0,0.0,0.0,0.0,0.0,0.0,0.0,0.0,0.0,0.0,0.0,0.0,0.0,0.0,0.0,0.0,0.0,0.0,0.0,0.0,0.0,0.0,0.0,0.0,0.0,0.0,0.0,0.0,0.0,0.0,0.0,0.0,0.0,0.0,0.0,0.0,0.0,0.0,0.0,0.0,0.0,0.0,0.0,0.0,0.0,0.0,0.0,0.0,0.0,0.0,0.0,0.0,0.0,0.0,0.0,0.0,0.0,0.0,0.0,0.0,0.0,0.0,0.0,0.0,0.0,0.0,0.0,0.0,0.0,0.0,0.0,0.0,0.0,0.0,0.0,0.0,0.0,0.0,0.0,0.0,0.0,0.0,0.0,0.0,0.0,0.0,0.0,0.0,0.0,0.0,0.0,1.4191,1.4191,1.4191,1.4191,1.4191,1.4191,1.4191,0.0,0.0,0.0,0.0,0.0,0.0,0.0,0.0,0.0,0.0,0.0,0.0,0.0,0.0,0.0,0.0,0.0,0.0,0.0,0.0,0.0,0.0,0.0,0.0,0.0,0.0,0.0,0.0,0.0,0.0,0.0,0.0,0.0,0.0,0.0,0.0,0.0,0.0,0.0,0.0,0.0,0.0,0.0,0.0,0.0,0.0,0.0,0.0,0.6544,0.0,0.0,0.0,0.0,0.0,0.0,0.0,0.0,0.0,0.0,0.0,0.0,0.0,0.0,0.0,0.0,0.0,0.0,0.0,0.0,0.0,0.0,0.0,0.0,0.0,0.0,0.0,0.0,0.0,0.0,0.0,0.0,0.0,0.0,0.0,0.0,0.0,0.0,0.0,0.0,0.0,0.0,0.0,0.0,0.0,0.0,0.0,0.0,0.0,0.0,0.0,0.0,0.0,0.0,0.0,0.0,0.0,0.0,0.0,1.4191,1.4191,1.4191,1.4393,1.4773,1.4799,1.4611,0.0,0.0,0.0,0.0,0.0,0.0,0.0,0.0,0.0,0.0,0.0,0.0,0.0,0.0,0.0,0.0,0.0,0.0,0.0,0.0,0.0,0.0,0.0,0.0,0.0,0.0,0.0,0.0,0.0,0.0,0.0,0.0,0.0,0.0,0.0,0.0,0.0,0.0,0.0,0.0,0.0,0.0,0.0,0.0,0.0,0.0,0.0,0.0,0.0,0.0,0.0,0.0,0.0,0.0,0.0,0.0,0.0,0.0,0.0,0.0,0.0,0.0,0.0,0.0,0.0,0.0,0.0,0.0,0.0,0.0,0.0,0.0,0.0,0.0,0.0,0.0,0.0,0.0,0.0,0.0,0.0,0.0,0.0,0.0,0.0,0.0,0.0,0.0,0.0,0.0,0.0,0.0,0.0,0.0,0.0,0.0,0.0,0.0,0.0,0.0,0.0,0.0,0.0,0.0,0.0,0.0,0.0,1.4348,1.4266,1.4299,1.4312,1.4654,1.5387,1.5549,1.5279,1.4557,0.0,0.0,0.0,0.0,0.0,0.0,0.0,0.0,0.0,0.0,0.0,0.0,0.0,0.0,0.0,0.0,0.0,0.0,0.0,0.0,0.0,0.0,0.0,0.0,0.0,0.0,0.0,0.0,0.0,0.0,0.0,0.0,0.0,0.0,0.0,0.0,0.0,0.0,0.8143,0.7471,0.0,0.0,0.0,0.0,0.0,0.0,0.0,0.0,0.9659,0.0,0.0,0.0,0.0,0.0,0.0,0.0,0.0,0.0,0.0,0.0,0.0,0.0,0.0,0.0,0.0,0.0,0.0,0.0,0.0,0.0,0.0,0.0,0.0,0.0,0.0,0.0,0.0,0.0,0.0,0.0,0.0,0.0,0.0,0.0,0.0,0.0,0.0,0.0,0.0,0.0,0.0,0.0,0.0,0.0,0.0,0.0,0.0,0.0,0.0,0.0,0.0,0.0,0.0,0.0,0.0,1.5939,1.4966,1.4554,1.4786,1.4786,1.4846,1.5,1.5758,1.6092,1.5955,0.0,0.0,0.0,0.0,0.0,0.0,0.0,0.0,0.0,0.0,0.0,0.0,0.0,0.0,0.0,0.0,0.0,0.0,0.0,0.0,0.0,0.0,0.0,0.0,0.0,0.0,0.0,0.0,0.0,0.0,0.0,0.0,0.0,0.0,0.0,0.0,0.0,0.0,0.0,0.841,0.8683,0.0,0.0,0.0,0.0,0.0,0.0,0.0,0.0,0.9076,0.0,0.0,0.0,0.0,0.0,0.0,0.0,0.0,0.0,0.0,0.0,0.0,0.0,0.0,0.0,0.0,0.0,0.0,0.0,0.0,0.0,0.0,0.0,0.0,0.0,0.0,0.0,0.0,0.0,0.0,0.0,0.0,0.0,0.0,0.0,0.0,0.0,0.0,0.0,0.0,0.0,0.0,0.0,0.0,0.0,0.0,0.0,0.0,0.0,0.0,0.0,0.0,0.0,0.0,0.0,1.5436,1.5561,1.5417,1.4933,1.4891,1.5346,1.625,1.674,1.693,0.0,0.0,0.0,0.0,0.0,0.0,0.0,0.0,0.0,0.0,0.0,0.0,0.0,0.0,0.0,0.0,0.0,0.0,0.0,0.0,0.0,0.0,0.0,0.0,0.0,0.0,0.0,0.0,0.0,0.0,0.0,0.0,0.0,0.0,0.0,0.0,0.0,0.0,0.0,0.0,0.9273,0.9985,1.0517,0.0,0.0,0.0,0.0,0.0,0.0,1.0718,1.0227,0.0,0.0,0.0,0.0,0.0,0.0,0.0,0.0,0.0,0.0,0.0,0.0,0.0,0.0,0.0,0.0,0.0,0.0,0.0,0.0,0.0,0.0,0.0,0.0,0.0,0.0,0.0,0.0,0.0,0.0,0.0,0.0,0.0,0.0,0.0,0.0,0.0,0.0,0.0,0.0,0.0,0.0,0.0,0.0,0.0,0.0,0.0,0.0,0.0,0.0,0.0,0.0,0.0,0.0,0.0,1.5796,1.6646,1.6667,1.5755,1.5641,1.6289,1.77,1.7951,1.796,0.0,0.0,0.0,0.0,0.0,0.0,0.0,0.0,0.0,0.0,0.0,0.0,0.0,0.0,0.0,0.0,0.0,0.0,0.0,0.0,0.0,0.0,0.0,0.0,0.0,0.0,0.0,0.0,0.0,0.0,0.0,0.0,0.0,0.0,0.0,0.0,0.0,0.0,0.0,0.0,0.0,1.1259,1.1792,1.1303,0.0,0.0,0.0,0.0,1.1604,1.1844,0.0,0.0,0.0,0.0,0.0,0.0,0.0,0.0,0.0,0.0,0.0,0.0,0.0,0.0,0.0,0.0,0.0,0.0,0.0,0.0,0.0,0.0,0.0,0.0,0.0,0.0,0.0,0.0,0.0,0.0,0.0,0.0,0.0,0.0,0.0,0.0,0.0,0.0,0.0,0.0,0.0,0.0,0.0,0.0,0.0,0.0,0.0,0.0,0.0,0.0,0.0,0.0,0.0,0.0,0.0,0.0,1.9562,1.8747,1.8351,1.8407,1.815,1.8097,1.8317,1.9123,1.9542,0.0,0.0,0.0,0.0,0.0,0.0,0.0,0.0,0.0,0.0,0.0,0.0,0.0,0.0,0.0,0.0,0.0,0.0,0.0,0.0,0.0,0.0,0.0,0.0,0.0,0.0,0.0,0.0,0.0,0.0,0.0,0.0,0.0,0.0,0.0,0.0,0.0,0.0,0.0,0.0,0.0,1.2697,1.3124,1.3538,1.3756,0.0,0.0,1.4217,1.464,1.3991,0.0,0.0,0.0,0.0,0.0,0.0,0.0,0.0,0.0,0.0,0.0,0.0,0.0,0.0,0.0,0.0,0.0,0.0,0.0,0.0,0.0,0.0,0.0,0.0,0.0,0.0,0.0,0.0,0.0,0.0,0.0,0.0,0.0,0.0,0.0,0.0,0.0,0.0,0.0,0.0,0.0,0.0,0.0,0.0,0.0,0.0,0.0,0.0,0.0,0.0,0.0,0.0,0.0,0.0,0.0,2.0068,1.9342,1.9616,1.9518,1.8928,1.8586,1.8666,1.9173,1.9897,2.0072,0.0,0.0,0.0,0.0,0.0,0.0,0.0,0.0,0.0,0.0,0.0,0.0,0.0,0.0,0.0,0.0,0.0,0.0,0.0,0.0,0.0,0.0,0.0,0.0,0.0,0.0,0.0,0.0,0.0,0.0,0.0,0.0,0.0,0.0,0.0,0.0,0.0,0.0,0.0,0.0,0.0,0.0,1.4104,1.3954,0.0,0.0,0.0,1.3672,1.3123,0.0,0.0,0.0,0.0,0.0,0.0,0.0,0.0,0.0,0.0,0.0,0.0,0.0,0.0,0.0,0.0,0.0,0.0,0.0,0.0,0.0,0.0,0.0,0.0,0.0,0.0,0.0,0.0,0.0,0.0,0.0,0.0,0.0,0.0,0.0,0.0,0.0,0.0,0.0,0.0,0.0,0.0,0.0,0.0,0.0,0.0,0.0,0.0,0.0,0.0,0.0,0.0,0.0,0.0,0.0,0.0,0.0,1.9485,2.0623,2.0747,1.9774,1.941,1.9555,2.0266,2.0715,0.0,0.0,0.0,0.0,0.0,0.0,0.0,0.0,0.0,0.0,0.0,0.0,0.0,0.0,0.0,0.0,0.0,0.0,0.0,0.0,0.0,0.0,0.0,0.0,0.0,0.0,0.0,1.4266,0.0,0.0,0.0,0.0,0.0,0.0,0.0,0.0,0.0,0.0,0.0,0.0,0.0,0.0,1.3393,1.4784,1.4281,1.3771,0.0,0.0,1.345,1.2504,1.3506,1.4001,0.0,0.0,0.0,0.0,0.0,0.0,0.0,0.0,0.0,0.0,0.0,0.0,0.0,0.0,0.0,0.0,0.0,0.0,0.0,0.0,0.0,0.0,0.0,0.0,0.0,0.0,0.0,0.0,0.0,0.0,0.0,0.0,0.0,0.0,0.0,0.0,0.0,0.0,0.0,0.0,0.0,0.0,0.0,0.0,0.0,0.0,0.0,0.0,0.0,0.0,0.0,0.0,0.0,0.0,0.0,2.1976,2.2297,2.2281,2.1975,2.1656,2.1496,2.1584,2.1613,2.1876,0.0,0.0,0.0,0.0,0.0,0.0,0.0,0.0,0.0,0.0,0.0,0.0,0.0,0.0,0.0,0.0,0.0,0.0,0.0,0.0,0.0,0.0,0.0,0.0,0.0,0.0,0.0,0.0,0.0,0.0,0.0,0.0,0.0,0.0,0.0,0.0,0.0,0.0,0.0,0.0,0.0,1.4495,1.5094,1.5119,1.5058,0.0,0.0,1.5043,1.4956,1.5245,1.5464,1.5338,0.0,0.0,0.0,0.0,0.0,0.0,0.0,0.0,0.0,0.0,0.0,0.0,0.0,0.0,0.0,0.0,0.0,0.0,0.0,0.0,0.0,0.0,0.0,0.0,0.0,0.0,0.0,0.0,0.0,0.0,0.0,0.0,0.0,0.0,0.0,0.0,0.0,0.0,0.0,0.0,0.0,0.0,0.0,0.0,0.0,0.0,0.0,0.0,0.0,0.0,0.0,0.0,0.0,2.2184,2.2199,2.2316,2.2316,2.2199,2.2036,2.2074,2.2314,2.3025,2.3357,0.0,0.0,0.0,0.0,0.0,0.0,0.0,0.0,0.0,0.0,0.0,0.0,0.0,0.0,0.0,0.0,0.0,0.0,0.0,0.0,0.0,0.0,0.0,0.0,0.0,0.0,0.0,0.0,1.497,1.5146,1.5296,0.0,0.0,0.0,0.0,0.0,0.0,0.0,0.0,0.0,0.0,1.4087,1.5058,1.5188,0.0,0.0,1.5188,1.516,1.5038,1.5487,1.5735,1.5415,1.5638,0.0,0.0,0.0,0.0,0.0,0.0,0.0,0.0,0.0,0.0,0.0,0.0,0.0,0.0,0.0,0.0,0.0,0.0,0.0,0.0,0.0,0.0,0.0,0.0,0.0,0.0,0.0,0.0,0.0,0.0,0.0,0.0,0.0,0.0,0.0,0.0,0.0,0.0,0.0,0.0,0.0,0.0,0.0,0.0,0.0,0.0,0.0,0.0,0.0,0.0,0.0,0.0,2.2184,2.2184,2.257,2.272,2.2631,2.2773,2.2985,2.3291,2.4095,2.4416,0.0,0.0,0.0,0.0,0.0,0.0,0.0,0.0,0.0,0.0,0.0,0.0,0.0,0.0,0.0,0.0,0.0,0.0,0.0,0.0,0.0,0.0,0.0,0.0,0.0,0.0,0.0,0.0,1.5196,1.5421,1.5692,0.0,0.0,0.0,0.0,0.0,0.0,0.0,0.0,0.0,0.0,1.4269,1.5001,1.516,1.5188,1.5188,1.5188,1.5185,1.5117,1.5476,1.5692,1.5479,0.0,0.0,0.0,0.0,0.0,0.0,0.0,0.0,0.0,0.0,0.0,0.0,0.0,0.0,0.0,0.0,0.0,0.0,0.0,0.0,0.0,0.0,0.0,0.0,0.0,0.0,0.0,0.0,0.0,0.0,0.0,0.0,0.0,0.0,0.0,0.0,0.0,0.0,0.0,0.0,0.0,0.0,0.0,0.0,0.0,0.0,0.0,0.0,0.0,0.0,0.0,0.0,0.0,0.0,2.2214,2.3413,2.3886,2.3596,2.42,2.453,2.4531,2.4577,2.4877,2.5431,0.0,0.0,0.0,0.0,0.0,0.0,0.0,0.0,0.0,0.0,0.0,0.0,0.0,0.0,0.0,0.0,0.0,0.0,0.0,0.0,0.0,0.0,0.0,0.0,0.0,0.0,1.4569,1.5167,1.5692,0.0,0.0,0.0,0.0,0.0,0.0,0.0,0.0,0.0,0.0,1.5396,1.5374,1.4955,1.5067,1.5177,1.5188,1.5203,1.5278,1.5526,1.5378,1.5389,0.0,0.0,0.0,0.0,0.0,0.0,0.0,0.0,0.0,0.0,0.0,0.0,0.0,0.0,0.0,0.0,0.0,0.0,0.0,0.0,0.0,0.0,0.0,0.0,0.0,0.0,0.0,0.0,0.0,0.0,0.0,0.0,0.0,0.0,0.0,0.0,0.0,0.0,0.0,0.0,2.3615,2.3733,0.0,0.0,0.0,0.0,0.0,0.0,0.0,0.0,0.0,0.0,0.0,0.0,2.2811,2.2841,2.3883,2.4372,2.4293,2.4654,2.4995,2.5268,2.5658,2.5956,2.6149,0.0,0.0,0.0,0.0,0.0,0.0,0.0,0.0,0.0,0.0,0.0,0.0,0.0,0.0,0.0,0.0,0.0,0.0,0.0,0.0,0.0,0.0,0.0,0.0,0.0,1.5131,0.0,0.0,0.0,0.0,0.0,0.0,0.0,0.0,0.0,0.0,0.0,1.5314,1.5213,1.5013,1.4863,1.4894,1.4955,1.5034,0.0,0.0,0.0,0.0,0.0,0.0,0.0,0.0,0.0,0.0,0.0,0.0,0.0,0.0,1.5379,1.5379,1.5673,1.5926,1.5926,0.0,0.0,0.0,0.0,0.0,0.0,0.0,0.0,0.0,0.0,0.0,0.0,0.0,0.0,0.0,0.0,2.5529,0.0,0.0,0.0,0.0,0.0,0.0,0.0,0.0,2.4623,2.4594,2.4232,2.4374,2.4412,0.0,2.414,2.3998,0.0,0.0,0.0,0.0,0.0,0.0,0.0,0.0,2.3419,2.3464,2.4545,2.5117,2.5132,2.5519,2.5861,2.6126,2.65,2.6711,2.6711,2.6336,2.5997,0.0,0.0,0.0,0.0,0.0,0.0,0.0,0.0,0.0,0.0,0.0,0.0,0.0,0.0,0.0,0.0,0.0,0.0,0.0,0.0,0.0,0.0,0.0,1.5458,0.0,0.0,0.0,0.0,0.0,0.0,0.0,0.0,0.0,1.5612,1.5432,1.5299,1.5199,1.4934,1.4744,1.4762,0.0,0.0,0.0,0.0,0.0,0.0,0.0,1.5565,1.5797,1.5765,1.5834,1.6177,1.6101,1.5946,1.5875,0.0,0.0,1.5645,1.5974,1.6275,1.622,1.5649,1.5102,1.4859,1.4097,1.3372,0.0,0.0,0.0,0.0,0.0,0.0,0.0,0.0,2.5931,2.574,0.0,2.5791,0.0,0.0,0.0,0.0,0.0,0.0,0.0,0.0,2.6114,2.608,2.5426,2.5395,2.5583,2.5848,2.5184,2.5218,2.5827,2.4763,0.0,0.0,0.0,0.0,0.0,0.0,2.4039,2.4101,2.5418,2.6128,2.6143,2.6738,2.7088,2.7088,2.7088,2.7088,2.7086,2.6728,2.6505,2.6488,2.5834,0.0,0.0,0.0,0.0,0.0,0.0,0.0,0.0,0.0,0.0,0.0,0.0,0.0,0.0,0.0,0.0,0.0,0.0,0.0,0.0,1.5612,0.0,0.0,0.0,0.0,0.0,0.0,0.0,0.0,0.0,0.0,1.5645,1.5591,1.5479,1.522,0.0,0.0,0.0,0.0,1.5085,1.468,1.5178,1.5655,1.5688,1.5875,1.6257,1.6899,0.0,0.0,1.7303,1.7023,1.664,1.6409,1.6571,1.6527,1.5864,1.6086,1.6264,1.6117,1.6496,1.6721,1.6188,1.5972,1.5931,2.7794,0.0,0.0,0.0,0.0,2.5743,2.5979,2.6336,2.6319,2.6283,2.6197,2.6285,0.0,0.0,0.0,0.0,0.0,0.0,2.5997,2.6163,2.6099,2.5962,2.5757,2.5757,2.5811,2.5914,2.5977,2.6253,2.6715,2.6418,2.5799,2.4863,0.0,0.0,0.0,0.0,2.486,2.518,2.626,2.6798,2.6815,2.6997,2.7088,2.7088,2.7088,2.7088,2.7103,2.6985,2.6812,2.6523,2.63,0.0,0.0,0.0,0.0,0.0,0.0,0.0,0.0,0.0,0.0,0.0,0.0,0.0,0.0,0.0,0.0,0.0,0.0,0.0,1.5894,1.6011,1.5985,0.0,0.0,0.0,0.0,0.0,0.0,0.0,0.0,0.0,1.6081,1.5515,1.5128,0.0,0.0,1.5063,1.5268,1.5683,1.6006,1.6054,0.0,0.0,0.0,1.705,1.7066,1.7254,1.7082,1.6958,1.7087,1.7281,1.7383,1.7308,1.7535,1.7632,1.7421,1.7028,1.6791,1.6732,1.6759,1.6742,1.6548,1.6398,1.6275,2.9808,2.8806,2.7746,2.7064,2.6656,2.628,2.6371,2.6728,2.6728,2.6642,2.6491,2.6674,2.6439,2.5914,2.5914,0.0,0.0,0.0,2.6253,2.6488,2.6251,2.605,2.5914,2.5914,2.5982,2.6133,2.6219,2.661,2.7294,2.7002,2.6677,2.6266,0.0,0.0,2.5299,2.5639,2.6008,2.6406,2.7144,2.7533,2.7533,2.7533,2.7533,2.7533,2.7549,2.7533,2.7533,2.7533,2.7415,2.7176,2.7037,2.6506,0.0,0.0,0.0,0.0,0.0,0.0,0.0,0.0,0.0,0.0,0.0,1.6496,1.6242,0.0,0.0,0.0,1.6117,1.6127,1.6127,1.6155,0.0,0.0,0.0,0.0,0.0,0.0,0.0,1.6021,1.6123,1.6247,1.6409,1.5815,1.5476,1.5851,1.5741,1.5746,1.6108,0.0,1.6754,1.6802,1.7077,1.7372,1.7652,1.7749,1.7847,1.7944,1.7906,1.7846,1.7829,1.8076,1.8205,1.8168,1.8261,1.8336,1.8233,1.7846,1.7523,1.7453,1.7265,1.7104,1.7104,1.691,1.677,3.1748,3.1197,2.8664,2.7752,2.7859,2.7028,2.6837,2.7103,2.7088,2.6899,2.6574,2.6949,2.6679,2.5999,2.5999,0.0,0.0,2.6557,2.654,2.6557,2.6574,2.6388,2.5999,2.6068,2.6253,2.6576,2.6236,2.6615,2.7586,2.697,2.6968,2.7569,2.6953,2.6625,2.6623,2.6936,2.7311,2.764,2.8013,2.8186,2.8186,2.8186,2.8186,2.8186,2.8186,2.8202,2.8186,2.8202,2.8186,2.8186,2.7843,2.711,2.6033,0.0,0.0,0.0,0.0,0.0,0.0,0.0,0.0,0.0,0.0,0.0,0.0,0.0,0.0,0.0,1.6334,0.0,1.635,1.6214,0.0,0.0,0.0,1.6153,1.6275,1.6366,1.6478,1.6693,0.0,0.0,0.0,0.0,1.6413,1.7098,1.6942,1.685,1.7077,1.7356,1.7443,1.7281,1.7587,1.7895,1.8035,1.8276,1.8573,1.8785,1.8997,1.9032,1.9046,1.9068,1.905,1.8864,1.8842,1.8789,1.8527,1.8473,1.8416,1.8239,1.797,1.7749,1.7738,1.7593,1.7589,3.2157,3.2242,3.0908,2.9579,2.8351,2.8113,2.7677,2.7103,2.7088,2.7052,2.6951,2.7069,2.6985,2.6814,2.6814,2.6865,2.6966,2.6966,2.6966,2.6983,2.721,2.7141,2.6865,2.7396,2.7535,2.7364,2.7537,2.7792,2.8032,2.7893,2.7739,2.7621,2.7739,2.7638,2.7347,2.7432,2.7688,2.8033,2.815,2.8186,2.8186,2.8186,2.8186,2.8186,2.8186,2.8186,2.8186,2.8186,2.8186,2.8186,2.81,2.7787,2.7202,2.7039,0.0,0.0,0.0,0.0,0.0,0.0,0.0,0.0,0.0,1.7858,1.6933,0.0,1.6191,0.0,1.6658,1.684,1.6824,1.6974,0.0,0.0,1.6694,1.6635,1.6355,1.6813,1.7028,1.6731,1.6915,1.7249,1.7713,1.7492,1.7701,1.8713,1.795,1.7438,1.7985,1.8448,1.8678,1.8635,1.8993,1.9374,1.9331,1.9291,1.9252,1.9316,1.9204,1.9172,1.9391,1.9395,1.9391,1.9338,1.9327,1.9305,1.9252,1.9093,1.9021,1.909,1.8674,1.8244,1.8226,1.8201,1.8201,3.3085,3.3283,3.2767,3.1697,3.0279,2.9044,2.8197,2.7704,2.7285,2.7174,2.7328,2.7532,2.7585,2.76,2.7585,2.7585,2.7585,2.7585,2.7585,2.7617,2.7775,2.7758,2.7602,2.7997,2.8083,2.7878,2.8083,2.8289,2.8459,2.8476,2.8441,2.8341,2.858,2.858,2.8374,2.8203,2.8322,2.8666,2.8698,2.87,2.8698,2.8682,2.863,2.8476,2.8476,2.8374,2.8203,2.8186,2.8186,2.8186,2.8186,2.8116,2.7878,2.7533,2.6896,0.0,0.0,0.0,0.0,0.0,0.0,0.0,0.0,0.0,0.0,0.0,1.7179,0.0,1.7465,0.0,1.7337,1.7308,1.7233,1.7064,1.7131,1.7109,1.6942,1.7475,1.7744,1.7486,1.769,1.8024,1.8476,1.8336,1.8509,1.9381,1.8821,1.8515,1.8961,1.9305,1.9456,1.9478,1.972,1.99,1.99,1.9774,1.9693,1.979,1.9696,1.9685,1.9949,1.9973,1.9992,1.9992,1.9992,1.9992,1.9981,1.9876,1.9814,1.9895,1.9661,1.9233,1.8807,1.8652,1.862,3.4295,3.4221,3.4221,3.3694,3.2689,3.0118,2.8879,2.8595,2.7802,2.7519,2.7706,2.8065,2.8186,2.8186,2.8186,2.8186,2.8186,2.8186,2.8186,2.8203,2.8253,2.8271,2.8287,2.8306,2.834,2.834,2.8356,2.8527,2.8869,2.8886,2.9007,2.923,2.9265,2.9282,2.923,2.8974,2.9008,2.9299,2.9282,2.9282,2.9248,2.923,2.9059,2.8749,2.8716,2.8577,2.822,2.8186,2.8186,2.8186,2.8186,2.8236,2.827,2.7895,2.7074,0.0,2.6161,0.0,0.0,0.0,0.0,0.0,0.0,0.0,0.0,2.01,1.847,1.8171,1.8373,1.8373,1.7974,1.7707,1.7626,1.78,1.7735,1.7742,1.7876,1.8239,1.8473,1.8452,1.8441,1.8613,1.8993,1.8939,1.8979,1.9402,1.9445,1.9507,1.9849,1.9838,1.9784,1.9868,1.9911,1.9968,2.0011,2.0019,2.0054,2.021,2.0231,2.0328,2.0509,2.0561,2.0583,2.0572,2.055,2.0561,2.0593,2.0572,2.0572,2.0539,2.0507,2.0229,1.9527,1.923,1.9173,3.5335,3.4821,3.4835,3.4437,3.3739,3.2465,3.0964,2.9449,2.9264,2.8809,2.8099,2.8152,2.8186,2.8186,2.8186,2.8186,2.8186,2.8186,2.8186,2.8203,2.8528,2.8697,2.8698,2.8956,2.9093,2.9093,2.9093,2.9128,2.9213,2.9197,2.9093,2.8921,2.9162,2.9178,0.0,0.0,0.0,0.0,2.9282,2.9146,2.8904,2.8904,2.8716,2.8339,2.8306,0.0,2.8219,2.8186,2.8186,2.8186,2.8186,0.0,0.0,0.0,0.0,0.0,0.0,0.0,0.0,0.0,0.0,0.0,2.6103,2.4115,2.1679,1.9715,1.854,1.8445,1.8615,1.8889,1.9215,1.9346,1.9431,1.9505,1.9368,1.9142,1.8822,1.8884,1.8903,1.8745,1.8724,1.8832,1.9054,1.8921,1.9,1.9464,1.9499,1.9682,2.01,1.9841,1.9604,1.9585,1.9919,2.0229,2.0432,2.0434,2.0442,2.0509,2.052,2.0561,2.0595,2.0626,2.0615,2.0615,2.0593,2.0615,2.0615,2.0593,2.0626,2.0604,2.0604,2.055,2.0348,2.0291,2.0272,3.5999,0.0,3.5339,3.5022,0.0,3.4212,3.3186,3.1671,3.028,2.923,2.8526,2.8665,2.8734,2.8751,2.8734,2.8751,2.8751,2.8751,2.8751,2.8751,2.8973,2.9042,2.9042,2.9214,2.9282,2.9282,2.9282,2.9282,2.9282,2.9282,2.9213,2.9058,2.9197,2.9197,2.9059,2.9419,2.9504,2.9282,2.9282,2.9214,2.9059,2.9042,2.8854,2.8527,0.0,0.0,0.0,0.0,0.0,0.0,0.0,0.0,0.0,0.0,0.0,2.8493,2.7669,2.7573,2.8396,2.7854,2.784,2.867,2.749,2.5628,2.3067,2.2839,2.2218,2.0785,2.0716,2.0608,2.0179,1.9929,1.977,1.9793,1.9464,1.9107,1.8799,1.8936,1.9011,1.8864,1.9011,1.9187,1.9287,1.9356,1.9493,1.9779,1.9854,1.993,2.0115,1.9997,1.9887,2.0005,2.0218,2.0434,2.0572,2.0604,2.0639,2.0714,2.0757,2.08,2.0939,2.096,2.096,2.096,2.094,2.094,2.096,2.096,2.0949,2.094,2.094,2.094,2.0939,2.0746,2.0604,3.685,3.6698,3.6141,3.5788,3.5572,3.5557,3.4937,3.3741,0.0,0.0,0.0,2.9456,2.9463,2.9299,2.9282,2.9282,2.9282,2.9282,2.9282,2.9282,2.9282,2.9282,2.9282,2.9282,2.9282,2.9282,2.9282,2.9334,2.9402,2.9419,2.9453,2.9488,2.9488,2.9521,2.9522,2.983,2.9813,2.9505,2.9504,2.947,2.9419,2.9419,2.9248,2.8904,2.8887,2.8733,2.8424,2.8391,2.8391,2.8391,2.8339,2.8339,2.8374,2.8323,2.8339,2.8391,2.8391,2.8528,2.887,2.8871,2.9007,2.9282,2.8246,2.6875,2.5253,2.6163,2.5848,2.3485,2.3239,2.2623,2.1299,2.0888,2.0424,2.0,1.9735,1.9493,1.9047,1.9138,1.9329,1.9174,1.9339,1.9539,1.9572,1.9679,1.9935,2.0134,2.0158,2.0244,2.0287,2.0234,2.0242,2.0477,2.0593,2.066,2.0723,2.0755,2.0809,2.0962,2.0974,2.105,2.1231,2.1296,2.1296,2.1253,2.1296,2.1274,2.1285,2.1264,2.1296,2.1296,2.1296,2.1296,2.1264,2.0994,2.0766,3.8529,3.8043,3.7931,3.7253,3.6254,3.627,3.5356,3.3808,3.2568,3.1452,3.0513,3.0567,3.0115,2.9282,2.9282,2.9282,2.9282,2.9282,2.9282,0.0,2.9282,2.9282,2.9282,2.9282,2.9282,2.9282,2.93,2.9471,2.9778,2.9813,2.995,3.0207,3.0241,3.0241,3.0258,3.0309,3.0309,3.0258,3.0258,3.0104,2.983,2.9813,2.9641,2.9248,2.9248,2.9213,2.9146,2.9145,2.9146,2.9128,2.8854,2.8853,2.9111,2.8871,2.8853,2.9128,2.9128,2.9179,2.923,2.9214,2.9231,2.9299,2.9119,2.8511,2.7369,2.6055,2.528,2.5136,2.4829,2.4189,2.311,2.3689,2.3327,2.1585,2.2101,2.2255,2.0897,2.0451,2.0243,2.0188,1.9806,1.9633,1.9833,1.973,1.9809,2.0124,2.0298,2.0352,2.064,2.0438,2.0339,2.0572,2.0757,2.0951,2.1111,2.1208,2.1198,2.1242,2.1231,2.1231,2.1285,2.1296,2.1296,2.1296,2.1296,2.1296,2.1296,2.1296,2.1296,2.1296,2.1296,2.1296,2.1296,2.121,2.1167,3.8596,3.8283,3.7946,3.7268,3.6377,3.6009,3.5418,3.4708,3.4491,3.304,3.0877,3.0779,3.0245,2.9332,2.9282,2.9282,2.9282,2.9282,2.9282,2.93,2.9522,2.9625,2.9658,2.9813,2.9899,2.9899,2.9899,3.0001,3.0155,3.0189,3.0258,3.0395,3.0395,3.0498,3.072,3.0737,3.084,3.1046,3.0617,3.0326,3.0156,3.0172,3.007,2.9899,2.9882,2.9899,2.9899,2.9899,2.9882,2.9899,2.9745,2.9745,2.9881,2.9761,2.9744,2.9881,2.9899,2.9899,2.9899,2.9899,2.9882,2.9899,2.9899,2.98,2.9524,2.8172,2.6844,2.5655,2.5327,2.4476,2.2729,2.2911,2.2675,2.151,2.1746,2.1593,2.0925,2.0713,2.062,2.0594,2.0402,2.0328,2.0426,2.0231,2.0207,2.0533,2.0684,2.0877,2.1091,2.0931,2.0823,2.0962,2.1059,2.1156,2.1274,2.1296,2.1296,2.1296,2.1296,2.1296,2.1296,2.1296,2.1296,2.1296,2.1296,2.1296,2.1296,2.1296,2.1296,2.1296,2.1296,2.1296,2.1296,2.1296,2.1296,3.8875,3.8807,3.8355,3.7702,3.6875,3.607,3.5712,3.5738,3.6069,3.458,3.2042,3.1813,3.1244,3.033,3.0051,2.9935,2.9902,2.9655,2.9573,2.9573,2.9864,3.0001,3.0035,3.0292,3.0395,3.0395,3.0395,3.0463,3.0532,3.0549,3.0583,3.0652,3.0669,3.084,3.1131,3.1148,3.1303,3.1543,3.0994,3.0686,3.0669,3.0669,3.0686,3.0669,3.0669,3.0686,3.0669,3.0669,3.0669,3.0669,3.0583,3.0549,3.0515,3.0429,3.0395,3.0395,3.0395,3.0395,3.0395,3.0395,3.0395,3.0395,3.0395,3.0532,3.0754,3.0155,2.8876,2.7013,2.6741,2.5763,2.4071,2.3638,2.3008,2.2178,2.205,2.1933,2.1062,2.1015,2.1091,2.1081,2.1041,2.0951,2.0982,2.0815,2.0736,2.0942,2.1177,2.1285,2.1296,2.1296,2.1296,2.1296,2.1296,2.1285,2.1296,2.1296,2.1296,2.1296,2.1296,2.1296,2.1296,2.1296,2.1296,2.1296,2.1296,2.1296,2.1296,2.1296,2.1296,2.1296,2.1296,2.1296,2.1296,2.1296,2.1296,4.0541,4.0579,4.0426,3.9742,3.8447,3.7229,3.6687,3.6676,3.6722,3.609,3.4841,3.4877,3.424,3.3237,3.219,3.1704,3.1622,3.0766,3.0275,3.0275,3.0327,3.0361,3.0344,3.0412,3.0395,3.0429,3.0429,3.0634,3.0943,3.0943,3.1114,3.1457,3.1492,3.1474,3.1525,3.1525,3.1577,3.1595,3.1508,3.1492,3.1474,3.1492,3.1474,3.1474,3.1474,3.1474,3.1423,3.1492,3.1492,3.1475,3.1131,3.0943,3.0908,3.0617,3.0412,3.0412,3.0412,3.0395,3.0412,3.0395,3.0446,3.0395,3.0463,3.0515,3.0566,3.0737,3.0805,3.0287,3.0069,2.8972,2.8007,2.8363,2.7206,2.3994,2.4783,2.5212,2.2891,2.2395,2.2299,2.226,2.1676,2.1263,2.1511,2.1232,2.1003,2.1188,2.1253,2.1296,2.1296,2.1296,2.1296,2.1296,2.1296,2.1296,2.1296,2.1296,2.1296,2.1296,2.1296,2.1296,2.1296,2.1296,2.1296,2.1296,2.1296,2.1296,2.1296,2.1296,2.1317,2.135,2.135,2.1328,2.1307,2.1339,2.1361,4.0793,4.0793,4.0793,4.0278,3.9357,3.8438,3.779,3.7429,3.767,3.7344,3.6697,3.6876,3.5441,3.277,3.2285,3.1748,3.1073,3.0599,3.0395,3.0412,3.0652,3.0737,3.0771,3.1011,3.1097,3.1097,3.1114,3.12,3.1337,3.1354,3.144,3.156,3.1577,3.1577,3.1612,3.1782,3.1902,3.1919,3.2142,3.2245,3.2194,3.1835,3.1577,3.1577,3.1577,3.1577,3.1577,3.1577,3.1577,3.1595,3.1457,3.1354,3.1354,3.1183,3.1114,3.1114,3.1097,3.12,3.1387,3.1404,3.1507,3.1713,3.1765,3.1765,3.1782,3.1919,3.2004,3.1864,3.083,2.9169,2.721,2.7217,2.6396,2.42,2.4185,2.4168,2.3131,2.3011,2.3011,2.2964,2.263,2.2401,2.2413,2.1927,2.149,2.1366,2.1296,2.1296,2.1296,2.1296,2.1296,2.1296,2.1296,2.1296,2.1296,2.1296,2.1296,2.1296,2.1296,2.1296,2.1317,2.1296,2.1296,2.1307,2.1328,2.1328,2.1296,2.1405,2.148,2.148,2.1652,2.1696,2.1706,2.1716,2.1705,4.1221,4.1175,4.102,4.0693,4.0217,3.9541,3.8971,3.8482,3.8631,3.8427,3.7957,3.7826,3.5964,3.3174,3.2866,3.2257,3.1234,3.0875,3.072,3.0754,3.1046,3.1165,3.12,3.144,3.1577,3.1577,3.156,3.1646,3.1731,3.1886,3.1903,3.1885,3.1903,3.1903,3.192,3.2159,3.226,3.2295,3.2588,3.2691,3.2622,3.2177,3.1903,3.1885,3.1903,3.1903,3.1885,3.1903,3.1834,3.1748,3.1731,3.1697,3.1612,3.1577,3.1577,3.1577,3.1577,3.1748,3.2089,3.2021,3.2176,3.2622,3.2622,3.2588,3.2691,3.2793,3.2862,3.2773,3.1647,2.9973,2.7968,2.7485,2.6809,2.5424,2.4906,2.4437,2.4086,2.3796,2.3503,2.3495,2.3217,2.309,2.2797,2.2254,2.173,2.1377,2.1296,2.1296,2.1296,2.1296,2.1317,2.1371,2.1373,2.134,2.1317,2.1296,2.1307,2.1382,2.1414,2.1436,2.1468,2.149,2.149,2.1619,2.1522,2.1501,2.1587,2.1674,2.1653,2.1674,2.1771,2.1857,2.1705,2.1781,2.1802,4.2222,4.212,4.153,4.1261,4.1178,4.044,4.0099,3.9888,3.9408,3.9101,3.8767,3.7391,3.592,3.4686,3.4616,3.4085,3.296,3.1896,3.1475,3.1492,3.1543,3.1577,3.156,3.1577,3.1629,3.1697,3.1715,3.1834,3.2106,3.2433,3.2656,3.2622,3.2588,3.2622,3.2605,3.2639,3.2673,3.2691,3.2741,3.2724,3.2725,3.2691,3.2656,3.2656,3.2639,3.2588,3.2605,3.2621,3.2485,3.2106,3.2089,3.1935,3.1663,3.1629,3.1628,3.1646,3.1629,3.1782,3.2055,3.192,3.2022,3.2571,3.25,3.2346,3.2775,3.3085,3.3256,3.3256,3.3309,3.2851,3.2089,3.119,3.0844,2.9651,2.854,2.7131,2.6056,2.444,2.3876,2.3724,2.3468,2.2978,2.2185,2.1943,2.1752,2.1459,2.1307,2.1307,2.1328,2.1317,2.1393,2.1491,2.1545,2.1523,2.135,2.1404,2.1479,2.1534,2.1641,2.1663,2.1856,2.1975,2.1943,2.1942,2.1867,2.1867,2.1943,2.1943,2.1857,2.1814,2.174,2.1749,2.1727,2.1467,2.15,4.2307,4.2291,4.2036,4.1941,4.1877,4.118,4.0663,4.0214,3.9506,3.895,3.8503,3.7854,3.6711,3.5212,3.5229,3.4105,3.2228,3.1771,3.1577,3.1629,3.1834,3.1936,3.1953,3.2177,3.2296,3.2315,3.2315,3.2365,3.2467,3.2639,3.2691,3.2691,3.2691,3.2691,3.2742,3.2983,3.3086,3.3102,3.3289,3.3407,3.339,3.3407,3.3407,3.3373,3.2929,3.2691,3.2691,3.2691,3.2621,3.2484,3.2484,3.2433,3.2332,3.2296,3.2315,3.2296,3.2296,3.2468,3.2793,3.2759,3.2879,3.334,3.3287,3.3183,3.339,3.3527,3.3612,3.3647,3.3696,3.3647,3.3061,3.1534,2.961,2.8075,2.6519,2.5537,2.4768,2.416,2.38,2.378,2.3652,2.3259,2.2547,2.2346,2.2119,2.1611,2.1393,2.1371,2.1459,2.1491,2.147,2.1437,2.1492,2.1514,2.1339,2.1587,2.1781,2.1824,2.1878,2.1878,2.1986,2.2018,2.2017,2.2061,2.2072,2.205,2.2072,2.2116,2.204,2.1997,2.1922,2.1814,2.1792,2.1575,2.1618,4.2307,4.2307,4.2307,4.2307,4.2243,4.1806,4.1324,4.0776,4.0055,3.9246,3.8429,3.781,3.6597,3.515,3.4692,3.3678,3.2043,3.1954,3.1972,3.1989,3.2175,3.2313,3.2329,3.2588,3.2691,3.2725,3.2845,3.2879,3.2913,3.2998,3.3049,3.3048,3.3066,3.3049,3.31,3.3323,3.3479,3.3511,3.3698,3.3799,3.3818,3.3818,3.3818,3.373,3.3304,3.3066,3.3049,3.3049,3.2999,3.2913,3.2896,3.2828,3.2725,3.2691,3.2691,3.2691,3.2691,3.2879,3.3223,3.3189,3.3289,3.3749,3.3679,3.3664,3.3784,3.3818,3.3818,3.3818,3.3818,3.3818,3.3289,3.1293,2.9367,2.8549,2.7219,2.5971,2.5469,2.4985,2.4347,2.374,2.356,2.3179,2.2567,2.2386,2.207,2.1573,2.1382,2.1362,2.147,2.1502,2.1513,2.1436,2.1503,2.1599,2.1587,2.1781,2.1792,2.1813,2.1868,2.1922,2.2083,2.2093,2.2137,2.218,2.218,2.2169,2.2169,2.2224,2.2202,2.2148,2.2051,2.19,2.1824,2.1715,2.1672,4.2307,4.2353,4.2291,4.2376,4.2429,4.2301,4.2169,4.183,4.116,4.012,3.8873,3.7203,3.6144,3.4595,3.3963,3.2964,3.2909,3.2781,3.2656,3.2605,3.2673,3.2708,3.2707,3.2775,3.2828,3.2809,3.3119,3.329,3.3307,3.3544,3.3715,3.3748,3.3715,3.3681,3.3765,3.3749,3.3784,3.3784,3.3799,3.3818,3.3818,3.3818,3.3818,3.3818,3.3749,3.3732,3.3748,3.373,3.3578,3.336,3.329,3.312,3.2862,3.2793,3.2741,3.2775,3.2741,3.293,3.324,3.3033,3.3203,3.363,3.351,3.351,3.3748,3.3818,3.3818,3.3818,3.3818,3.3818,3.3591,3.2321,3.1673,3.3099,3.112,2.9541,2.8491,2.7174,2.5482,2.3808,2.3353,2.2872,2.2216,2.2016,2.1878,2.1513,2.1339,2.1328,2.1393,2.1394,2.1416,2.1513,2.1567,2.1609,2.1782,2.1964,2.1803,2.1717,2.1772,2.1858,2.2148,2.2245,2.2374,2.2439,2.2492,2.2449,2.2245,2.2256,2.2041,2.1965,2.1954,2.1857,2.1673,2.1521,2.1436,4.2529,4.2828,4.2828,4.3051,4.3245,4.2849,4.2601,4.2481,4.1815,4.0939,4.0038,3.944,3.842,3.7065,3.5955,3.5157,3.4653,3.3872,3.3203,3.2864,3.3,3.3102,3.3153,3.334,3.3458,3.3457,3.3578,3.3647,3.3664,3.3748,3.3818,3.3818,3.3816,3.3818,3.3833,3.3818,3.3818,3.3818,3.3818,3.3818,3.3818,3.3799,3.3816,3.3818,3.3818,3.3818,3.3818,3.3818,3.3748,3.363,3.3647,3.3595,3.3457,3.3458,3.3458,3.3458,3.3458,3.3493,3.3614,3.3527,3.3527,3.373,3.3698,3.3698,3.3782,3.3818,3.3818,3.3818,3.3818,3.3818,3.3704,3.3384,3.285,3.2152,3.06,2.9668,2.8856,2.7432,2.581,2.4184,2.3748,2.3288,2.2465,2.2124,2.1918,2.1561,2.1393,2.1339,2.1459,2.1459,2.1437,2.1426,2.1513,2.1546,2.1609,2.1696,2.1685,2.1717,2.1804,2.1922,2.2181,2.2342,2.2492,2.2579,2.2643,2.2579,2.2374,2.2213,2.2008,2.1804,2.174,2.1588,2.1371,2.1296,2.1296,4.3057,4.3349,4.3349,4.3533,4.3759,4.3336,4.3134,4.3001,4.262,4.1861,4.0992,4.0567,3.9695,3.8443,3.7402,3.6734,3.6164,3.5025,3.4218,3.376,3.3471,3.3496,3.3511,3.3681,3.3818,3.3818,3.3818,3.3903,3.4023,3.4042,3.4092,3.4229,3.4246,3.4265,3.4246,3.4246,3.4213,3.4074,3.4196,3.4177,3.4092,3.416,3.4246,3.4229,3.4109,3.404,3.4023,3.4023,3.3955,3.3833,3.3818,3.3818,3.3818,3.3801,3.3818,3.3818,3.3818,3.3799,3.3818,3.3784,3.3818,3.3818,3.3818,3.3818,3.3818,3.3818,3.3818,3.3818,3.3955,3.4023,3.404,3.4175,3.3713,3.283,3.1811,3.0401,2.9355,2.712,2.5286,2.3933,2.3478,2.2956,2.225,2.192,2.1838,2.1531,2.1373,2.1317,2.1459,2.148,2.1404,2.135,2.1404,2.1383,2.133,2.1405,2.1523,2.1706,2.1889,2.2041,2.2245,2.2234,2.2309,2.2374,2.2428,2.2406,2.2245,2.218,2.2029,2.1825,2.1567,2.1491,2.1382,2.1307,2.1296,4.3815,4.3838,4.3854,4.39,4.3992,4.3988,4.3919,4.3725,4.3753,4.309,4.1866,4.1078,3.991,3.8715,3.7769,3.7126,3.7015,3.5754,3.5155,3.4913,3.4364,3.3852,3.3869,3.3884,3.3955,3.3989,3.3972,3.4109,3.4421,3.4436,3.4627,3.4866,3.4884,3.4969,3.4866,3.4952,3.4661,3.4402,3.4642,3.4573,3.4335,3.4659,3.4884,3.4849,3.4592,3.4402,3.4333,3.4333,3.4196,3.392,3.3903,3.3903,3.3869,3.3869,3.3972,3.3989,3.3903,3.3936,3.3901,3.4006,3.3989,3.3987,3.4006,3.3867,3.4006,3.404,3.404,3.404,3.4265,3.4419,3.4487,3.4676,3.4786,3.4913,3.414,3.2732,3.0,2.6833,2.5069,2.3622,2.2834,2.2371,2.1668,2.1504,2.1401,2.1338,2.1307,2.1317,2.1328,2.1361,2.1317,2.1317,2.135,2.1339,2.1307,2.1416,2.1514,2.1653,2.1868,2.2083,2.2234,2.2202,2.2212,2.2266,2.2212,2.217,2.2095,2.2008,2.1857,2.1631,2.1491,2.1459,2.1405,2.1328,2.1296,4.4038,4.4382,4.4366,4.4612,4.4996,4.533,4.5456,4.5467,4.5827,4.5312,4.4431,4.3105,4.1659,4.0193,3.8004,3.6644,3.6143,3.4985,3.4464,3.4653,3.4441,3.4248,3.4248,3.4248,3.4402,3.4627,3.4607,3.4727,3.4832,3.4832,3.4898,3.5006,3.5055,3.504,3.4969,3.4781,3.4524,3.4368,3.4213,3.416,3.4126,3.4419,3.4558,3.4575,3.4747,3.4678,3.4436,3.4385,3.435,3.4265,3.4248,3.4248,3.4265,3.4487,3.4607,3.4627,3.4661,3.4678,3.4642,3.4642,3.4678,3.4676,3.459,3.4695,3.4695,3.4695,3.4695,3.4712,3.4815,3.4849,3.4849,3.4952,3.5123,3.5275,3.5055,3.3559,3.0671,2.8984,2.725,2.4422,2.3445,2.2744,2.2127,2.1664,2.1426,2.1339,2.1296,2.1296,2.1296,2.1296,2.1296,2.1296,2.1307,2.1307,2.1339,2.1459,2.1546,2.1642,2.1825,2.2051,2.217,2.2224,2.2245,2.2299,2.2083,2.2008,2.1847,2.1718,2.1535,2.148,2.1394,2.1362,2.1361,2.1296,2.1296,4.4635,4.4927,4.495,4.5128,4.545,4.588,4.611,4.6202,4.6638,4.6691,4.596,4.4579,4.3358,4.2251,3.962,3.8103,3.7428,3.5807,3.5206,3.5248,3.4895,3.468,3.4661,3.4661,3.4781,3.4989,3.5023,3.5072,3.5192,3.5207,3.5295,3.5466,3.5446,3.5466,3.55,3.5261,3.5001,3.4898,3.4759,3.4708,3.4571,3.4915,3.4986,3.495,3.5106,3.5089,3.4864,3.4747,3.4712,3.4798,3.4747,3.4661,3.4678,3.4849,3.5006,3.5006,3.5006,3.5006,3.5006,3.5006,3.5006,3.4986,3.5006,3.5006,3.4989,3.5006,3.5006,3.4989,3.5104,3.5209,3.5224,3.5326,3.5532,3.5669,3.5429,3.4113,3.1528,2.9775,2.7921,2.5656,2.4001,2.2903,2.2228,2.1746,2.1477,2.1339,2.1296,2.1296,2.1296,2.1296,2.1296,2.1296,2.1296,2.1296,2.1296,2.1383,2.1471,2.1577,2.1717,2.1975,2.2019,2.2095,2.2095,2.2083,2.1922,2.1814,2.1749,2.1653,2.1567,2.1502,2.1362,2.1307,2.1296,2.1296,2.1296,4.5421,4.5421,4.5421,4.5421,4.5473,4.588,4.611,4.6202,4.6747,4.6954,4.6502,4.5224,4.4025,4.4037,4.0493,3.9711,3.9333,3.69,3.6397,3.5964,3.5526,3.5123,3.5038,3.5038,3.5123,3.5209,3.5123,3.5312,3.5515,3.5583,3.5737,3.5909,3.6011,3.6011,3.5823,3.586,3.574,3.5326,3.5344,3.5292,3.5155,3.5412,3.5498,3.5412,3.5395,3.5498,3.5412,3.5258,3.5192,3.5549,3.5243,3.5072,3.5055,3.5072,3.5141,3.5212,3.5226,3.5209,3.5158,3.5226,3.5195,3.5209,3.5192,3.5123,3.5209,3.5243,3.5243,3.5243,3.5395,3.5532,3.56,3.5874,3.5977,3.596,3.5703,3.4889,3.3348,3.0366,2.7777,2.6704,2.4539,2.3101,2.2081,2.1579,2.1296,2.1317,2.1296,2.1296,2.1296,2.1296,2.1296,2.1296,2.1296,2.1296,2.1296,2.1307,2.1394,2.1502,2.163,2.1781,2.1749,2.1783,2.1825,2.1782,2.1685,2.1739,2.1857,2.175,2.161,2.1491,2.1361,2.1317,2.1296,2.1296,2.1296,4.5421,4.5421,4.5421,4.5421,4.5473,4.5898,4.6133,4.6202,4.7074,4.7258,4.6568,4.5023,4.3347,4.1705,3.9449,3.741,3.6731,3.5858,3.5377,3.5388,3.5817,3.5618,3.5446,3.5378,3.5566,3.572,3.586,3.5912,3.5943,3.5926,3.5994,3.608,3.608,3.5943,3.5686,3.5518,3.5055,3.4747,3.4796,3.4918,3.4952,3.5175,3.5449,3.5498,3.5515,3.5669,3.584,3.56,3.56,3.5772,3.5618,3.5395,3.5446,3.5652,3.5772,3.5792,3.5826,3.5823,3.584,3.5809,3.586,3.5809,3.5755,3.5877,3.5877,3.5826,3.5843,3.5877,3.5946,3.5926,3.5943,3.6029,3.6097,3.6011,3.5737,3.5376,3.4685,3.2555,2.9728,2.7256,2.5472,2.3956,2.2245,2.1619,2.1397,2.1336,2.1296,2.1296,2.1296,2.1296,2.1296,2.1296,2.1296,2.1296,2.1317,2.135,2.1459,2.1556,2.1673,2.1727,2.1696,2.1675,2.1793,2.1674,2.148,2.162,2.1922,2.1685,2.1522,2.1425,2.1393,2.1414,2.1425,2.1382,2.1393,4.5421,4.5421,4.5421,4.5421,4.5519,4.615,4.6454,4.6678,4.7551,4.7634,4.6708,4.498,4.3256,4.1641,3.9009,3.7178,3.6449,3.5718,3.5415,3.5452,3.5789,3.5755,3.5463,3.5618,3.5909,3.608,3.608,3.6097,3.6097,3.6097,3.608,3.6097,3.6097,3.6011,3.5806,3.5566,3.5463,3.5309,3.5209,3.5209,3.5241,3.5398,3.5569,3.5686,3.5635,3.5686,3.6011,3.5909,3.5929,3.5977,3.5892,3.5772,3.5806,3.5977,3.608,3.6097,3.6097,3.6097,3.6097,3.6097,3.608,3.6097,3.6097,3.6097,3.6097,3.6097,3.6097,3.6097,3.608,3.6097,3.6097,3.6097,3.6097,3.5994,3.5603,3.5344,3.5103,3.3477,3.1488,2.8903,2.6873,2.5139,2.3656,2.2144,2.1417,2.1296,2.1296,2.1296,2.1296,2.1296,2.1296,2.1296,2.1296,2.1307,2.1328,2.1414,2.1566,2.1695,2.1813,2.1856,2.1846,2.1846,2.1846,2.1749,2.1685,2.1793,2.1976,2.1716,2.1587,2.1673,2.1726,2.1661,2.163,2.1684,2.1705,4.5421,4.5421,4.5421,4.5421,4.5541,4.6277,4.6558,4.6742,4.7643,4.7294,4.6482,4.4637,4.2946,4.1639,3.8945,3.772,3.7139,3.6428,3.5535,3.5258,3.5603,3.5432,3.5158,3.5429,3.5772,3.5926,3.6046,3.608,3.6097,3.6097,3.6097,3.6097,3.6097,3.5994,3.5994,3.5977,3.5789,3.5635,3.5703,3.5772,3.5806,3.5857,3.5874,3.584,3.5806,3.5772,3.6046,3.6063,3.608,3.6097,3.6097,3.6097,3.6097,3.6097,3.6097,3.6097,3.6097,3.6097,3.6097,3.6097,3.6097,3.6097,3.6097,3.6097,3.6097,3.6097,3.6097,3.6097,3.6097,3.6097,3.6097,3.5977,3.6011,3.5926,3.5395,3.5141,3.4945,3.3503,3.1858,3.0598,2.7891,2.5738,2.3932,2.2323,2.177,2.1296,2.1296,2.1307,2.1307,2.1317,2.1339,2.1393,2.1425,2.1544,2.1576,2.1598,2.1749,2.1846,2.1974,2.2007,2.2019,2.2019,2.203,2.2041,2.2062,2.2094,2.2062,2.1921,2.1909,2.2007,2.1974,2.1846,2.1889,2.1986,2.1975,4.5421,4.5421,4.5421,4.5421,4.5427,4.5587,4.5725,4.5748,4.638,4.583,4.4677,4.3099,4.1461,3.9606,3.7555,3.6225,3.5776,3.5393,3.5089,3.4813,3.5089,3.5006,3.4764,3.5072,3.5243,3.5363,3.5669,3.5994,3.6029,3.6097,3.598,3.6046,3.6063,3.5926,3.5703,3.5581,3.56,3.5532,3.5635,3.572,3.5737,3.572,3.572,3.5755,3.584,3.5994,3.6046,3.6097,3.6097,3.6097,3.6097,3.6097,3.6097,3.6097,3.6097,3.6097,3.6097,3.6097,3.6097,3.6097,3.6097,3.6097,3.6097,3.6097,3.6097,3.6097,3.6097,3.6097,3.6097,3.61,3.61,3.584,3.5806,3.5703,3.5241,3.4695,3.4537,3.3242,3.1078,2.9744,2.7852,2.6063,2.4148,2.2524,2.1689,2.1296,2.1296,2.1339,2.1371,2.1393,2.1414,2.148,2.1577,2.1728,2.1868,2.1899,2.1964,2.2018,2.2115,2.219,2.2212,2.2245,2.2235,2.2245,2.2202,2.2137,2.2104,2.2093,2.2104,2.2169,2.2093,2.2018,2.2115,2.219,2.2115,4.5421,4.5421,4.5421,4.5421,4.545,4.5662,4.576,4.5829,4.6271,4.5961,4.4498,4.2581,4.073,3.8986,3.6642,3.5359,3.5074,3.5006,3.4884,3.4781,3.4884,3.4781,3.4472,3.4798,3.4815,3.4901,3.5261,3.5552,3.5535,3.5518,3.5569,3.5569,3.5669,3.5686,3.5618,3.5717,3.5669,3.5583,3.5686,3.5789,3.5789,3.5809,3.5789,3.5857,3.5943,3.608,3.6097,3.6097,3.6097,3.6097,3.6097,3.6097,3.608,3.608,3.6097,3.6097,3.6097,3.6097,3.6097,3.6097,3.6097,3.6097,3.6097,3.6097,3.6097,3.6097,3.6097,3.608,3.608,3.5994,3.5806,3.5583,3.5549,3.5398,3.483,3.4575,3.4333,3.3288,3.1267,2.8924,2.7047,2.5502,2.4096,2.2674,2.1649,2.1296,2.1307,2.1382,2.1468,2.1511,2.1565,2.1706,2.1836,2.1965,2.2116,2.2148,2.2201,2.2244,2.2287,2.2363,2.2406,2.2428,2.246,2.246,2.2384,2.2266,2.2374,2.2438,2.2395,2.2352,2.2363,2.2374,2.2374,2.2342,2.2309,4.5421,4.5421,4.5421,4.5421,4.5473,4.5783,4.5944,4.6058,4.6351,4.6052,4.5039,4.2414,4.047,3.8837,3.6508,3.4766,3.4764,3.4729,3.4659,3.4642,3.4659,3.4522,3.4453,3.4505,3.4575,3.4368,3.4556,3.4849,3.5092,3.5089,3.504,3.5123,3.5309,3.5395,3.5429,3.5566,3.586,3.5894,3.5874,3.5874,3.5894,3.5894,3.5877,3.5894,3.5894,3.5843,3.5809,3.5772,3.5772,3.5806,3.5892,3.596,3.5977,3.5977,3.6011,3.608,3.6097,3.6097,3.6097,3.6097,3.6097,3.6097,3.6097,3.6097,3.6097,3.608,3.6083,3.6032,3.5943,3.5789,3.5463,3.5309,3.5189,3.5018,3.4642,3.4244,3.4146,3.3214,3.1453,2.9139,2.6794,2.499,2.3664,2.263,2.1569,2.1501,2.1522,2.1619,2.1695,2.1705,2.1792,2.1986,2.2116,2.2234,2.2342,2.2374,2.2439,2.2514,2.2525,2.2568,2.2622,2.2665,2.2643,2.26,2.2611,2.2557,2.2675,2.2708,2.26,2.2568,2.2665,2.2665,2.2578,2.2557,2.2546,4.5421,4.5421,4.5421,4.5421,4.5404,4.5496,4.5496,4.5541,4.5633,4.5119,4.449,4.2287,4.0396,3.8234,3.5503,3.4141,3.4006,3.4057,3.4092,3.4109,3.4074,3.4057,3.392,3.3901,3.4057,3.3972,3.4006,3.4385,3.4729,3.4866,3.4935,3.4915,3.4952,3.5035,3.5072,3.5226,3.5123,3.5141,3.5158,3.5175,3.5192,3.5192,3.5212,3.5212,3.5209,3.5226,3.5261,3.5278,3.5243,3.5243,3.5446,3.5566,3.5546,3.5583,3.5789,3.5977,3.6097,3.6097,3.608,3.6046,3.6063,3.608,3.6097,3.6097,3.6097,3.608,3.596,3.56,3.5581,3.5429,3.5087,3.4744,3.4747,3.4607,3.4314,3.4194,3.4101,3.3715,3.1856,3.0067,2.7962,2.5324,2.3337,2.2398,2.1567,2.1653,2.1728,2.1836,2.1953,2.1965,2.204,2.2244,2.2352,2.2471,2.2482,2.2546,2.2589,2.2697,2.2697,2.2708,2.2708,2.2708,2.2708,2.2686,2.2708,2.2708,2.2708,2.2708,2.2708,2.2708,2.2708,2.2708,2.2697,2.2708,2.2708,4.5421,4.5421,4.5421,4.5421,4.5421,4.5421,4.5421,4.5421,4.5404,4.521,4.4555,4.2866,4.0384,3.7657,3.5475,3.4461,3.395,3.3852,3.3799,3.3852,3.3852,3.3852,3.3835,3.3799,3.3818,3.3869,3.3835,3.3936,3.428,3.4348,3.4333,3.4385,3.4558,3.4642,3.4676,3.4901,3.5006,3.504,3.5023,3.5023,3.5006,3.5006,3.5006,3.5006,3.4989,3.4972,3.4952,3.5006,3.5006,3.5021,3.5192,3.5226,3.5207,3.5207,3.5292,3.5415,3.5466,3.5652,3.5977,3.5857,3.5874,3.6049,3.608,3.6097,3.6097,3.6046,3.5909,3.5549,3.5515,3.5224,3.4798,3.4524,3.4387,3.4248,3.4073,3.4074,3.3996,3.366,3.2645,3.0898,2.9175,2.6867,2.4767,2.3851,2.2955,2.2096,2.2068,2.2019,2.2191,2.2331,2.2395,2.2503,2.26,2.2654,2.2643,2.2665,2.2632,2.2708,2.2708,2.2708,2.2708,2.2708,2.2708,2.2708,2.2708,2.2708,2.2708,2.2708,2.2708,2.2708,2.2708,2.2708,2.2708,2.2708,2.2708,4.5421,4.5421,4.5421,4.5421,4.5421,4.5421,4.5421,4.5421,4.5547,4.557,4.4953,4.3245,4.0392,3.7722,3.6231,3.498,3.4162,3.4109,3.4109,3.4109,3.4109,3.4143,3.4194,3.416,3.416,3.4092,3.404,3.4057,3.3989,3.392,3.3903,3.3835,3.4126,3.4231,3.4314,3.4453,3.459,3.459,3.4607,3.4607,3.4624,3.4642,3.4678,3.4659,3.4693,3.4712,3.4693,3.4659,3.4659,3.4659,3.4779,3.4849,3.4849,3.4849,3.4915,3.4969,3.4935,3.5018,3.5412,3.5549,3.5566,3.5703,3.5826,3.5723,3.5737,3.5806,3.5635,3.5172,3.5138,3.4813,3.4453,3.4248,3.4145,3.404,3.3972,3.3955,3.3966,3.3951,3.3476,3.1937,3.0435,2.9286,2.7417,2.605,2.4657,2.3036,2.2463,2.2308,2.2374,2.2568,2.26,2.2654,2.2675,2.2708,2.2708,2.2708,2.2708,2.2708,2.2708,2.2708,2.2708,2.2708,2.2708,2.2708,2.2708,2.2708,2.2708,2.2708,2.2708,2.2708,2.2708,2.2708,2.2708,2.2708,2.2708,4.5421,4.5421,4.5421,4.5427,4.5427,4.5421,4.5427,4.5564,4.5898,4.5989,4.5444,4.312,4.1036,3.9121,3.6906,3.5479,3.4903,3.4918,3.4815,3.4815,3.4901,3.4798,3.4764,3.4764,3.4796,3.4764,3.4522,3.4368,3.4299,3.4109,3.3955,3.3852,3.3953,3.3884,3.392,3.404,3.4074,3.4074,3.4074,3.404,3.4023,3.4006,3.4006,3.3989,3.3938,3.3903,3.3901,3.3987,3.4021,3.4038,3.428,3.4436,3.4436,3.4436,3.4556,3.4624,3.435,3.4468,3.483,3.5072,3.5089,3.5072,3.5141,3.5226,3.5278,3.5141,3.4901,3.4695,3.4693,3.4419,3.4074,3.3869,3.3972,3.404,3.416,3.4333,3.447,3.4708,3.4096,3.2805,3.1666,3.061,2.9265,2.7722,2.6222,2.46,2.3234,2.3036,2.2589,2.2665,2.2675,2.2697,2.2697,2.2708,2.2708,2.2708,2.2708,2.2708,2.2708,2.2708,2.2708,2.2708,2.2708,2.2708,2.2708,2.2708,2.2708,2.2708,2.2708,2.2708,2.2708,2.2708,2.2708,2.2708,2.2708,4.5421,4.5444,4.5691,4.5829,4.5829,4.5829,4.603,4.6305,4.6495,4.5967,4.5003,4.3306,4.1407,3.9352,3.7719,3.6177,3.5418,3.5084,3.506,3.5006,3.5006,3.5004,3.5004,3.5057,3.4989,3.4986,3.4832,3.4764,3.4729,3.4522,3.4575,3.4453,3.4073,3.385,3.3818,3.3816,3.3818,3.3816,3.3816,3.3816,3.3818,3.3818,3.3818,3.3818,3.3818,3.3818,3.3816,3.3835,3.3818,3.385,3.397,3.404,3.4057,3.4057,3.416,3.4314,3.3953,3.4055,3.428,3.4522,3.4729,3.4969,3.5023,3.4989,3.4901,3.4969,3.4781,3.4575,3.4404,3.4231,3.3919,3.404,3.4231,3.4282,3.4436,3.4695,3.4901,3.5141,3.4487,3.3102,3.268,3.2104,3.0662,2.9161,2.7675,2.6187,2.4859,2.3687,2.3236,2.2729,2.2708,2.2708,2.2708,2.2708,2.2708,2.2708,2.2708,2.2708,2.2708,2.2708,2.2708,2.2708,2.2708,2.2708,2.2708,2.2708,2.2708,2.2708,2.2708,2.2708,2.2708,2.2708,2.2708,2.2708,2.2708,4.5473,4.5639,4.5967,4.611,4.6133,4.6271,4.6541,4.688,4.7063,4.6289,4.4783,4.3668,4.1776,3.949,3.7739,3.6685,3.5874,3.5519,3.5383,3.538,3.5398,3.5329,3.5329,3.5363,3.5432,3.5312,3.5175,3.5121,3.5121,3.5055,3.4955,3.4747,3.447,3.4231,3.3989,3.3831,3.3816,3.3816,3.3938,3.3989,3.4006,3.4143,3.4213,3.4211,3.4229,3.4229,3.4213,3.4162,3.4023,3.3953,3.3919,3.3852,3.3835,3.3818,3.3818,3.3852,3.392,3.3953,3.404,3.4111,3.4368,3.4524,3.4556,3.4573,3.4642,3.4659,3.4402,3.4472,3.4404,3.4316,3.4073,3.4436,3.4573,3.4642,3.4915,3.5158,3.5241,3.5387,3.4448,3.3415,3.3138,3.2741,3.1395,2.9836,2.8553,2.6948,2.5267,2.4234,2.3805,2.3257,2.2708,2.2708,2.2708,2.2708,2.2708,2.2708,2.2708,2.2708,2.2708,2.2708,2.2708,2.2708,2.2708,2.2708,2.2708,2.2708,2.2708,2.2708,2.2708,2.2708,2.2708,2.2708,2.2708,2.2708,2.2708,4.5662,4.6047,4.611,4.6156,4.6271,4.6673,4.6926,4.7109,4.74,4.6789,4.5348,4.3704,4.1707,3.9577,3.7611,3.6677,3.6212,3.6006,3.5943,3.5909,3.5857,3.596,3.596,3.5926,3.584,3.5926,3.572,3.5498,3.5498,3.5329,3.5177,3.5109,3.4969,3.4712,3.4385,3.4004,3.3833,3.3886,3.4248,3.435,3.4453,3.4642,3.4764,3.4781,3.4744,3.4747,3.4695,3.4524,3.4402,3.4368,3.4143,3.404,3.4023,3.3987,3.397,3.3972,3.4248,3.4368,3.4368,3.4057,3.4074,3.4194,3.4402,3.4263,3.4021,3.3987,3.4229,3.4505,3.4507,3.4627,3.4764,3.4969,3.4969,3.5072,3.5309,3.5532,3.5635,3.5363,3.4455,3.3514,3.3247,3.287,3.1653,3.0422,2.9244,2.7675,2.5781,2.48,2.4448,2.3869,2.3257,2.2708,2.2708,2.2708,2.2708,2.2708,2.2708,2.2708,2.2708,2.2708,2.2708,2.2708,2.2708,2.2708,2.2708,2.2708,2.2708,2.2708,2.2708,2.2708,2.2708,2.2708,2.2708,2.2708,2.2708,4.5685,4.6133,4.6472,4.6816,4.7079,4.7263,4.7551,4.7872,4.7875,4.6731,4.4565,4.3453,4.1442,3.9078,3.7747,3.6865,3.65,3.6158,3.6097,3.6097,3.6097,3.6097,3.6097,3.6097,3.6097,3.6063,3.5926,3.5857,3.5892,3.5689,3.5723,3.5706,3.5415,3.5141,3.4847,3.4624,3.4607,3.4607,3.4747,3.4779,3.4796,3.4935,3.5057,3.5057,3.5075,3.5055,3.5092,3.4884,3.4798,3.4781,3.4556,3.4522,3.4522,3.4522,3.4539,3.4556,3.4781,3.4781,3.4781,3.4642,3.4607,3.459,3.4522,3.4522,3.4573,3.459,3.4693,3.4727,3.4781,3.4901,3.4972,3.5226,3.5309,3.5395,3.5618,3.5823,3.5859,3.5292,3.4551,3.3601,3.3055,3.2273,3.1233,3.0817,2.9865,2.9384,2.7794,2.6015,2.5291,2.4607,2.3955,2.3063,2.2708,2.2708,2.2708,2.2708,2.2708,2.2708,2.2708,2.2708,2.2708,2.2708,2.2708,2.2708,2.2708,2.2708,2.2708,2.2708,2.2708,2.2708,2.2708,2.2708,2.2708,2.2708,2.2708,4.5938,4.6426,4.6931,4.7436,4.7854,4.7877,4.8102,4.8354,4.8305,4.6551,4.4002,4.332,4.1364,3.8702,3.7425,3.7065,3.6661,3.6299,3.6097,3.6097,3.6097,3.6097,3.6097,3.6097,3.6097,3.6097,3.6097,3.608,3.6063,3.608,3.6046,3.596,3.584,3.5618,3.5361,3.5192,3.4935,3.4952,3.5038,3.5155,3.5207,3.5292,3.5415,3.5432,3.5432,3.5395,3.5363,3.5278,3.5175,3.5158,3.5089,3.504,3.5023,3.5023,3.5023,3.5004,3.5123,3.5209,3.5346,3.5398,3.5361,3.5361,3.5192,3.5023,3.5006,3.4918,3.5038,3.5106,3.5195,3.5278,3.538,3.5618,3.5669,3.5772,3.584,3.6066,3.5942,3.5392,3.4682,3.3711,3.287,3.1943,3.1046,3.0921,3.0505,3.0276,2.9906,2.8089,2.6291,2.5483,2.4693,2.374,2.2923,2.2772,2.2751,2.2708,2.2708,2.2708,2.2708,2.2708,2.2708,2.2708,2.2708,2.2708,2.2708,2.2708,2.2708,2.2708,2.2708,2.2708,2.2708,2.2708,2.2708,2.2708,2.2708,4.6408,4.6971,4.7418,4.7877,4.8331,4.8331,4.8396,4.8396,4.8396,4.6551,4.351,4.3129,4.1093,3.8304,3.7105,3.6742,3.6601,3.6238,3.6137,3.6097,3.6097,3.6097,3.6097,3.6097,3.6097,3.6097,3.6097,3.6097,3.6097,3.6097,3.6097,3.6097,3.6029,3.5943,3.5757,3.55,3.5243,3.5312,3.5432,3.5515,3.5566,3.5789,3.5857,3.5912,3.5892,3.5892,3.5843,3.5703,3.5586,3.5466,3.5295,3.5141,3.5092,3.5038,3.5038,3.5141,3.5395,3.5689,3.5894,3.5929,3.5943,3.5806,3.5449,3.5175,3.5123,3.5243,3.538,3.5481,3.5549,3.5755,3.596,3.5977,3.6011,3.6029,3.6029,3.6077,3.6019,3.5514,3.4767,3.3956,3.3178,3.2252,3.115,3.0796,3.0796,3.0672,3.0401,2.9906,2.8131,2.6503,2.5632,2.4469,2.3687,2.2945,2.2816,2.2729,2.2708,2.2708,2.2708,2.2708,2.2708,2.2708,2.2708,2.2708,2.2708,2.2708,2.2708,2.2708,2.2708,2.2708,2.2708,2.2708,2.2708,2.2708,2.2708,4.6597,4.7395,4.7556,4.7923,4.8354,4.8396,4.8396,4.8396,4.8359,4.6551,4.3472,4.3377,4.1171,3.7687,3.7305,3.6824,3.646,3.6178,3.6137,3.6097,3.6097,3.6097,3.6097,3.6097,3.6097,3.6097,3.6097,3.6097,3.6097,3.6097,3.6097,3.6097,3.6097,3.6097,3.6032,3.5894,3.5775,3.572,3.5843,3.584,3.5874,3.6029,3.6097,3.6097,3.6097,3.6097,3.6029,3.5977,3.5874,3.584,3.5806,3.5775,3.5792,3.5792,3.5792,3.5809,3.5892,3.5994,3.608,3.6097,3.6097,3.6097,3.5843,3.584,3.5772,3.572,3.5755,3.5806,3.584,3.5994,3.6046,3.608,3.6097,3.6097,3.6077,3.6016,3.5855,3.5149,3.44,3.3547,3.2808,3.1922,3.088,3.0796,3.0796,3.0796,3.0692,3.0442,2.976,2.8047,2.6503,2.5333,2.4319,2.3558,2.2923,2.2708,2.2708,2.2708,2.2708,2.2708,2.2708,2.2708,2.2708,2.2708,2.2708,2.2708,2.2708,2.2708,2.2708,2.2708,2.2708,2.2708,2.2708,2.2708,2.2708,4.6867,4.7584,4.7854,4.8107,4.8354,4.8396,4.8396,4.8396,4.8396,4.657,4.368,4.3472,4.1325,3.8066,3.7445,3.7025,3.6399,3.6198,3.6097,3.6097,3.6097,3.6097,3.6097,3.6097,3.6097,3.6097,3.6097,3.6097,3.6097,3.6097,3.6097,3.6097,3.6097,3.6097,3.608,3.6066,3.6063,3.6046,3.608,3.6097,3.6097,3.6097,3.6097,3.6097,3.6097,3.6097,3.6097,3.6097,3.6097,3.6097,3.6097,3.6097,3.608,3.608,3.61,3.6066,3.6063,3.6063,3.6097,3.6097,3.6097,3.6097,3.6097,3.6063,3.6046,3.5994,3.6011,3.6046,3.6063,3.6097,3.6097,3.6097,3.6097,3.6097,3.6016,3.5935,3.5332,3.4624,3.3808,3.2932,3.2087,3.1253,3.0796,3.0796,3.0796,3.0796,3.0796,3.0713,3.0157,2.9076,2.7498,2.6142,2.5077,2.4126,2.3472,2.2794,2.2708,2.2708,2.2708,2.2708,2.2708,2.2708,2.2708,2.2708,2.2708,2.2708,2.2708,2.2708,2.2708,2.2708,2.2708,2.2708,2.2708,2.2708,2.2708,4.7229,4.774,4.8194,4.8354,4.8396,4.8396,4.8396,4.8396,4.8396,4.6662,4.4134,4.3566,4.1596,3.8781,3.7787,3.7145,3.6604,3.6279,3.6097,3.6097,3.6097,3.6097,3.6097,3.6097,3.6097,3.6097,3.6097,3.6097,3.6097,3.6097,3.6097,3.6097,3.6097,3.6097,3.6097,3.6097,3.6097,3.6097,3.6097,3.6097,3.6097,3.6097,3.6097,3.6097,3.6097,3.6097,3.6097,3.6097,3.6097,3.6097,3.6097,3.6097,3.6097,3.6097,3.6097,3.6097,3.6097,3.6097,3.6097,3.6097,3.6097,3.6097,3.6097,3.6097,3.6097,3.6097,3.6097,3.6097,3.6097,3.6097,3.6097,3.6097,3.6097,3.6097,3.6057,3.5713,3.5088,3.4197,3.3096,3.2273,3.1565,3.0817,3.0796,3.0796,3.0796,3.0796,3.0796,3.0796,3.0505,2.9739,2.8552,2.7054,2.6015,2.4907,2.3719,2.3128,2.2772,2.2708,2.2708,2.2708,2.2708,2.2708,2.2708,2.2708,2.2708,2.2708,2.2708,2.2708,2.2708,2.2708,2.2708,2.2708,2.2708,2.2708,2.2772,4.774,4.8217,4.8354,4.8396,4.8396,4.8396,4.8396,4.8396,4.8396,4.7255,4.5375,4.3964,4.2231,3.9983,3.8206,3.7368,3.6905,3.6402,3.6158,3.6117,3.6117,3.6097,3.6097,3.6097,3.6097,3.6097,3.6097,3.6097,3.6097,3.6097,3.6097,3.6097,3.6097,3.6097,3.6097,3.6097,3.6097,3.6097,3.6097,3.6097,3.6097,3.6097,3.6097,3.6097,3.6097,3.6097,3.6097,3.6097,3.6097,3.6097,3.6097,3.6097,3.6097,3.6097,3.6097,3.6097,3.6097,3.6097,3.6097,3.6097,3.6097,3.6097,3.6097,3.6097,3.6097,3.6097,3.6097,3.6097,3.6097,3.6097,3.6097,3.6097,3.6097,3.6097,3.6057,3.5474,3.4844,3.3604,3.2397,3.1709,3.1025,3.0838,3.0796,3.0796,3.0796,3.0796,3.0796,3.0796,3.0796,3.0296,2.953,2.8173,2.7054,2.5887,2.4362,2.3279,2.2859,2.2708,2.2708,2.2708,2.2708,2.2708,2.2708,2.2708,2.2708,2.2708,2.2708,2.2708,2.2708,2.2708,2.2708,2.2708,2.2729,2.2729,2.2826,4.7923,4.8373,4.8396,4.8396,4.8396,4.8396,4.8396,4.8396,4.8396,4.7881,4.6847,4.5263,4.3434,4.1383,3.9394,3.8307,3.7749,3.6604,3.6402,3.6299,3.6158,3.6117,3.6097,3.6097,3.6097,3.6097,3.6097,3.6097,3.6097,3.6097,3.6097,3.6097,3.6097,3.6097,3.6097,3.6097,3.6097,3.6097,3.6097,3.6097,3.6097,3.6097,3.6097,3.6097,3.6097,3.6097,3.6097,3.6097,3.6097,3.6097,3.6097,3.6097,3.6097,3.6097,3.6097,3.6097,3.6097,3.6097,3.6097,3.6097,3.6097,3.6097,3.6097,3.6097,3.6097,3.6097,3.6097,3.6097,3.6097,3.6097,3.6097,3.6097,3.6097,3.6097,3.5935,3.5514,3.4176,3.268,3.1813,3.1233,3.0817,3.0817,3.0796,3.0796,3.0796,3.0796,3.0796,3.0796,3.0796,3.063,2.9921,2.8943,2.7583,2.5738,2.3697,2.2977,2.2794,2.2708,2.2708,2.2708,2.2708,2.2708,2.2708,2.2708,2.2708,2.2708,2.2708,2.2729,2.2708,2.2708,2.2708,2.2708,2.274,2.2783,2.2945,4.7992,4.8354,4.8396,4.8396,4.8396,4.8396,4.8396,4.8396,4.8396,4.8396,4.8141,4.681,4.5095,4.3148,4.1209,4.0374,3.9297,3.7771,3.7128,3.642,3.6238,3.6137,3.6097,3.6097,3.6097,3.6097,3.6097,3.6097,3.6097,3.6097,3.6097,3.6097,3.6097,3.6097,3.6097,3.6097,3.6097,3.6097,3.6097,3.6097,3.6097,3.6097,3.6097,3.6097,3.6097,3.6097,3.6097,3.6097,3.6097,3.6097,3.6097,3.6097,3.6097,3.6097,3.6097,3.6097,3.6097,3.6097,3.6097,3.6097,3.6097,3.6097,3.6097,3.6097,3.6097,3.6097,3.6097,3.6097,3.6097,3.6097,3.6097,3.6097,3.6097,3.5996,3.5757,3.5352,3.3665,3.2082,3.1461,3.09,3.0796,3.0796,3.0796,3.0796,3.0796,3.0796,3.0796,3.0796,3.0713,3.0422,2.9927,2.8754,2.7371,2.5397,2.3494,2.2794,2.2708,2.2708,2.2708,2.2708,2.2708,2.2708,2.2708,2.2697,2.2697,2.274,2.2762,2.2783,2.2762,2.2751,2.2708,2.2729,2.2815,2.2901,2.3084,4.8286,4.8396,4.8396,4.8396,4.8396,4.8396,4.8396,4.8396,4.8396,4.8396,4.8305,4.8086,4.6942,4.5226,4.3205,4.1827,4.0433,3.8943,3.739,3.6362,3.6443,3.6279,3.6097,3.6097,3.6097,3.6097,3.6097,3.6097,3.6097,3.6097,3.6097,3.6097,3.6097,3.6097,3.6097,3.6097,3.6097,3.6097,3.6097,3.6097,3.6097,3.6097,3.6097,3.6097,3.6097,3.6097,3.6097,3.6097,3.6097,3.6097,3.6097,3.6097,3.6097,3.6097,3.6097,3.6097,3.6097,3.6097,3.6097,3.6097,3.6097,3.6097,3.6097,3.6097,3.6097,3.6097,3.6097,3.6097,3.6097,3.6097,3.6097,3.6097,3.6077,3.5794,3.5534,3.4726,3.3485,3.2391,3.1565,3.1108,3.0796,3.0796,3.0796,3.0796,3.0796,3.0796,3.0796,3.0796,3.0796,3.038,2.9969,2.8488,2.7118,2.6057,2.4586,2.3085,2.2708,2.2708,2.2708,2.2708,2.2708,2.2708,2.2708,2.2719,2.2783,2.2837,2.2837,2.2848,2.2858,2.2837,2.2751,2.2751,2.2869,2.3063,2.3289]}]]